GFSMW_500_spd_000.txt.gz
Wind_Speed
27 29 26 24 23 21 23 22 24 28 31 33 35 37 38 37 35 33 31 30 31 34 35 36 38 40 41 44 46 48 49 51 55 56 56 57 57 58 58 59 60 63 64
23 23 22 22 20 21 23 25 29 33 36 38 37 35 32 30 29 31 32 34 35 37 39 41 43 46 48 50 52 54 54 55 55 58 60 60 57 57 58 59 61 61 62
19 22 23 22 21 23 26 29 33 36 37 35 30 28 28 29 31 33 36 38 39 41 44 47 49 50 50 50 52 55 57 57 58 61 63 64 65 66 65 66 65 65 64
18 23 24 24 24 25 30 34 35 35 32 29 29 30 31 33 35 37 39 42 46 48 48 48 47 49 53 55 57 58 60 60 61 62 66 70 74 77 76 74 74 74 71
20 23 26 27 30 31 32 35 35 31 31 31 32 34 36 37 39 42 45 46 46 46 47 50 53 56 58 60 61 62 64 67 70 74 77 79 81 83 85 81 80 81 81
23 24 26 30 34 33 33 34 32 32 33 36 38 38 40 42 43 44 43 44 48 51 54 57 61 65 68 70 71 73 75 77 79 81 82 84 86 88 92 94 91 91 90
25 26 29 32 36 36 34 32 33 36 38 40 41 42 42 42 41 43 46 50 53 57 61 65 68 72 73 74 76 78 81 82 84 86 88 91 93 96 98 101 101 100 98
27 29 30 33 36 36 33 35 38 40 41 42 42 41 40 41 45 48 52 56 60 64 68 70 72 73 76 78 79 81 83 85 89 93 96 99 100 100 101 102 102 104 101
29 27 29 33 35 35 38 39 41 40 40 39 38 40 44 48 53 57 61 65 69 72 73 74 75 77 80 83 85 88 93 97 101 104 106 107 106 104 103 100 92 85 93
27 28 32 35 37 38 39 39 38 37 38 39 41 46 49 53 56 60 65 68 71 74 76 78 81 84 88 91 94 97 100 102 105 108 106 105 102 99 94 83 73 69 71
27 30 33 35 38 39 35 35 36 38 39 42 45 48 51 56 60 63 67 70 74 76 79 81 84 87 91 95 99 104 106 108 108 105 101 96 91 80 70 66 63 62 64
29 32 33 35 37 36 35 36 37 39 42 45 50 54 57 60 63 67 70 73 75 77 79 83 88 92 98 102 105 106 107 106 102 95 86 78 73 67 63 61 60 61 62
29 32 35 35 35 36 35 38 40 45 48 52 56 58 62 64 67 70 73 74 77 80 85 90 96 100 104 105 104 102 96 91 86 80 75 71 68 66 65 65 66 68 70
31 34 35 34 35 37 39 43 47 52 56 58 59 62 65 69 71 72 75 78 82 86 92 98 101 104 103 99 93 87 83 79 78 75 74 73 74 73 72 72 75 78 80
33 34 34 35 39 42 46 50 53 56 58 60 63 66 69 71 73 75 78 82 88 94 99 101 102 99 89 83 79 77 76 76 75 75 76 77 79 80 80 82 82 86 88
32 33 36 39 43 47 50 52 54 56 59 62 65 66 69 72 75 79 84 89 94 98 100 99 93 81 76 77 78 81 82 82 83 84 84 85 86 88 90 91 94 95 97
35 37 40 44 48 50 51 53 56 59 61 64 67 69 72 75 80 85 90 94 97 98 95 85 76 76 81 86 89 92 93 92 92 93 93 92 93 94 96 97 98 97 92
38 41 45 48 50 51 53 56 58 61 64 67 70 72 76 80 85 90 94 96 96 91 80 74 78 84 89 92 93 93 91 87 83 80 77 74 75 76 76 77 78 75 69
42 45 47 49 52 54 56 59 62 65 68 70 73 76 80 84 89 93 95 93 86 75 72 77 84 91 90 90 88 83 78 73 66 62 61 65 64 58 56 58 57 52 47
45 47 50 52 54 57 60 63 65 66 68 72 75 79 84 88 91 93 89 82 74 72 76 81 90 92 89 81 76 74 70 61 58 57 56 55 55 51 47 47 46 41 36
48 51 53 56 59 61 63 65 66 68 71 74 78 83 88 90 91 86 79 72 71 75 80 85 90 89 82 75 72 66 60 60 58 52 50 50 50 48 44 41 40 39 34
52 54 57 60 62 63 63 64 67 70 74 78 82 86 88 88 85 80 73 71 73 77 83 88 89 83 73 68 65 58 58 60 56 49 47 46 45 42 39 39 39 37 31
57 59 61 63 63 62 63 66 69 72 76 81 84 86 86 85 78 73 71 72 75 80 85 90 88 76 67 63 59 58 59 57 48 44 43 45 42 39 39 40 37 31 23
61 63 63 62 60 62 65 68 70 74 79 83 86 86 85 78 72 71 73 74 77 81 86 90 83 72 66 63 60 57 56 52 42 39 40 45 42 39 38 35 32 24 17
64 62 59 60 62 65 67 70 74 78 82 86 87 86 80 73 69 70 72 74 77 82 88 88 79 73 67 64 61 57 54 47 41 41 41 43 39 33 32 31 27 18 8
60 58 59 61 62 64 69 73 78 82 85 87 86 80 74 70 70 70 70 72 76 80 86 80 72 69 68 65 60 55 50 46 43 41 40 39 33 29 27 24 17 5 5

GFSMW_500_spd_003.txt.gz
Wind_Speed
25 25 27 29 29 25 25 26 23 23 24 26 31 34 39 40 39 36 34 33 34 34 36 38 40 42 44 46 48 50 49 49 52 54 54 54 54 55 56 54 54 55 57
26 29 30 24 20 21 22 23 23 24 27 30 34 36 37 35 33 33 34 36 37 39 41 43 45 47 49 50 49 50 51 54 58 60 62 62 59 58 58 60 62 64 65
27 27 22 21 16 19 24 27 27 28 30 32 34 34 32 32 34 37 39 40 41 43 45 47 47 47 48 50 53 56 59 61 62 66 70 71 70 70 69 70 71 72 72
23 22 22 22 22 21 25 27 30 33 34 35 34 34 34 36 39 41 42 43 45 45 45 45 48 50 53 56 59 62 65 68 72 73 74 76 79 82 80 80 80 81 81
23 21 22 24 24 24 26 28 31 33 35 34 34 35 38 41 42 42 43 42 43 44 46 49 51 54 59 64 68 70 73 75 77 80 82 83 84 85 88 87 88 88 90
23 23 23 25 27 28 29 30 31 33 35 35 36 38 40 40 41 41 41 41 44 47 50 54 57 60 64 67 70 73 76 78 81 83 85 88 91 93 97 99 96 97 95
25 25 26 28 31 30 29 31 33 35 35 37 38 38 39 38 37 38 42 45 48 50 52 55 60 64 68 72 75 76 79 81 84 87 90 92 96 99 103 106 106 107 103
25 26 28 30 30 30 30 32 34 35 37 37 35 35 35 37 40 43 45 48 51 54 58 62 67 71 73 75 77 78 81 85 89 93 97 100 103 105 107 109 111 112 110
28 28 29 30 30 31 32 33 35 36 34 33 34 36 38 41 43 46 51 54 58 62 67 71 73 75 77 78 80 84 89 93 97 99 102 104 106 107 106 103 97 91 96
27 27 29 32 33 32 33 35 34 34 34 35 37 39 41 45 49 54 57 61 65 69 72 75 77 77 79 84 88 90 94 97 99 101 103 104 104 101 95 87 82 78 80
25 28 30 31 31 34 35 34 34 34 35 36 39 43 47 52 56 58 61 64 68 71 73 73 76 81 85 89 92 95 97 99 100 101 99 94 90 85 81 79 79 78 79
24 27 29 30 33 35 35 34 33 34 37 41 46 50 53 56 59 62 65 69 70 71 72 77 82 86 90 94 96 96 98 100 98 94 88 82 82 82 82 82 81 82 80
24 27 29 31 32 33 33 33 35 39 43 48 51 53 56 59 62 65 66 67 69 73 79 83 86 91 94 96 96 98 98 95 91 86 87 88 89 88 89 89 89 87 86
26 28 29 30 30 31 34 37 40 44 48 52 54 56 59 61 62 64 66 70 75 79 83 86 91 94 95 97 97 94 92 85 85 89 90 89 88 87 85 84 86 87 90
28 29 28 28 30 34 38 42 45 49 51 54 57 59 60 63 65 67 71 75 79 82 86 90 92 94 95 93 93 90 85 86 89 89 86 83 78 74 73 73 72 73 73
29 29 30 33 36 39 42 46 49 52 54 56 58 60 63 65 68 72 75 78 82 86 89 91 93 93 88 88 84 86 87 90 90 84 78 71 65 63 67 69 72 72 71
29 31 33 36 39 42 45 48 52 55 56 59 61 63 65 68 71 75 78 81 85 87 90 93 91 85 82 81 84 86 89 91 85 77 70 61 61 65 66 63 63 60 58
32 33 36 38 41 45 49 52 54 57 59 62 64 65 68 71 74 78 80 84 86 89 92 89 85 79 78 82 83 87 90 86 76 69 63 61 63 66 62 60 58 52 49
33 35 38 41 45 49 52 54 56 59 62 64 65 68 70 73 76 79 82 85 87 90 87 84 80 78 78 80 84 90 89 78 70 65 63 63 63 61 58 57 53 48 43
34 37 42 46 49 52 55 58 60 62 63 65 67 69 72 74 78 82 83 86 88 87 84 78 78 78 78 80 86 90 83 73 67 63 61 60 58 54 52 56 54 48 45
38 42 46 50 53 56 59 61 63 63 65 67 69 71 73 77 81 82 85 86 88 83 78 75 75 76 78 80 86 85 76 72 65 60 56 54 50 49 51 55 54 48 42
44 47 51 53 57 61 63 65 65 65 66 68 69 72 76 80 81 84 86 87 84 78 74 72 72 74 76 81 87 80 72 69 66 60 53 48 47 47 50 52 49 42 36
49 51 54 58 63 65 66 66 64 65 67 68 70 74 78 80 84 87 88 83 79 74 71 71 72 72 75 81 85 76 70 67 63 55 49 46 45 46 47 48 42 35 32
52 55 59 64 66 67 66 64 65 66 66 68 72 76 78 82 86 87 84 79 74 69 70 72 72 73 75 83 80 71 68 64 59 50 46 44 41 41 43 40 35 34 27
56 60 65 67 69 67 65 65 64 65 68 72 75 78 81 86 86 83 79 74 68 69 70 71 74 74 76 83 75 68 65 62 55 48 47 43 35 35 36 32 30 22 12
61 66 69 70 66 63 63 63 65 68 71 74 77 82 86 87 85 81 72 67 66 67 69 71 74 74 80 81 68 66 61 55 54 52 49 40 34 32 26 22 13 11 13

GFSMW_500_spd_006.txt.gz
Wind_Speed
28 27 27 27 28 30 32 31 25 25 26 26 26 29 31 34 37 37 36 35 36 37 38 40 41 42 43 45 46 46 46 47 50 52 53 55 58 60 63 64 66 67 68
29 28 27 28 31 32 33 24 22 24 25 26 28 31 33 35 36 35 35 36 38 40 41 41 42 44 45 44 46 48 49 51 54 57 60 62 62 64 68 69 70 71 72
25 26 27 29 31 30 25 21 20 25 27 28 30 31 32 32 34 35 37 39 40 40 41 42 42 43 44 45 47 48 51 55 58 62 67 70 72 72 72 72 74 75 77
25 25 28 30 28 26 27 27 28 29 29 30 32 33 33 34 35 37 38 39 40 41 41 41 43 45 47 48 51 53 58 63 67 70 71 73 78 83 83 82 83 84 85
27 27 28 27 27 27 27 28 29 29 30 31 34 35 34 35 37 37 38 39 39 41 42 44 46 49 51 54 58 63 68 72 73 75 79 81 81 83 87 90 92 93 95
30 31 28 28 27 27 27 29 30 30 31 33 34 34 35 36 36 36 38 39 41 44 46 48 50 53 57 62 66 70 72 73 76 79 81 85 89 91 94 95 94 96 95
29 31 31 30 27 28 29 29 30 32 33 34 34 35 35 35 36 37 40 42 44 46 51 53 57 59 63 66 69 71 73 76 79 83 86 88 92 95 98 101 102 103 103
29 30 29 29 28 29 29 30 32 33 35 34 34 34 34 35 37 39 41 44 48 52 54 58 61 64 66 68 71 73 77 81 84 87 91 94 97 100 103 105 108 110 109
29 29 30 29 29 30 30 31 32 34 34 34 33 34 35 36 38 42 46 51 52 55 59 62 64 66 68 71 75 79 82 85 89 93 96 98 99 99 101 103 103 105 108
29 31 31 30 30 30 30 30 31 33 32 32 34 35 37 39 44 48 50 54 57 60 62 64 66 68 72 76 80 82 86 90 94 97 99 100 99 100 101 100 98 97 100
32 30 29 28 28 28 28 30 30 30 31 33 35 38 41 45 49 51 55 58 61 63 65 67 69 73 76 80 82 87 90 94 97 100 100 101 101 99 97 96 95 93 91
29 27 24 25 26 27 29 29 30 31 33 36 38 42 46 49 52 56 59 61 64 67 68 70 74 77 80 83 87 90 94 97 98 100 101 99 97 95 94 92 88 86 84
24 23 23 25 28 28 28 30 31 34 36 40 43 46 50 54 57 59 62 64 66 69 71 74 77 81 83 87 89 92 95 98 100 98 97 97 94 91 90 87 83 79 73
23 23 25 27 28 28 29 31 34 38 41 44 48 51 55 57 60 62 65 67 69 71 75 78 80 83 86 87 91 95 98 99 97 96 95 89 89 90 87 80 74 71 69
25 25 27 29 27 28 32 35 38 41 44 48 52 55 58 60 63 65 67 69 71 74 78 79 82 84 86 90 95 98 99 97 95 91 85 87 89 87 79 74 70 70 69
27 28 29 28 30 33 35 38 40 44 48 52 55 59 62 64 65 67 69 71 74 77 78 82 84 85 90 94 96 97 97 92 87 84 84 86 88 79 72 69 68 67 67
31 30 29 31 33 36 37 40 44 48 52 56 59 62 65 66 67 68 70 73 76 77 81 83 86 90 92 95 95 93 88 84 84 83 84 87 81 73 68 66 63 61 58
30 29 31 33 35 36 39 43 48 52 56 60 63 66 67 67 67 69 73 75 77 80 82 85 88 91 94 93 91 85 83 81 81 83 86 84 74 70 66 63 57 54 53
30 31 33 35 36 39 43 47 52 56 60 64 67 68 66 66 68 72 74 76 78 81 84 88 91 92 91 89 83 81 79 78 79 83 85 74 69 67 62 59 54 51 51
30 33 35 36 39 43 47 52 56 60 65 67 67 65 65 68 71 73 75 77 81 85 90 93 93 92 88 82 79 77 77 78 79 84 77 69 66 62 57 56 55 52 51
34 35 36 39 43 48 52 57 60 64 68 68 66 66 68 70 72 73 75 79 84 89 92 94 92 88 84 76 73 73 77 78 79 81 69 62 58 54 52 55 56 52 49
34 36 40 44 48 53 57 60 64 69 68 65 65 68 69 70 71 73 77 82 89 91 92 90 87 83 75 71 70 73 75 77 83 74 64 57 56 55 54 53 48 45 42
36 41 45 49 53 57 60 63 68 67 63 63 65 66 68 70 73 77 82 88 92 93 91 87 82 74 68 67 69 71 72 78 79 67 60 58 58 54 48 43 42 37 29
42 46 50 54 57 59 63 68 64 60 60 61 63 66 70 74 78 83 88 93 94 92 88 80 73 67 65 67 69 70 71 79 71 60 56 55 50 45 39 37 34 23 13
47 50 53 56 59 63 62 57 57 57 58 62 66 71 74 78 83 89 93 93 91 87 80 73 67 65 65 67 69 71 75 78 62 53 54 50 46 39 34 29 18 12 15
50 52 55 58 59 54 53 53 54 57 61 66 71 76 80 85 90 92 91 90 85 77 70 67 66 66 68 69 70 74 80 67 54 49 51 46 37 31 22 11 14 15 18

GFSMW_500_spd_009.txt.gz
Wind_Speed
29 34 33 30 30 31 30 31 32 34 37 32 27 27 28 32 34 36 37 36 34 34 35 36 36 37 38 39 40 40 41 43 45 47 48 50 51 54 57 59 61 63 65
30 34 32 31 30 30 32 32 34 36 33 28 29 31 33 34 37 38 37 37 36 35 36 37 37 39 40 41 42 44 46 48 49 52 54 56 55 59 62 66 68 70 71
28 32 33 33 32 32 32 33 36 32 21 27 31 33 34 36 37 37 37 36 37 38 38 39 40 40 42 45 47 48 49 51 54 59 64 66 68 70 71 72 74 75 78
29 30 31 30 30 30 32 34 33 30 32 33 33 34 35 37 38 39 37 37 38 39 40 40 42 44 45 46 48 52 55 59 63 65 66 69 74 79 80 80 80 81 82
29 31 30 30 29 30 32 30 30 30 31 32 34 35 36 37 37 37 37 39 39 40 42 42 44 45 48 51 54 57 61 64 66 68 70 73 75 77 81 84 86 86 88
30 31 31 31 30 32 31 29 29 30 32 34 35 36 38 37 37 37 38 39 40 41 42 43 47 50 53 56 60 62 64 65 67 70 74 78 82 84 87 88 89 90 90
32 32 32 31 32 32 30 29 30 32 34 35 36 37 37 37 36 37 38 40 41 43 46 49 51 55 58 61 63 64 67 68 72 75 78 82 85 88 91 95 94 94 95
31 32 33 34 34 33 32 31 32 33 35 36 37 37 37 36 36 37 40 41 44 48 50 53 56 59 61 64 66 68 70 74 77 80 83 86 88 91 95 98 104 104 105
29 31 33 33 32 31 31 32 33 35 36 36 36 36 35 35 37 39 42 45 48 51 54 57 59 62 64 67 69 72 74 77 81 84 87 90 92 96 100 104 109 113 112
30 28 30 31 32 33 33 33 34 33 33 34 34 34 34 37 40 42 46 48 51 54 57 60 63 66 68 70 73 75 78 82 85 88 91 94 98 101 105 109 110 109 107
27 30 31 32 32 32 33 32 30 30 32 32 33 35 37 40 43 46 49 52 55 59 62 64 67 69 71 73 76 79 83 85 88 92 95 98 102 106 109 108 106 102 97
30 31 32 32 31 30 29 29 30 31 32 32 34 38 41 43 46 50 53 57 60 63 66 68 70 72 73 76 79 82 84 88 91 96 100 104 107 107 105 103 98 93 91
29 29 28 27 26 27 29 30 31 32 33 35 39 42 44 46 50 53 58 61 65 68 70 71 72 73 76 79 81 84 87 91 96 100 103 105 104 101 99 95 90 89 89
26 25 25 26 27 30 31 32 32 34 36 40 42 44 47 51 54 59 63 67 69 71 71 71 73 76 78 79 82 85 89 93 97 99 102 101 99 97 92 87 86 88 88
27 26 28 29 30 32 33 33 35 37 39 41 43 47 51 55 60 64 68 70 72 71 70 73 75 75 76 79 85 90 95 98 98 99 100 98 92 87 83 84 87 88 81
26 27 29 31 33 34 34 36 37 38 40 43 47 51 56 60 65 69 72 73 70 70 72 72 73 74 79 85 92 96 98 97 98 98 95 88 82 81 80 85 86 78 75
28 30 33 34 34 34 36 37 38 39 43 47 51 55 61 66 70 73 72 69 68 69 70 72 75 79 85 92 96 98 98 97 95 92 85 79 78 78 83 83 75 69 65
30 33 35 35 36 37 37 36 39 42 47 50 55 60 66 70 73 71 67 67 67 69 72 76 81 86 92 96 98 99 97 94 88 79 77 77 76 79 85 77 68 65 65
33 34 35 37 36 36 36 38 42 46 50 55 60 65 69 73 68 64 64 66 69 73 78 82 87 93 97 98 98 95 92 84 77 74 75 76 76 83 78 71 67 65 63
33 37 39 37 37 35 39 42 46 50 55 60 65 69 72 63 60 61 65 69 74 79 83 89 94 96 96 95 93 89 82 77 73 71 73 74 79 80 67 65 63 61 53
33 33 33 32 37 39 42 46 50 55 60 65 68 68 59 58 59 64 70 75 80 85 89 93 95 95 93 89 84 77 74 72 70 70 70 72 80 68 59 61 60 54 46
31 32 35 37 38 42 46 51 55 60 64 67 62 56 55 58 63 69 76 82 86 89 93 96 95 92 87 80 74 70 69 70 72 71 71 77 70 54 57 58 53 45 37
31 34 36 38 42 47 50 55 60 63 65 56 53 54 57 62 67 73 80 86 90 94 98 97 92 84 78 71 68 67 68 70 73 75 78 72 52 50 53 51 42 33 23
33 36 38 43 47 50 55 59 62 59 52 51 53 56 60 66 70 77 85 90 95 100 97 90 84 76 69 67 67 68 71 73 76 78 70 50 43 49 49 41 29 20 23
36 40 44 47 50 54 57 58 51 49 50 52 55 61 67 70 76 83 91 94 101 99 90 81 76 71 67 68 71 74 76 79 77 66 47 38 41 42 36 25 21 25 28
41 43 46 49 52 55 51 47 47 49 52 55 61 67 72 76 83 89 92 98 100 91 82 75 71 69 72 74 76 78 79 72 58 42 35 37 38 32 19 18 25 30 32

GFSMW_500_spd_012.txt.gz
Wind_Speed
28 29 28 30 33 30 28 27 28 30 31 33 34 38 32 31 31 32 34 37 38 40 40 39 37 36 36 36 37 37 38 41 43 44 43 45 47 50 54 57 61 61 63
30 29 28 30 30 29 30 29 29 32 33 34 35 34 31 33 33 35 36 38 39 41 40 38 36 37 39 40 40 41 42 44 46 49 52 54 53 57 60 62 63 64 65
29 26 28 29 30 30 30 30 31 32 35 38 37 29 31 37 37 37 39 40 41 39 38 38 39 40 41 42 43 44 47 49 52 57 63 66 66 67 62 62 65 67 69
30 26 28 27 29 31 31 31 31 33 37 36 31 31 36 37 37 38 40 41 40 40 39 39 40 41 42 43 46 50 52 55 59 62 64 67 71 73 71 69 71 72 74
30 28 28 27 26 27 28 29 31 33 34 33 33 35 37 38 38 40 40 40 39 39 40 40 41 43 46 49 51 54 58 61 63 65 67 68 70 73 77 75 77 79 81
29 29 28 27 25 27 28 29 31 34 35 35 36 37 38 39 39 40 41 40 39 38 40 42 44 47 50 52 55 58 61 63 65 68 71 73 76 78 80 81 81 83 85
29 29 28 27 26 28 29 31 33 36 37 37 38 37 39 39 39 40 39 39 39 40 42 45 48 50 53 56 59 62 65 68 69 72 74 76 79 81 85 88 88 90 90
28 26 26 27 27 30 32 33 34 36 37 38 37 38 39 38 38 38 38 39 41 43 46 48 51 53 57 60 63 66 69 70 73 74 76 78 81 85 89 93 98 98 98
26 24 23 26 27 30 31 32 32 34 36 37 38 38 37 36 37 37 39 41 43 46 48 51 54 58 61 64 67 69 71 73 74 76 79 82 86 89 92 97 104 110 109
24 25 25 24 26 28 30 31 32 35 36 35 35 34 35 35 36 39 41 43 45 48 51 55 59 63 65 68 70 72 73 75 76 79 83 85 88 94 100 105 107 108 110
27 29 26 26 28 29 29 31 33 34 33 32 33 35 35 36 38 41 44 45 49 52 57 61 64 67 69 71 71 73 74 76 78 81 85 91 98 102 106 107 106 105 104
25 26 26 28 30 30 31 32 32 31 31 33 34 35 36 38 42 43 45 49 53 58 62 66 69 70 70 70 71 72 74 77 80 86 93 98 103 106 106 104 101 99 96
25 26 27 29 30 30 30 29 29 30 33 34 35 37 39 41 43 46 49 54 58 63 67 70 70 68 68 68 70 73 77 81 87 94 99 103 105 104 101 97 94 90 88
24 26 27 29 29 27 27 29 30 33 35 36 37 39 40 42 46 50 54 59 63 68 71 69 65 64 66 69 74 78 83 88 94 99 102 102 101 97 93 89 87 85 82
25 27 28 28 28 28 29 31 33 36 37 38 40 40 41 46 50 55 59 64 68 72 68 62 61 66 70 76 81 86 90 95 100 100 99 97 94 89 85 83 80 79 79
27 27 27 27 28 29 32 35 37 37 38 39 38 41 45 50 55 59 64 68 72 66 59 61 66 71 76 81 86 92 98 100 100 98 94 90 85 80 76 74 75 76 79
25 26 27 28 30 32 35 36 36 37 38 38 40 45 50 54 59 63 68 72 65 59 60 64 70 77 83 90 98 103 104 100 96 92 87 81 76 74 71 71 72 72 80
25 27 29 31 32 34 35 36 37 38 41 39 44 49 55 58 63 68 72 63 59 60 63 70 78 85 89 94 103 105 101 96 89 83 78 75 70 70 72 73 73 77 68
27 29 30 32 33 35 37 40 41 39 40 44 49 54 58 62 67 71 62 58 60 65 70 77 83 89 92 99 108 105 97 89 81 75 71 70 70 71 74 78 78 70 54
29 30 31 32 34 37 36 33 38 41 44 49 53 57 61 66 69 61 58 60 66 71 75 81 89 94 96 106 106 98 91 83 76 69 68 70 73 75 78 78 67 50 52
29 32 33 34 35 33 34 38 40 44 48 53 56 60 66 65 59 59 60 65 71 75 81 87 92 96 104 107 98 90 82 77 73 72 72 73 78 78 72 57 47 49 44
26 28 28 29 31 34 37 39 43 48 51 55 60 64 60 57 57 59 65 70 75 79 86 90 96 101 107 99 90 81 76 76 78 78 78 78 73 61 46 41 43 38 24
29 30 31 33 34 36 39 44 48 50 55 58 60 54 55 56 58 64 70 75 81 86 90 95 99 105 100 88 79 75 76 79 81 78 71 61 48 39 36 39 33 21 26
29 30 32 34 37 40 44 47 49 53 57 54 51 52 54 57 63 69 75 80 85 89 94 98 103 102 89 79 75 78 80 76 69 59 49 41 36 36 36 29 22 27 31
30 33 35 38 41 43 45 48 52 54 48 49 50 52 56 61 67 73 79 84 89 94 98 102 103 93 78 72 78 79 71 64 56 46 39 35 33 30 23 21 27 31 29
34 36 37 39 42 44 48 52 47 45 46 48 51 55 60 66 72 77 82 87 91 95 100 99 90 78 75 77 76 69 62 52 46 40 36 32 28 19 17 23 26 21 21

GFSMW_500_spd_015.txt.gz
Wind_Speed
29 30 28 26 26 27 27 27 29 25 25 27 29 31 32 33 35 31 31 32 36 37 38 39 41 39 38 37 37 37 38 39 39 40 41 44 47 49 53 56 59 61 63
28 29 29 26 28 27 27 27 28 28 28 29 31 33 35 37 32 29 32 37 41 39 40 41 40 39 39 40 40 40 40 42 44 46 48 49 51 55 58 60 62 64 65
29 26 29 28 29 28 27 27 28 29 31 31 33 34 36 32 29 32 37 39 40 41 41 41 42 40 40 39 40 42 44 46 50 54 57 59 60 60 60 61 64 66 68
30 28 25 28 28 26 27 27 27 29 30 32 33 33 31 30 30 33 36 39 41 42 42 41 40 40 40 42 44 47 50 52 54 57 61 66 70 71 70 67 67 70 71
29 30 28 29 27 26 26 25 26 28 29 31 32 32 32 33 34 36 39 39 41 42 41 40 40 41 43 45 48 50 53 55 58 61 63 66 68 72 75 77 77 77 76
28 31 30 30 27 26 25 25 25 27 29 31 33 34 35 36 36 37 38 38 39 39 40 40 41 43 46 48 50 53 56 59 62 65 68 71 73 74 76 77 78 80 82
27 29 30 30 27 27 27 27 28 29 31 32 33 35 36 37 37 38 39 38 38 39 39 42 44 46 48 51 53 57 60 63 66 69 71 73 74 77 79 83 83 84 83
27 28 27 26 26 27 28 29 30 31 32 33 34 35 35 37 37 37 36 38 39 39 42 44 46 48 51 54 58 62 65 68 69 70 70 72 73 76 80 84 89 88 90
26 26 24 25 24 26 28 30 31 31 32 32 33 35 36 36 35 35 37 38 40 42 45 47 49 52 56 60 63 66 68 68 68 68 70 73 76 80 85 92 97 102 102
22 22 22 23 22 23 26 27 28 28 30 31 33 35 34 33 35 37 38 39 42 44 47 49 53 57 61 64 67 68 67 66 66 68 72 77 83 89 94 99 104 109 112
19 20 20 21 23 24 25 26 28 29 31 33 33 32 32 34 37 38 40 42 43 46 49 54 58 61 65 68 67 65 64 65 69 74 80 86 91 96 100 105 108 108 109
18 19 21 24 25 26 26 29 30 31 32 31 29 31 35 37 38 40 42 43 45 50 54 58 62 66 68 67 63 63 66 70 75 83 89 94 100 105 109 109 107 104 99
19 20 22 25 26 26 27 29 29 30 29 29 31 35 37 38 40 42 42 46 49 54 59 63 67 70 66 63 63 66 71 77 84 90 95 101 106 110 111 106 100 94 89
16 16 18 21 22 24 25 26 27 29 30 32 35 37 38 39 41 42 46 50 54 59 63 67 70 67 63 64 68 72 78 85 91 96 101 106 112 112 105 96 90 85 80
15 16 19 21 23 25 25 27 28 31 33 34 37 38 39 40 42 45 50 54 59 63 67 70 66 64 64 67 73 78 85 91 96 102 105 111 111 103 93 87 81 77 74
17 19 21 22 24 24 26 28 30 32 34 36 38 39 41 43 44 50 53 59 63 67 70 65 63 63 68 74 80 86 91 96 102 105 109 111 102 91 82 77 75 75 76
18 18 20 21 23 25 27 29 32 34 36 38 40 43 45 44 48 53 58 61 65 68 63 62 63 69 76 81 86 91 95 100 105 110 114 102 89 83 77 73 75 75 76
20 20 21 22 24 26 29 31 33 35 38 40 40 41 45 48 53 57 60 64 64 60 60 63 69 75 80 84 90 95 99 104 109 114 101 89 81 79 80 80 78 75 68
21 23 24 25 26 28 30 32 35 37 37 37 41 44 48 52 55 59 62 60 57 58 62 69 73 78 84 90 95 100 105 108 113 100 87 83 84 83 79 75 66 55 42
24 25 25 26 28 30 32 34 36 36 38 38 43 47 51 53 58 60 56 55 57 61 67 73 78 84 90 94 101 106 109 112 99 83 81 82 79 71 61 54 45 34 34
23 23 24 25 25 27 29 32 34 36 39 43 46 50 52 56 57 53 54 56 60 65 71 76 84 91 96 100 104 108 110 97 85 81 79 73 64 53 45 39 36 35 23
21 23 25 27 29 30 32 35 37 39 42 46 49 51 54 52 51 52 56 60 63 69 75 82 88 94 98 102 106 107 94 82 82 78 69 59 48 41 38 36 30 19 23
25 28 28 29 31 33 34 36 39 42 45 47 49 51 48 49 51 54 59 63 68 75 81 86 92 95 100 104 105 94 78 77 75 65 54 47 41 37 33 25 19 25 28
25 27 28 31 31 34 37 39 41 42 44 48 47 46 47 50 53 58 62 68 74 80 86 91 95 98 102 103 95 78 74 73 60 49 46 41 36 32 21 22 28 29 22
25 27 29 31 33 35 36 37 40 44 45 43 44 45 48 52 56 61 67 73 79 87 91 94 98 101 101 92 78 76 72 60 48 45 39 33 27 18 22 29 26 21 21
26 28 29 30 32 33 36 40 42 41 41 42 44 47 51 54 59 66 72 80 86 89 92 95 99 100 89 77 74 71 57 48 44 37 31 23 16 22 25 19 18 18 20

GFSMW_500_spd_018.txt.gz
Wind_Speed
32 30 27 32 29 28 28 26 24 25 29 26 25 25 26 30 29 32 34 33 29 31 35 38 39 40 39 40 41 42 43 42 41 40 41 43 46 48 51 53 56 59 62
33 30 27 29 31 29 28 27 26 26 28 29 28 27 30 30 31 33 33 30 31 35 38 40 41 41 41 41 41 41 41 42 43 44 45 46 49 52 55 58 60 63 65
36 29 28 28 31 30 28 29 27 27 27 28 29 31 31 31 31 31 29 31 33 36 39 40 41 42 41 40 40 41 42 44 47 49 53 54 54 55 56 59 62 65 66
35 29 29 29 30 32 30 29 28 27 28 30 30 31 31 30 31 32 32 34 36 39 40 41 42 41 40 40 43 44 46 47 50 54 57 62 65 67 66 65 65 66 68
33 29 32 31 28 29 29 27 27 27 29 31 31 31 29 31 33 33 35 37 38 40 41 41 40 40 42 43 45 48 50 52 56 58 62 65 70 73 76 76 74 69 65
32 29 31 30 29 29 29 27 28 27 29 31 31 29 30 32 34 36 37 38 40 41 41 39 40 42 43 45 47 50 53 57 59 64 67 70 72 73 73 74 74 76 75
29 28 32 31 31 30 30 30 28 28 29 31 31 31 33 34 36 36 37 39 40 39 39 41 42 44 45 47 50 53 57 61 65 68 71 72 73 73 72 74 76 78 78
28 28 31 32 31 31 31 29 29 29 31 32 32 33 35 36 35 37 38 39 37 38 40 42 44 46 48 51 53 58 63 65 69 71 72 71 69 70 74 78 84 85 85
28 30 31 29 29 29 28 29 29 29 32 33 34 35 35 35 37 38 38 37 38 40 42 44 47 49 50 54 59 63 67 70 72 71 69 68 70 74 80 86 93 98 97
28 28 29 29 28 27 26 27 28 30 31 31 33 34 34 36 37 37 36 38 40 43 44 47 49 50 55 59 63 67 71 72 69 68 68 71 77 83 89 94 99 106 111
28 26 28 26 25 25 25 24 24 27 29 31 33 34 35 35 35 36 38 41 43 45 48 49 50 54 59 63 68 72 72 68 66 67 72 78 85 89 95 100 106 110 116
24 27 26 24 23 22 24 25 27 29 30 32 33 34 34 33 35 38 41 43 45 48 50 50 54 58 63 68 71 70 67 66 68 74 80 84 89 94 100 105 111 116 120
23 22 19 19 21 23 25 26 28 30 31 32 32 31 32 35 37 41 43 45 47 50 52 54 58 63 67 71 67 65 65 68 74 79 83 89 95 100 107 114 118 122 119
18 17 18 20 22 24 24 25 26 27 29 29 31 32 35 37 40 43 45 47 49 51 53 58 63 67 70 66 63 64 68 73 78 84 91 97 102 108 114 119 122 115 102
17 18 19 20 19 20 21 22 24 25 28 31 32 35 37 39 42 45 47 49 50 53 58 62 66 68 64 62 64 68 73 79 85 92 97 101 108 114 118 119 107 97 94
14 15 17 18 18 19 20 23 25 28 30 32 34 36 39 42 44 46 47 49 52 57 62 65 65 62 61 64 68 73 79 85 90 96 101 108 112 117 111 98 93 93 89
18 18 18 17 17 19 22 24 26 28 31 33 35 38 41 44 44 45 46 52 55 60 64 63 60 61 63 67 73 79 84 91 98 104 108 111 115 105 94 89 87 79 66
19 18 18 17 18 21 23 25 27 29 32 35 38 41 41 43 44 47 51 55 59 62 61 59 60 64 68 73 80 86 92 97 102 107 111 111 99 89 88 83 70 55 49
17 18 18 19 22 23 24 26 28 31 35 37 40 42 41 43 48 51 55 57 61 58 57 60 64 67 73 79 86 92 95 100 105 110 108 95 87 85 75 63 52 45 43
17 19 21 22 23 25 26 27 30 32 33 35 38 41 44 46 51 54 55 59 53 54 58 63 67 73 78 86 91 96 100 104 108 103 88 83 82 67 58 53 48 41 31
20 22 21 21 23 25 26 28 31 33 36 38 41 43 46 50 52 54 54 51 53 57 60 65 73 79 85 90 95 100 104 107 103 87 79 76 62 54 51 46 39 27 29
18 18 19 20 23 26 30 32 33 36 38 39 43 46 48 50 52 49 50 52 55 58 64 70 76 82 88 93 97 102 106 101 87 79 71 59 51 48 42 35 26 32 30
16 17 21 25 25 28 30 33 35 37 40 42 44 46 49 49 47 49 51 54 57 63 69 74 80 86 91 95 101 105 98 84 79 69 58 49 44 39 32 26 31 24 20
21 23 23 25 28 30 32 34 37 38 40 42 45 46 45 46 48 50 53 57 63 69 75 81 85 90 94 99 104 98 82 76 67 55 46 40 37 27 27 31 23 21 21
19 22 25 27 29 32 33 34 36 37 41 43 43 43 44 46 49 52 56 63 71 76 81 85 90 93 97 102 97 81 75 66 54 43 38 34 24 27 30 22 21 20 19
22 24 26 28 29 30 32 33 36 39 41 41 42 43 44 47 50 54 63 70 75 80 85 89 91 95 100 93 79 74 64 54 42 36 31 22 28 26 17 19 20 18 19

GFSMW_500_spd_021.txt.gz
Wind_Speed
41 39 34 32 29 32 30 28 28 26 26 27 30 29 26 25 27 27 29 31 32 34 31 31 34 36 40 42 43 45 45 43 40 38 40 42 44 46 47 51 54 56 58
41 42 35 33 31 33 33 29 28 28 26 28 31 31 29 29 29 30 31 32 33 32 30 32 35 39 41 42 44 46 44 39 40 42 42 43 45 48 52 54 57 60 62
43 43 37 35 32 32 34 33 30 27 27 27 28 30 32 32 32 33 34 33 34 32 33 35 38 41 42 44 45 42 40 43 45 45 46 48 49 51 51 56 61 64 66
43 42 41 35 33 32 30 32 32 29 27 29 28 29 30 32 33 34 34 36 35 35 37 39 41 42 44 45 43 43 44 46 47 50 53 56 59 60 60 58 62 64 66
41 41 39 36 35 33 31 31 32 30 27 28 29 30 31 33 35 36 36 37 37 39 40 41 43 44 46 44 44 45 46 48 51 54 56 59 64 68 68 66 67 65 62
40 41 40 38 34 34 32 30 30 28 26 28 30 30 32 35 35 36 38 39 41 41 40 43 44 44 43 44 46 48 50 52 55 58 62 66 68 70 72 73 73 73 68
41 39 39 36 35 34 33 32 31 29 28 29 30 30 32 33 35 38 40 41 42 41 43 44 43 43 45 46 47 50 53 56 59 64 66 71 73 75 75 74 73 73 74
40 41 38 36 37 34 34 33 32 29 30 30 31 31 33 34 37 40 41 41 41 43 44 43 43 45 46 48 51 54 57 59 64 67 71 74 75 73 72 74 77 79 79
39 41 37 35 36 33 34 33 32 30 29 30 32 33 35 37 39 40 39 41 42 42 42 43 45 47 48 51 54 57 60 64 68 71 74 74 70 69 71 77 83 88 89
39 35 37 34 32 33 34 32 30 30 30 31 33 34 36 37 37 37 40 42 41 41 43 46 47 49 51 54 57 60 63 67 71 75 73 69 69 71 77 82 88 93 99
35 37 37 34 33 33 30 30 30 28 30 31 31 32 35 36 37 39 40 39 41 43 45 48 49 51 54 57 59 62 67 70 75 72 69 69 73 77 83 88 94 101 109
41 39 35 32 31 30 31 29 28 28 28 28 31 34 35 36 37 37 38 40 42 45 47 49 51 54 57 57 62 67 71 74 69 68 70 73 78 84 90 96 101 109 116
36 35 34 31 29 28 27 27 26 27 28 30 32 34 35 35 35 37 39 41 44 47 49 51 54 55 56 61 67 71 72 68 69 71 74 79 85 91 97 104 110 117 122
27 28 29 25 25 25 25 26 26 27 29 31 32 33 33 34 36 38 40 43 46 49 52 53 53 56 61 66 70 70 67 69 72 75 80 86 92 99 106 111 118 122 118
26 25 23 22 22 22 22 23 24 26 27 29 31 31 33 34 37 40 43 46 49 52 52 53 58 60 66 68 69 67 68 71 75 80 86 93 100 105 112 118 119 109 96
22 21 19 19 19 19 21 22 23 25 27 28 30 31 33 36 39 42 46 49 51 51 53 57 61 65 67 66 66 67 69 74 80 86 93 99 105 111 116 113 101 90 83
18 18 18 17 18 19 20 21 22 24 26 28 30 33 36 39 42 45 48 48 49 54 56 61 63 67 63 64 65 68 74 81 88 95 101 104 110 114 110 93 85 74 62
16 16 15 16 16 17 18 20 23 25 27 30 32 35 38 41 43 44 46 51 52 56 60 63 65 61 63 64 69 74 81 89 95 100 104 109 112 104 89 82 70 57 55
18 18 18 17 17 19 20 22 24 27 30 31 34 36 39 41 44 48 49 52 56 59 62 61 60 61 64 69 75 81 88 93 98 102 108 110 101 85 79 68 54 49 43
19 19 18 19 20 22 23 24 27 29 30 32 35 39 41 44 46 48 51 54 57 60 56 58 61 63 68 75 81 86 93 96 99 104 105 91 82 75 64 53 46 39 32
15 17 20 22 23 22 24 26 27 29 32 36 38 41 43 44 47 50 52 56 56 55 57 58 62 69 75 81 84 92 96 99 103 102 86 77 69 60 49 45 36 33 36
21 23 22 20 20 22 23 26 29 31 33 37 39 40 43 46 48 51 54 52 53 55 56 59 66 74 80 85 89 95 99 103 101 83 75 66 56 45 42 32 33 33 28
17 17 17 18 20 23 26 27 30 32 35 37 39 41 43 47 50 50 50 51 53 55 59 65 72 76 82 88 93 98 100 97 81 74 66 54 43 40 31 34 33 26 25
16 17 19 22 24 24 26 29 32 34 36 37 39 41 46 47 47 47 48 51 54 58 65 70 75 80 86 91 97 99 98 82 73 65 51 42 39 30 36 33 24 26 26
18 18 18 21 23 26 28 30 32 33 35 37 41 44 44 45 45 47 50 54 59 64 69 74 79 85 90 95 99 98 81 71 63 51 40 36 29 34 31 27 28 28 27
15 17 20 23 25 28 30 30 31 33 37 40 41 41 42 42 45 49 54 58 63 69 74 80 85 89 93 97 95 78 69 62 51 38 34 27 31 25 26 27 29 31 31

GFSMW_500_spd_024.txt.gz
Wind_Speed
36 38 39 38 39 36 32 31 33 30 27 29 28 29 30 31 29 27 28 29 29 31 33 33 34 33 34 36 38 41 42 42 44 43 41 39 41 43 44 46 47 50 53
39 40 37 36 40 38 33 32 33 32 27 29 28 30 29 30 31 31 31 30 32 33 33 34 35 36 37 38 41 42 44 45 44 41 40 40 44 46 48 50 52 54 56
42 43 38 37 38 40 36 34 34 35 31 28 29 29 27 28 32 34 34 34 34 35 35 37 39 40 39 42 43 44 47 46 44 43 44 45 45 47 47 50 54 58 62
44 46 40 39 37 41 39 35 35 35 36 30 28 29 29 29 30 32 34 35 36 37 38 41 42 43 44 44 45 46 46 43 45 47 49 51 54 55 54 53 58 60 62
48 49 44 40 41 42 40 36 36 35 36 34 31 30 30 30 30 31 33 35 38 39 41 43 44 45 44 45 47 46 44 45 47 49 52 55 58 62 65 64 61 63 66
47 45 44 40 42 41 40 38 37 35 32 32 31 31 29 29 31 32 34 36 39 41 43 44 45 45 45 47 47 46 47 49 51 54 57 60 62 66 69 66 66 67 67
50 47 42 41 40 39 40 38 39 36 32 31 32 31 29 30 31 33 35 36 40 42 44 45 45 46 47 46 46 48 50 52 55 58 61 64 69 70 71 72 72 71 70
50 48 42 42 41 42 40 40 40 36 34 32 32 32 31 30 32 34 36 39 41 43 44 44 45 47 46 46 48 51 53 56 59 61 65 68 69 73 76 76 76 74 73
47 44 43 43 42 41 39 42 39 37 35 34 33 33 32 31 34 36 38 41 42 42 43 45 46 45 46 49 51 53 55 58 61 65 65 70 74 76 75 75 77 80 81
41 42 43 44 41 41 40 41 39 36 34 34 33 33 33 33 35 37 39 40 39 41 44 45 45 46 49 51 54 56 59 61 61 65 70 74 76 74 75 77 81 84 88
35 37 40 41 41 41 40 39 38 35 33 33 33 34 35 34 33 35 37 37 40 42 43 44 46 49 51 54 56 59 59 61 65 70 73 75 74 75 77 80 84 89 98
30 38 37 39 43 39 38 38 36 33 32 32 33 34 34 32 32 34 36 39 41 41 44 45 48 51 54 57 57 57 61 65 70 72 75 72 74 76 80 87 93 98 104
34 38 41 41 40 38 37 38 35 34 32 32 33 32 32 32 33 35 37 38 40 42 45 47 51 54 56 56 57 62 66 70 73 73 72 73 76 82 88 93 98 103 108
37 40 41 39 36 36 36 36 35 33 31 32 31 31 32 33 34 35 36 38 41 44 47 51 53 54 54 58 61 67 69 73 69 70 73 76 81 87 95 100 106 111 115
36 35 34 35 36 33 32 33 31 30 29 29 30 31 31 32 33 34 36 39 43 47 50 51 51 54 57 62 66 69 71 67 69 72 76 82 87 96 102 108 111 114 107
34 30 29 31 31 31 31 29 28 27 28 28 28 28 30 31 32 35 39 42 46 48 49 52 55 58 62 65 69 67 66 67 71 76 82 86 95 101 107 112 112 102 91
29 25 26 27 28 26 25 25 24 24 23 24 25 27 28 30 34 38 41 45 47 50 53 54 57 61 64 68 64 65 66 71 77 81 87 94 102 108 111 109 95 82 73
23 21 21 21 20 20 19 19 19 20 21 22 24 27 30 34 37 40 44 47 50 51 53 57 60 64 64 62 64 66 71 77 81 87 93 101 106 110 109 94 78 66 53
21 18 15 13 13 14 15 16 17 19 21 24 27 30 33 36 38 43 46 48 50 53 55 58 62 59 60 63 65 70 75 80 85 93 101 107 111 107 91 77 62 46 41
13 9 11 14 14 16 16 17 19 22 25 27 29 32 35 38 42 44 46 49 51 54 57 58 58 59 61 65 69 74 80 85 91 99 105 109 103 85 74 60 44 36 33
9 8 11 14 16 17 19 20 22 24 26 28 31 35 37 39 42 44 47 49 53 56 54 54 57 60 64 68 74 80 85 91 98 103 105 97 79 70 56 44 37 34 38
7 10 13 16 18 19 20 21 23 25 28 31 33 36 38 40 42 44 47 51 51 51 52 55 59 63 69 74 78 83 89 98 102 102 91 76 66 52 42 36 36 37 29
11 13 13 15 16 18 19 21 25 28 29 32 34 36 37 39 42 47 48 48 49 50 53 57 62 67 72 77 82 87 94 98 101 86 72 64 49 41 34 35 34 29 32
12 13 14 15 17 20 23 25 26 29 31 32 33 35 38 42 44 45 46 46 49 53 56 62 66 70 76 81 86 93 98 101 86 69 61 46 39 33 35 33 31 34 33
13 14 16 18 19 20 23 25 27 30 31 32 33 37 40 42 42 43 44 48 52 55 60 65 70 75 80 86 94 99 101 86 69 60 46 37 33 35 32 35 36 34 32
14 13 15 17 19 22 25 28 28 28 30 32 36 38 40 40 40 43 47 50 55 60 65 71 76 81 86 93 98 98 81 68 60 48 35 31 33 31 32 30 30 30 30

GFSMW_500_spd_027.txt.gz
Wind_Speed
40 37 38 38 35 33 37 39 36 34 35 36 35 32 33 32 32 34 33 30 30 30 30 32 34 34 35 36 35 34 36 38 40 42 45 46 46 43 42 44 46 49 50
43 39 39 38 37 32 33 39 39 37 35 34 34 31 35 31 31 32 33 33 35 32 33 34 35 37 37 37 38 39 41 42 43 43 45 44 44 44 45 47 50 53 55
46 43 41 41 41 33 35 39 41 38 36 33 34 30 33 32 29 31 34 36 36 36 36 37 37 38 39 40 42 44 45 46 45 46 47 44 43 44 45 48 53 56 58
47 44 42 44 43 37 37 40 41 40 37 34 33 34 32 32 32 31 32 34 36 38 39 39 39 40 41 43 45 46 47 47 49 48 46 47 49 49 49 49 52 55 58
49 47 44 45 42 39 40 40 40 40 38 36 33 34 37 33 30 32 34 35 35 37 38 38 39 40 43 46 48 48 47 49 49 48 48 51 54 56 58 57 56 59 61
51 50 48 48 46 41 42 42 38 39 39 36 33 34 37 35 33 34 34 35 36 38 39 39 40 42 45 47 49 48 50 50 49 50 52 54 56 58 61 63 63 61 62
51 50 49 49 47 41 42 43 39 40 40 38 35 34 35 34 34 33 33 35 36 37 39 40 41 44 46 48 48 50 50 50 51 54 56 58 60 63 63 63 65 66 68
52 46 48 48 45 40 42 44 42 41 40 38 37 36 34 33 33 33 34 36 36 38 39 41 42 44 46 47 49 50 50 52 55 57 58 61 62 62 65 69 72 71 70
53 50 50 47 44 41 43 45 41 40 41 39 38 38 34 33 33 35 37 38 39 39 40 40 41 43 46 48 49 50 52 55 57 60 61 60 63 66 70 73 75 75 74
45 49 48 47 43 41 45 47 43 41 41 40 37 38 36 35 34 36 38 39 40 39 38 39 41 45 47 48 50 52 55 57 59 60 60 64 68 71 74 74 74 76 78
47 42 44 42 38 40 43 47 44 42 42 40 36 36 36 36 36 37 38 38 37 36 37 40 43 45 47 49 52 55 57 59 59 60 65 68 71 73 71 74 76 78 82
47 42 41 39 37 40 44 46 42 41 41 38 35 37 37 36 36 37 36 34 35 36 39 41 43 46 48 51 54 57 57 58 61 66 68 71 69 71 74 76 80 84 90
46 38 37 38 37 42 45 43 40 41 41 36 35 37 37 36 36 34 33 34 36 38 39 42 44 48 51 54 55 56 59 62 66 68 70 68 71 73 76 81 85 89 97
42 39 37 38 41 40 41 40 40 41 39 33 36 37 35 35 33 32 33 34 37 38 41 43 47 50 52 54 57 59 63 65 68 67 68 70 73 77 81 86 91 98 106
38 37 38 40 39 39 40 40 42 40 34 34 35 34 35 32 31 32 33 35 37 39 42 45 48 52 54 56 59 62 64 66 64 67 69 73 77 82 87 93 100 107 113
34 35 36 37 37 35 35 37 34 33 32 32 33 31 31 30 30 31 33 35 38 41 44 47 51 54 56 59 61 63 63 63 65 68 72 77 82 86 92 100 107 113 106
31 32 31 31 31 31 32 31 29 28 29 29 29 28 27 28 30 31 34 37 40 43 47 50 52 54 58 60 62 61 62 65 68 72 77 81 87 93 100 105 109 96 82
28 29 30 30 29 28 25 24 25 25 25 25 24 24 26 28 30 32 35 38 42 46 48 51 54 56 59 59 59 61 64 68 73 77 81 87 92 100 106 108 94 75 65
30 26 26 25 25 24 23 22 21 21 21 21 21 23 26 28 31 34 38 42 44 47 49 52 54 57 57 58 60 63 67 71 75 81 87 93 100 106 105 93 74 58 46
21 19 18 18 17 17 17 17 17 17 17 19 22 24 27 30 33 37 40 43 45 47 49 53 54 54 56 58 62 66 69 74 80 86 93 100 105 102 86 72 57 42 38
17 15 13 13 13 11 12 14 14 15 18 21 24 26 29 34 36 39 41 43 44 47 51 51 53 54 57 60 65 69 74 80 85 92 99 104 98 81 68 55 42 35 37
9 10 11 11 11 12 12 14 16 18 19 22 26 30 32 35 37 38 40 43 46 48 49 50 53 56 59 63 68 74 79 85 92 98 102 93 75 65 52 41 35 36 32
11 10 10 10 12 13 15 15 15 18 23 26 28 31 33 34 36 38 42 44 46 47 48 51 53 57 62 68 72 78 84 92 98 99 88 73 62 49 39 35 35 33 35
10 10 10 10 11 12 14 16 19 21 24 27 29 30 32 34 37 40 43 45 45 47 49 52 56 61 67 72 77 83 90 96 98 85 70 58 46 36 34 33 33 31 31
9 9 10 13 14 13 13 16 20 23 25 27 28 30 34 37 38 41 43 44 46 47 51 56 61 66 71 76 82 91 98 100 85 66 53 40 35 34 33 33 33 33 33
10 11 11 10 10 13 17 20 24 25 25 27 31 34 35 38 40 41 43 44 46 51 56 61 66 71 76 82 90 97 97 80 64 50 35 31 30 29 31 31 32 33 32

GFSMW_500_spd_030.txt.gz
Wind_Speed
49 47 41 38 39 40 41 40 43 42 42 39 36 34 35 38 36 36 37 35 37 38 37 35 35 34 34 35 36 37 37 39 39 40 41 45 45 44 47 49 48 47 48
54 52 49 42 40 40 42 38 39 44 44 41 38 35 37 37 37 36 37 35 36 37 39 37 36 37 37 38 39 40 40 41 41 42 45 47 46 48 50 51 50 50 52
48 52 53 46 41 43 43 41 38 42 46 45 40 37 38 37 37 35 34 35 37 37 38 39 40 41 41 42 42 43 43 43 44 46 48 47 47 49 48 49 51 55 57
50 50 53 52 45 42 44 44 37 41 44 45 42 39 38 36 37 34 34 36 36 35 37 38 40 42 43 44 44 45 45 45 47 49 50 49 52 51 47 47 52 55 57
50 51 50 53 47 45 44 44 38 40 44 43 43 41 38 37 37 37 33 34 37 37 38 39 40 41 43 44 46 46 46 47 50 51 50 51 51 51 53 53 54 57 59
52 50 54 53 51 50 46 43 39 40 43 41 42 42 40 39 36 35 35 36 36 37 38 40 40 41 43 45 46 46 47 49 51 51 52 52 52 54 56 60 61 60 58
53 51 54 55 53 49 47 44 40 40 40 40 41 42 41 40 36 34 36 38 38 38 39 40 41 42 44 44 45 47 49 50 51 52 52 53 55 58 61 63 64 64 65
53 49 48 55 55 51 48 45 43 43 41 40 41 40 42 40 35 36 36 37 37 38 39 41 42 43 44 45 46 48 49 51 51 51 53 56 59 62 63 63 65 68 70
53 50 48 50 55 53 49 43 45 45 42 41 42 40 42 41 36 36 36 38 39 40 40 41 42 43 44 45 46 48 51 51 52 54 57 60 62 61 63 67 70 72 72
50 51 48 47 50 51 50 44 43 44 43 42 43 42 43 42 37 37 37 38 40 41 41 41 42 42 42 44 47 49 50 52 54 57 59 60 61 64 68 69 72 71 73
48 50 48 47 48 49 47 45 43 44 44 44 44 42 43 41 38 38 39 40 41 41 41 41 40 40 42 46 47 49 51 54 57 58 59 62 65 67 70 70 71 71 74
47 48 44 42 46 44 47 42 42 45 46 45 43 42 44 40 39 39 40 39 40 41 41 39 39 41 44 46 48 51 53 55 58 60 62 65 67 68 69 70 71 75 79
46 48 44 41 41 40 40 41 43 46 46 45 43 42 41 39 39 39 38 39 40 40 39 39 40 43 45 47 50 53 55 58 60 63 64 66 67 68 69 73 76 80 84
45 46 42 42 38 36 37 40 44 44 45 44 41 40 39 38 39 37 37 39 40 38 38 40 41 44 46 49 51 55 57 60 62 64 65 66 67 69 73 77 81 86 92
40 40 40 41 36 34 37 41 42 42 41 40 39 38 36 35 36 37 38 39 36 37 39 40 42 45 48 51 54 57 59 61 63 64 65 67 69 73 77 83 88 94 99
32 37 38 35 35 36 38 38 39 38 38 38 36 40 34 32 39 38 38 35 35 37 39 41 45 47 50 54 56 59 60 62 62 64 66 69 72 76 82 88 94 102 106
32 34 33 33 34 35 34 33 34 35 34 37 34 31 30 38 35 33 34 34 36 38 40 43 46 50 53 55 57 59 60 61 63 66 68 72 76 83 89 96 102 107 106
29 30 29 29 31 32 30 29 28 29 30 29 28 36 32 30 32 32 32 34 36 39 42 46 48 51 53 55 58 58 60 62 64 68 72 78 84 91 97 102 107 104 86
23 24 25 26 25 23 20 21 21 21 26 34 29 27 29 29 29 30 31 34 37 41 44 48 50 52 54 55 57 59 61 63 67 72 79 83 90 96 103 110 100 77 64
22 20 20 20 21 22 23 24 27 28 25 22 22 24 25 27 28 29 32 36 40 44 46 48 50 52 53 55 58 60 62 66 71 78 83 89 96 103 109 91 72 56 44
27 28 26 26 26 25 24 22 21 20 20 20 22 22 22 25 29 33 36 38 41 43 45 49 49 51 54 56 58 62 66 71 76 81 89 96 104 103 82 67 51 40 38
12 12 15 15 15 14 13 9 8 11 13 16 19 22 26 30 33 34 37 38 40 43 45 47 50 53 54 56 61 66 72 77 81 87 95 102 97 76 62 45 39 40 38
8 9 8 7 7 6 6 9 13 15 18 20 24 27 29 32 33 33 35 38 41 44 46 48 50 52 56 61 66 71 76 81 85 93 100 90 70 56 40 38 37 37 38
8 6 5 5 5 6 8 11 13 17 20 23 25 28 29 29 30 34 37 40 43 46 47 48 50 55 60 65 70 74 78 83 90 97 83 65 51 36 36 36 38 37 37
5 4 5 6 7 8 10 12 14 17 20 24 25 26 27 31 34 35 39 42 44 44 46 50 54 58 64 68 72 77 83 90 95 80 62 46 34 34 36 37 38 35 32
2 3 5 6 7 8 11 14 16 20 23 24 25 28 30 32 35 38 39 40 41 45 49 52 58 63 68 72 76 82 90 93 78 60 43 30 30 32 34 34 34 33 32

GFSMW_500_spd_033.txt.gz
Wind_Speed
40 42 41 48 45 42 40 41 40 42 44 45 45 44 41 39 36 37 37 38 37 39 39 39 40 41 40 40 39 39 39 39 40 41 42 42 43 43 44 45 46 47 48
42 43 42 42 51 46 43 43 43 42 44 44 46 49 45 41 38 37 38 38 38 39 37 38 38 39 40 42 42 42 42 42 43 44 44 45 45 46 48 48 50 51 50
44 45 45 44 45 51 46 43 45 43 43 43 45 48 47 41 41 40 39 39 40 40 37 37 38 39 40 42 44 46 45 45 46 47 47 47 48 48 48 49 52 52 51
49 47 47 47 47 49 53 49 46 47 44 42 43 45 46 46 42 42 42 40 40 40 37 37 37 38 40 42 44 45 45 45 46 47 49 49 50 51 50 51 52 50 52
56 55 51 51 49 49 52 54 48 49 49 42 40 45 45 42 41 40 42 40 40 40 36 37 39 41 42 44 43 44 45 45 46 48 49 49 51 52 54 52 51 54 56
63 62 59 54 53 51 51 53 54 49 48 44 42 45 42 40 39 42 44 39 38 40 40 40 40 43 45 45 44 45 45 46 46 48 50 50 51 53 55 55 54 56 58
63 62 61 57 56 53 51 51 53 50 49 45 43 44 39 41 42 42 44 39 39 39 40 42 44 45 45 45 45 46 46 47 48 49 49 50 51 52 55 58 61 62 61
61 62 61 59 54 55 52 53 52 51 48 45 43 44 40 42 43 41 41 40 40 38 39 40 42 44 45 46 45 46 47 47 48 48 50 51 52 54 58 61 64 64 64
43 56 60 59 56 53 52 52 52 50 47 45 45 43 42 42 43 43 41 41 39 39 40 41 43 44 45 45 45 46 46 47 48 49 50 51 54 57 61 64 65 68 69
44 40 54 58 53 52 51 52 53 51 48 47 47 45 44 44 43 43 41 40 39 41 42 42 43 44 45 46 46 46 46 48 49 50 52 54 57 61 63 65 67 68 71
42 40 36 56 53 51 51 50 52 51 47 46 47 47 46 45 43 43 42 41 40 41 43 43 44 44 46 46 45 45 47 49 50 52 54 57 60 63 65 66 68 69 71
39 39 36 53 53 51 50 47 47 46 45 45 46 47 46 45 42 43 41 41 40 42 43 44 43 45 46 44 45 47 48 49 51 54 58 61 63 65 66 68 69 69 72
39 41 41 53 51 50 48 43 43 41 43 44 45 44 45 44 43 43 41 40 41 42 42 42 45 47 44 44 46 47 49 51 54 58 61 62 64 66 67 69 70 73 74
37 37 49 48 46 46 43 41 39 40 41 43 44 44 43 40 41 40 39 39 43 41 40 44 47 45 43 45 47 49 51 54 57 60 62 64 66 66 68 70 72 76 80
36 28 45 43 43 39 37 40 37 39 42 42 44 41 39 38 38 38 38 40 41 42 41 45 44 43 44 46 48 51 54 56 59 61 64 65 66 67 69 72 77 82 86
26 21 38 41 40 31 33 35 36 38 40 41 38 37 35 35 37 38 38 40 40 39 42 40 42 43 45 47 50 54 55 58 60 62 63 65 66 69 73 77 82 87 95
12 15 35 35 33 29 30 31 33 34 34 35 32 30 32 34 36 32 32 42 42 42 40 42 42 43 46 50 52 54 56 59 60 62 63 65 69 73 78 83 87 94 102
16 28 30 29 28 27 28 30 30 30 29 27 31 36 34 33 44 40 41 40 36 37 38 40 42 46 48 51 52 55 58 58 60 61 65 69 74 78 82 87 93 99 102
25 26 26 25 22 22 21 22 21 20 22 23 26 30 32 37 42 39 31 30 34 37 38 42 45 46 49 51 54 56 57 58 59 64 69 74 77 81 87 94 99 99 85
21 21 19 17 17 16 16 17 17 15 20 30 32 31 37 40 33 31 32 32 33 38 42 42 45 47 51 52 54 55 56 58 63 67 74 77 81 88 94 98 97 80 58
17 16 16 17 16 16 15 27 29 23 35 30 29 32 37 29 24 27 29 34 36 38 41 43 46 49 50 51 53 55 58 62 67 72 76 81 88 93 98 93 75 54 44
17 21 22 22 22 23 27 28 28 29 32 27 19 16 20 23 26 29 31 35 37 39 42 44 46 48 48 50 53 58 62 67 70 75 81 87 93 97 90 70 50 44 44
13 11 11 11 14 16 15 13 12 11 11 13 16 19 22 25 27 31 33 35 37 40 42 44 45 46 48 52 56 62 66 69 75 83 89 94 95 86 64 45 40 41 42
8 8 8 7 8 10 11 10 10 9 11 15 18 20 23 27 29 30 33 36 38 41 42 42 44 48 52 57 61 66 72 76 82 88 93 91 78 60 41 36 37 39 41
2 2 5 4 2 2 5 7 10 12 13 16 19 23 25 27 29 32 34 37 39 39 39 43 47 51 56 60 65 72 76 81 89 92 85 70 52 36 32 32 35 38 39
3 1 0 2 3 5 6 8 11 13 17 20 22 24 26 29 31 34 35 36 35 38 42 46 51 56 61 64 73 77 83 91 91 79 62 45 31 27 28 30 34 35 38

GFSMW_500_spd_036.txt.gz
Wind_Speed
34 32 32 32 33 35 40 46 43 39 38 38 37 37 39 40 40 39 35 33 36 36 36 36 37 37 37 40 41 40 41 42 41 42 41 41 41 42 42 42 43 43 43
36 36 36 36 36 35 38 44 48 46 41 42 39 40 39 39 37 39 38 37 35 37 38 38 36 39 38 39 40 40 40 42 43 45 45 46 45 46 46 45 45 47 47
41 42 42 41 41 41 41 42 47 49 46 43 44 42 37 37 39 39 41 39 38 39 39 39 37 37 36 40 41 38 40 42 44 45 46 47 47 46 45 46 46 47 48
51 51 50 47 46 45 44 44 44 50 52 46 47 43 38 38 40 41 40 39 41 42 40 38 39 38 36 41 40 38 41 43 45 47 48 48 48 47 47 47 47 48 49
59 59 58 57 55 52 48 46 45 46 52 53 48 45 42 39 41 44 41 40 42 44 39 37 39 40 41 43 38 38 43 46 46 47 47 48 49 49 49 47 48 49 51
65 66 65 64 63 59 55 52 50 46 48 54 52 48 45 42 42 43 43 42 42 43 39 38 39 40 41 42 44 44 45 46 46 48 49 50 50 50 51 50 49 49 49
60 57 58 63 64 63 61 57 55 51 47 49 51 48 48 43 43 43 45 43 42 42 41 41 39 42 36 41 43 44 44 46 47 49 49 50 50 50 50 53 53 52 51
59 61 60 52 56 62 62 60 60 58 49 49 48 50 51 45 43 43 46 44 42 41 41 40 38 41 41 42 44 45 46 46 48 49 50 50 51 51 52 53 55 55 57
64 63 55 58 52 56 60 59 58 59 51 51 48 51 51 45 43 44 46 45 44 43 43 40 39 40 41 43 44 45 48 49 49 50 49 50 52 52 53 55 58 62 64
62 48 51 53 51 48 54 56 56 56 53 50 51 49 47 45 45 43 46 45 44 43 42 39 39 41 42 43 45 47 49 50 51 49 49 51 52 52 55 58 61 64 66
49 42 40 48 49 45 43 52 52 55 52 51 50 47 44 45 44 44 45 45 44 43 40 38 38 41 42 44 46 47 50 52 51 50 51 51 52 55 58 61 64 65 67
36 33 37 44 46 44 41 46 48 53 52 46 47 45 46 46 45 44 44 44 45 43 40 38 40 41 42 45 46 47 51 50 51 51 51 53 56 59 61 63 64 65 67
42 37 35 41 40 35 34 47 50 50 47 41 45 43 45 44 44 44 43 44 43 41 39 38 40 43 45 44 46 50 48 49 51 51 53 57 59 61 62 64 65 66 67
38 31 35 37 32 31 33 39 46 44 39 39 41 43 42 41 42 41 42 42 39 38 39 38 43 48 47 43 47 47 46 50 52 55 57 59 61 62 63 65 65 67 70
23 24 25 30 35 34 34 37 39 38 37 37 40 40 39 39 39 38 37 35 35 36 40 39 46 42 45 45 46 48 48 51 55 57 59 60 62 63 63 64 66 70 75
14 10 13 20 22 29 27 33 32 35 35 36 34 32 35 37 37 34 31 32 32 38 42 44 44 47 49 43 43 47 51 54 56 57 59 60 62 62 64 67 71 76 79
5 7 13 16 14 17 27 29 32 33 31 31 31 33 25 37 30 28 28 28 35 42 41 41 49 41 41 43 45 50 53 53 56 58 59 59 60 64 67 70 74 82 89
9 12 13 14 19 25 25 27 29 30 27 25 25 27 26 28 25 37 36 37 38 42 45 46 37 38 41 45 49 49 51 54 56 57 57 60 63 67 70 73 82 88 95
21 20 19 21 22 20 21 22 21 18 18 19 18 23 18 32 36 37 29 37 40 47 39 33 35 41 44 45 47 49 52 53 53 56 60 63 67 72 76 81 88 95 98
20 21 22 20 17 16 16 16 16 15 17 22 22 23 28 36 29 28 33 35 32 31 33 37 39 41 44 45 48 50 50 51 54 59 63 68 73 79 82 89 96 97 94
17 17 15 14 14 13 14 13 14 17 18 21 26 33 33 27 32 34 26 29 30 32 35 38 39 42 45 48 48 48 51 54 58 63 67 73 81 85 92 99 97 90 64
18 19 21 15 16 11 11 20 17 22 20 26 28 28 23 16 19 23 28 30 32 35 36 39 42 43 45 44 46 50 54 59 63 67 72 82 87 93 99 96 81 55 36
5 7 17 16 13 21 19 8 11 17 17 17 22 17 19 18 22 26 29 32 33 35 39 40 42 42 43 46 50 55 58 65 69 73 83 89 95 98 90 69 47 31 33
8 6 6 5 3 5 9 11 6 5 7 12 15 16 17 21 25 28 30 31 34 37 39 38 39 43 46 50 55 58 65 72 75 83 90 95 95 79 58 40 27 28 31
4 5 7 7 6 6 6 7 8 9 10 11 13 17 21 24 26 28 30 33 35 35 35 38 42 46 51 56 60 65 72 76 83 90 96 87 67 53 36 24 25 27 27
5 5 4 4 3 3 4 4 5 8 11 14 17 20 22 25 28 30 32 33 32 34 38 42 46 52 56 61 66 71 78 86 93 95 80 60 49 32 20 20 23 23 29

GFSMW_500_spd_039.txt.gz
Wind_Speed
36 35 33 33 33 34 35 35 36 36 39 38 38 39 36 37 33 31 32 29 31 36 34 33 33 33 33 34 36 36 40 38 38 37 37 39 40 41 43 44 45 46 46
41 40 38 37 37 37 37 37 35 35 37 39 40 44 41 40 36 34 32 30 31 36 37 35 34 35 35 35 34 35 36 38 42 40 39 39 40 42 44 45 46 46 46
44 44 43 42 42 41 40 39 40 40 38 39 42 46 45 44 39 35 33 35 36 35 36 34 36 36 37 37 34 36 36 38 39 36 38 40 42 44 45 46 47 47 47
45 46 46 45 45 45 46 46 44 44 42 41 41 45 48 45 42 40 38 36 36 35 35 35 37 37 39 37 34 36 39 40 38 39 39 43 44 45 45 46 47 48 48
47 49 50 52 53 54 53 52 50 48 47 44 41 42 48 50 44 43 40 38 39 38 38 38 37 38 38 38 37 37 38 39 40 41 42 44 44 45 46 47 47 48 50
56 57 58 59 61 62 62 61 57 55 53 50 44 44 42 48 49 48 44 42 42 40 39 39 39 39 40 40 38 39 40 37 39 40 42 44 45 47 49 49 49 48 46
57 57 55 55 57 59 59 61 64 61 58 57 52 48 44 42 50 53 49 45 46 43 40 40 40 40 41 41 39 39 39 40 41 43 45 46 48 50 52 53 52 49 48
49 52 53 53 52 51 53 55 56 61 63 61 59 54 49 43 48 54 51 47 47 46 42 42 41 42 43 41 40 40 40 41 42 43 45 48 50 52 54 55 54 53 53
50 50 52 53 54 54 56 55 56 57 64 64 61 57 50 49 50 49 50 49 48 48 45 42 42 42 44 43 41 41 42 42 44 45 48 49 52 54 55 56 56 57 56
50 53 51 49 49 53 54 61 56 57 56 63 62 57 54 54 51 48 47 49 48 47 45 43 42 42 43 43 42 41 42 44 46 48 49 52 54 54 54 55 57 57 60
51 50 48 45 44 40 45 54 56 55 53 56 59 57 55 53 51 47 46 48 47 45 44 43 41 41 42 42 42 41 43 46 48 49 52 56 55 54 55 56 59 61 64
45 46 41 40 35 31 40 49 54 52 44 44 55 51 47 49 49 47 46 46 43 43 43 42 42 42 41 41 39 42 43 52 51 50 55 56 54 55 56 60 62 63 64
48 44 35 32 32 40 44 49 49 41 35 41 49 49 45 47 47 47 44 43 42 42 42 42 44 39 38 38 40 44 49 48 52 52 55 53 54 58 60 62 62 63 64
44 39 34 28 29 37 41 38 40 28 36 39 42 43 41 42 44 43 39 39 40 41 41 40 40 46 34 34 44 49 49 52 51 49 55 56 58 60 59 60 62 62 62
31 32 24 20 28 28 25 27 27 28 33 35 30 36 38 40 40 37 34 36 39 37 39 36 31 37 40 41 51 53 57 45 50 53 54 57 58 59 61 61 61 61 65
10 13 11 13 11 11 14 18 17 18 24 29 28 32 34 35 34 31 33 34 33 33 36 40 43 36 40 48 50 53 47 53 50 52 55 56 59 60 60 61 63 66 71
8 5 5 9 9 7 9 11 16 21 21 25 29 31 29 27 27 30 31 27 34 32 29 36 37 46 44 45 48 51 46 50 53 53 55 58 59 59 60 63 67 71 76
2 4 9 12 11 12 16 19 22 24 24 25 25 24 24 23 20 29 32 30 35 29 33 35 44 45 47 41 42 46 48 50 52 54 56 56 57 60 64 67 71 75 83
16 15 17 17 18 18 15 15 19 19 19 19 17 14 17 19 23 26 27 33 37 26 27 38 42 36 38 43 45 46 48 52 53 54 55 57 61 64 68 74 78 84 92
16 17 16 13 12 13 14 15 17 17 17 10 15 20 22 19 27 26 29 24 27 29 34 33 37 38 41 43 45 48 50 51 52 55 58 63 66 69 77 81 86 92 99
9 9 10 12 13 13 14 16 18 16 14 19 14 9 13 21 30 27 33 26 36 27 31 34 35 37 40 44 46 48 48 50 54 59 63 67 72 77 82 89 94 99 90
9 6 8 10 11 15 14 14 21 16 11 9 8 17 16 14 28 29 21 24 27 29 33 34 36 40 42 43 43 46 51 55 59 64 69 73 77 82 90 96 97 75 55
9 11 9 8 9 5 3 14 12 11 18 14 13 11 12 15 16 17 21 25 28 29 32 35 37 38 39 42 46 50 56 60 65 69 74 80 85 92 96 93 65 47 30
10 10 10 10 10 12 13 13 10 7 8 10 9 10 12 15 19 21 24 27 29 32 33 34 36 38 42 46 51 55 61 66 71 75 83 91 96 97 82 58 39 24 24
7 8 8 7 7 7 6 5 3 2 4 7 9 12 16 19 22 24 27 28 30 32 33 35 38 42 47 51 54 60 65 71 77 85 94 99 89 72 50 31 18 20 21
5 5 5 4 4 4 4 3 3 4 7 10 13 16 19 21 23 25 28 30 32 32 34 38 43 47 50 54 59 65 73 80 87 97 94 78 58 39 21 15 17 16 21

GFSMW_500_spd_042.txt.gz
Wind_Speed
38 38 37 35 37 40 40 39 39 36 35 34 35 36 37 38 35 34 32 30 29 32 34 34 35 33 33 32 34 34 33 34 34 35 33 32 38 41 38 37 38 40 41
40 41 42 41 41 41 42 43 42 40 36 36 36 36 41 45 41 39 34 31 30 33 35 35 33 32 34 35 36 36 35 36 36 36 36 37 39 36 36 37 40 42 42
43 44 45 44 44 42 43 44 45 44 41 40 39 38 38 40 40 42 40 34 33 38 38 36 34 32 34 35 35 36 37 36 36 36 37 37 34 37 39 40 41 43 43
44 44 45 46 45 46 46 46 45 46 46 46 44 40 40 40 41 46 47 43 39 38 41 40 36 34 34 35 35 36 37 35 35 37 39 40 38 37 38 40 41 42 43
44 45 46 47 49 50 49 49 49 49 49 51 51 48 45 42 45 44 48 48 44 41 41 42 39 37 37 37 37 37 37 36 37 39 39 36 38 40 42 42 42 44 46
44 46 48 48 50 52 54 55 55 55 56 57 56 55 52 45 44 45 46 49 50 47 44 43 42 40 41 40 40 38 38 39 38 39 41 41 42 43 44 44 45 46 48
49 52 54 56 59 61 63 64 65 65 65 64 62 61 58 55 49 49 46 49 52 50 48 46 45 44 43 43 42 40 40 39 39 41 42 43 44 44 46 47 48 48 50
52 54 57 59 59 57 59 60 63 66 68 67 67 68 64 62 60 54 51 49 52 51 51 50 48 48 46 45 45 41 41 42 42 43 45 45 46 46 48 49 52 52 53
48 50 52 55 57 58 59 60 61 62 62 61 60 60 66 68 65 60 54 51 53 52 51 51 50 48 48 48 45 42 43 44 45 46 46 45 47 48 51 54 55 57 57
49 51 51 51 53 57 59 58 57 58 58 59 59 57 57 65 66 62 55 55 53 50 49 51 52 49 48 48 44 43 43 40 47 46 45 45 47 53 55 57 58 62 64
45 49 52 55 58 58 57 54 53 52 52 56 52 52 56 56 62 63 60 58 55 51 49 49 50 48 47 45 44 42 44 41 47 46 45 49 53 50 55 61 64 65 65
50 55 57 53 48 50 49 50 47 47 48 48 50 56 58 58 57 62 61 59 52 51 49 47 46 45 44 44 43 44 41 48 47 45 49 48 53 58 61 63 64 66 65
49 46 49 39 42 44 44 38 41 43 38 43 48 58 61 55 56 57 57 54 52 50 47 44 44 41 42 43 49 42 49 40 44 47 53 61 55 61 60 62 66 64 66
46 38 36 30 36 31 32 36 32 32 29 33 42 40 49 46 52 50 51 50 48 45 43 41 41 41 39 42 37 47 49 51 45 56 60 61 61 62 64 63 63 65 66
41 28 25 15 20 22 26 25 24 21 22 18 22 28 39 36 43 42 43 44 43 40 38 39 39 42 41 42 41 46 55 50 57 57 60 61 58 60 61 63 64 65 66
35 26 13 11 11 10 10 14 13 11 16 23 19 28 30 30 37 36 37 36 35 35 37 38 35 43 32 39 37 39 49 55 59 62 58 58 59 60 61 64 65 65 67
32 18 11 5 1 4 7 12 9 14 17 23 22 25 29 29 30 30 31 31 32 35 34 34 26 28 42 43 46 48 54 55 58 53 57 58 58 60 61 62 64 68 73
26 20 9 4 1 3 7 10 11 14 18 14 16 21 27 26 24 25 28 29 30 34 33 34 33 39 43 42 50 57 54 50 51 54 55 56 57 59 60 64 68 72 77
21 22 20 11 3 3 7 9 14 16 15 22 24 20 19 19 17 18 23 24 30 31 31 31 34 33 35 44 50 50 49 49 50 52 55 55 58 61 64 69 73 77 82
14 15 16 13 10 9 8 8 8 9 14 15 15 16 19 13 9 19 21 13 23 24 28 30 34 37 33 39 42 46 48 48 51 52 53 57 61 66 71 76 81 85 93
16 13 11 11 11 8 9 11 13 17 20 15 12 4 8 9 8 20 24 24 26 26 30 31 30 33 37 40 41 43 44 45 48 52 56 62 67 72 78 84 90 97 102
13 9 11 10 8 9 8 12 9 6 3 7 15 7 9 5 8 14 18 22 26 27 27 29 32 36 38 39 41 42 44 48 52 56 61 67 72 80 87 94 100 99 83
13 8 11 9 5 5 3 5 4 4 5 6 2 5 4 10 10 10 13 17 20 26 28 31 34 35 36 37 40 44 49 54 57 62 68 74 80 87 96 100 90 68 47
8 8 8 10 9 7 6 8 3 5 6 10 10 7 6 8 10 14 17 21 24 27 29 31 32 33 36 40 44 49 53 57 63 69 74 80 88 95 92 78 54 31 18
7 7 6 5 5 6 5 3 2 1 1 3 6 7 11 14 16 19 22 25 27 28 29 31 32 36 40 44 49 53 57 63 68 73 79 88 94 84 64 36 15 16 17
5 10 5 3 2 2 1 1 2 3 5 7 10 12 15 16 19 21 23 25 27 29 29 32 36 40 45 49 54 59 64 68 73 80 86 90 70 38 17 16 15 15 19

GFSMW_500_spd_045.txt.gz
Wind_Speed
41 42 43 42 38 40 42 43 45 43 42 41 41 41 38 37 36 34 35 34 33 33 36 36 35 32 33 34 34 36 37 36 36 37 37 37 38 38 36 34 37 36 34
43 43 44 45 43 41 41 44 45 46 45 43 41 42 41 41 41 39 37 35 35 35 40 40 38 35 33 32 34 36 36 36 36 36 37 37 36 36 36 36 36 35 37
42 43 44 46 46 44 42 43 46 48 48 48 46 44 44 43 43 41 38 39 38 40 44 45 42 39 36 34 35 37 36 34 35 35 35 35 36 37 37 37 37 36 37
43 41 43 45 47 48 47 46 46 47 50 52 52 48 46 44 42 42 42 39 38 41 46 46 44 43 39 40 38 36 36 36 36 37 37 36 36 38 37 37 39 40 42
41 41 42 44 46 46 47 48 48 48 49 51 53 53 52 47 45 43 42 42 43 43 43 49 50 48 46 43 40 39 38 39 39 38 39 38 39 38 38 39 40 43 43
37 39 42 44 46 49 51 51 52 52 53 53 54 55 56 56 52 50 48 47 47 48 46 47 50 50 48 47 45 43 41 41 42 42 40 41 40 41 41 43 44 44 45
40 43 46 48 50 52 54 56 57 57 58 58 58 58 60 61 62 59 56 54 50 49 51 48 48 50 51 50 47 46 47 44 45 44 45 41 43 42 46 45 45 46 47
42 46 48 51 54 58 60 61 63 64 66 67 66 65 64 64 65 65 65 60 57 54 51 52 51 50 51 50 50 50 49 47 47 47 47 45 45 44 46 47 47 48 50
41 44 48 51 54 58 60 62 65 67 69 70 71 71 72 72 72 72 71 69 65 60 55 55 55 52 52 51 52 52 51 49 51 50 47 45 49 45 48 48 49 51 53
36 42 47 51 54 56 59 62 64 65 67 67 68 68 67 67 68 69 71 74 71 65 59 59 58 54 52 52 54 53 52 51 51 49 47 48 50 48 50 50 51 51 57
39 43 47 51 56 60 62 61 62 62 63 66 67 65 64 65 66 65 63 63 67 69 63 60 58 56 54 53 52 51 51 50 50 50 46 49 48 50 51 56 57 58 64
39 43 48 52 56 57 55 60 61 61 62 64 64 61 62 64 67 66 66 64 60 58 63 62 56 55 54 53 51 49 48 49 49 50 44 47 54 53 56 55 62 67 71
39 43 49 56 57 49 42 43 46 49 51 55 54 54 55 56 59 62 63 65 61 56 51 57 59 55 54 52 47 46 47 47 51 47 47 49 53 55 54 59 65 70 73
37 41 51 44 38 33 34 34 38 39 41 40 41 41 42 46 51 56 60 58 60 52 53 53 53 51 49 47 45 47 48 47 43 46 48 56 59 60 60 69 72 69 66
34 40 37 26 24 15 22 19 19 21 22 25 29 30 36 41 47 51 56 61 59 57 53 50 46 43 45 44 44 44 47 43 43 44 55 54 52 60 63 65 65 66 66
31 36 29 19 22 16 14 14 14 15 18 22 21 20 23 24 31 32 30 42 51 47 46 41 39 39 39 42 39 38 45 45 45 53 52 53 57 66 66 63 65 68 66
27 32 30 19 16 16 13 11 4 4 6 11 12 9 13 13 17 21 24 30 34 35 38 37 33 35 40 35 38 38 46 55 48 47 51 59 63 61 60 63 63 64 68
22 28 25 23 18 13 11 9 10 7 9 10 12 11 16 13 11 16 25 29 31 30 29 29 31 35 30 34 37 39 46 53 51 56 57 56 58 61 61 61 64 67 72
19 20 24 19 19 16 13 9 3 3 4 11 10 16 14 12 10 12 16 19 21 21 20 29 22 31 30 35 37 43 46 47 48 52 54 55 56 58 61 63 66 70 76
18 16 15 16 18 14 10 7 4 2 7 8 7 6 9 10 9 7 8 13 15 26 24 25 27 28 34 35 34 37 39 42 46 50 52 53 56 59 62 67 71 76 81
14 11 14 12 14 13 10 9 7 10 12 12 12 7 12 13 5 7 4 7 11 16 21 16 19 25 28 32 36 37 40 43 46 48 51 55 58 62 68 73 77 81 88
12 13 12 10 9 10 11 14 9 6 8 8 10 5 10 8 2 4 3 7 11 13 16 20 23 28 31 34 36 39 41 43 45 50 54 58 62 68 73 77 82 88 92
14 13 14 12 9 4 4 6 8 8 9 10 10 5 3 2 4 3 5 8 12 16 19 22 26 31 34 35 36 38 42 46 50 55 60 64 68 73 78 83 88 85 51
10 11 10 9 11 9 5 7 7 9 8 8 6 7 4 4 6 9 11 14 16 20 23 26 29 31 32 34 38 42 47 52 57 62 67 70 74 80 85 88 68 33 26
8 10 9 9 8 7 7 7 7 8 8 6 5 8 9 10 12 14 16 19 22 23 25 27 28 30 34 39 43 48 53 59 64 68 73 77 82 88 82 47 24 25 22
8 10 8 5 5 7 8 9 10 10 10 11 12 13 15 16 17 19 21 22 24 26 26 27 30 34 39 43 49 54 60 65 70 75 80 85 88 68 34 23 20 22 24

GFSMW_500_spd_048.txt.gz
Wind_Speed
42 43 44 45 44 42 41 42 44 44 44 44 45 44 42 43 42 40 40 40 38 35 34 35 36 36 33 33 33 33 33 32 34 33 35 36 36 35 34 33 33 33 33
42 43 44 46 46 44 44 43 43 46 48 46 46 45 44 44 45 44 44 42 39 38 38 40 38 39 38 36 34 35 36 35 36 35 36 34 34 34 32 33 34 35 34
42 43 44 46 47 46 45 45 45 46 49 50 47 47 45 44 46 46 44 42 42 41 43 45 43 42 40 40 38 41 41 37 38 39 36 34 34 35 35 35 35 36 35
41 42 44 45 46 47 47 46 47 47 47 49 51 48 46 46 45 47 48 48 47 46 45 45 43 42 42 43 43 43 39 37 39 39 36 35 36 37 37 37 37 37 38
42 42 42 44 46 47 50 49 49 50 50 51 53 53 53 49 48 48 50 51 50 46 44 44 43 43 42 42 45 46 47 44 41 41 40 38 38 40 41 40 41 38 40
40 41 42 44 45 47 47 48 49 50 52 52 53 55 58 59 57 52 49 48 49 48 46 45 44 46 47 45 45 47 49 50 47 47 46 46 44 42 44 44 45 43 44
37 38 39 41 42 44 46 48 50 52 54 56 57 57 58 60 60 60 59 56 53 52 49 48 48 47 49 48 48 48 50 49 51 50 49 49 46 46 46 46 46 46 45
34 36 38 40 43 46 49 52 55 58 60 62 63 63 63 63 63 63 64 63 60 58 56 55 53 52 53 52 51 49 49 50 51 50 51 52 49 50 49 50 51 47 48
34 36 39 41 44 46 50 54 57 60 63 66 68 70 70 70 69 69 67 65 66 64 62 61 60 54 53 55 53 54 50 52 52 54 53 53 51 50 48 50 53 46 51
33 35 36 37 42 46 50 55 58 62 64 66 68 71 72 74 74 74 73 72 71 70 70 68 64 61 58 63 60 58 56 54 53 53 53 52 52 52 51 51 54 52 53
28 31 35 40 46 49 53 56 60 63 65 67 70 70 70 73 73 74 73 72 72 73 74 73 70 64 63 63 63 64 60 55 54 52 51 52 52 51 51 51 55 54 55
31 31 37 39 45 47 52 54 58 61 64 67 64 66 68 66 69 70 71 71 69 68 67 64 63 62 59 65 66 62 59 55 53 51 51 51 51 50 46 50 56 57 59
28 33 36 43 44 49 47 48 53 48 48 52 52 52 51 55 58 64 65 66 66 64 64 63 61 60 57 54 56 59 57 52 51 51 52 50 51 47 47 60 56 54 60
27 29 36 38 41 39 37 41 41 33 33 35 39 35 37 40 44 49 56 60 62 62 62 61 61 59 59 52 51 51 53 51 47 50 50 50 53 49 54 54 57 61 62
23 25 30 35 37 32 31 32 32 29 25 24 24 25 29 32 33 34 41 45 50 52 56 56 59 60 54 47 44 46 45 49 47 47 48 53 51 54 56 58 60 63 64
21 23 27 30 30 26 24 22 26 23 20 17 16 17 19 22 26 27 31 35 38 41 44 45 48 43 43 47 40 43 45 46 44 47 43 53 45 49 52 53 56 63 61
20 22 24 26 26 28 24 23 23 20 17 12 11 13 13 15 15 16 20 23 23 27 31 39 45 44 30 40 42 42 44 39 45 47 45 50 54 59 59 61 61 60 61
14 22 21 23 24 24 24 19 18 15 12 9 5 8 8 5 8 13 9 10 19 19 22 19 28 34 36 37 39 36 37 41 46 51 50 52 54 54 56 57 57 60 64
16 17 17 21 22 19 19 19 11 14 11 8 10 7 7 4 2 3 1 5 7 10 16 22 24 28 36 36 40 36 40 44 40 43 46 49 53 55 56 56 58 61 65
14 11 17 17 19 15 13 14 15 14 8 9 10 8 8 9 6 6 2 7 3 8 14 12 16 22 25 26 28 30 35 39 41 43 46 49 50 52 55 58 61 65 69
13 11 14 18 13 7 13 13 13 16 11 10 12 10 6 8 12 9 4 5 5 6 9 18 19 17 21 23 26 30 34 38 42 45 48 50 53 57 61 64 67 71 74
14 11 12 12 11 6 10 10 13 15 13 7 12 12 7 5 9 6 6 2 3 6 8 11 14 19 22 25 28 32 36 39 43 45 49 53 57 62 66 70 73 77 80
14 12 11 12 12 10 5 10 12 13 12 10 11 11 9 8 8 7 6 5 7 10 13 15 19 22 25 28 31 32 35 39 43 48 54 59 64 69 74 77 81 83 81
12 12 11 9 9 8 8 10 11 12 12 12 12 11 10 10 9 9 9 11 13 15 17 20 23 24 25 27 31 35 39 43 49 56 63 70 75 79 85 87 78 60 32
11 11 13 11 9 8 8 9 10 11 12 12 11 10 10 10 11 13 15 16 17 19 21 22 22 23 26 29 34 38 44 50 56 64 72 79 84 81 66 50 30 15 17
12 12 12 11 8 8 8 9 10 12 13 14 15 15 15 16 16 18 18 18 20 22 21 20 23 25 29 33 38 44 49 55 63 68 69 70 61 44 25 11 13 15 17

GFSMW_500_spd_051.txt.gz
Wind_Speed
43 42 42 41 40 40 41 41 41 41 43 45 47 47 46 46 46 47 46 46 44 41 41 40 39 37 37 38 36 34 32 32 34 33 34 33 33 32 32 31 31 30 29
45 43 43 44 44 43 43 43 43 44 43 45 47 47 47 47 48 48 47 48 46 43 44 44 41 42 41 41 39 38 35 35 35 35 40 38 37 35 35 32 32 32 31
43 44 43 44 45 45 44 44 44 46 48 48 48 49 47 46 47 47 47 48 49 48 47 47 45 44 44 44 42 42 41 38 38 38 37 38 38 39 37 35 34 34 35
41 42 42 42 43 44 44 45 45 45 46 49 51 51 51 50 47 47 47 50 51 51 49 50 48 47 47 46 43 43 39 40 39 40 39 41 38 36 38 38 37 36 37
40 40 41 42 42 43 44 44 45 46 48 48 48 50 51 51 51 50 50 51 52 52 52 52 51 51 50 48 45 43 40 40 40 40 42 42 46 41 40 44 41 41 40
37 38 38 39 40 41 41 42 43 44 44 45 47 49 51 53 53 53 53 54 56 57 57 57 56 55 53 50 47 46 44 43 42 43 44 45 47 47 46 47 47 45 44
35 36 37 37 38 39 40 41 41 43 44 46 48 50 51 53 53 55 57 57 57 58 59 60 57 57 55 53 51 51 49 47 45 46 47 49 47 46 49 48 49 50 49
33 34 35 35 37 38 39 41 43 46 48 51 54 56 58 59 60 61 61 60 60 60 60 62 62 58 58 57 55 55 54 52 50 50 51 50 50 48 49 49 51 52 52
31 32 33 34 36 38 41 44 46 47 50 54 57 59 62 64 67 69 69 68 67 65 64 61 60 62 60 59 57 55 55 58 57 53 58 52 52 51 51 51 52 55 49
30 32 34 36 38 37 37 40 45 50 54 57 60 63 66 69 71 71 71 72 73 73 70 68 66 63 61 60 59 57 57 51 50 47 52 49 51 52 51 51 50 54 53
30 32 32 31 31 34 37 43 46 49 51 55 57 58 62 68 73 74 73 72 71 71 72 73 72 70 67 63 62 62 60 61 61 56 66 63 60 56 53 52 52 54 53
23 25 27 30 32 37 39 42 44 46 47 48 50 57 61 60 70 70 70 70 70 68 68 69 67 67 66 63 59 56 57 60 63 65 66 63 59 54 54 53 54 56 56
23 24 25 26 28 32 36 39 41 43 44 44 47 50 44 45 49 46 51 62 61 63 62 61 62 63 61 59 56 55 53 52 53 54 55 57 57 55 54 53 58 57 58
19 21 24 22 25 30 32 36 37 35 39 42 41 41 37 38 33 34 38 38 44 51 50 56 57 55 54 53 52 52 51 51 47 49 51 53 54 53 55 51 51 58 61
19 19 19 20 24 27 28 30 28 30 36 37 32 27 25 26 30 22 18 23 27 33 37 43 49 50 50 50 48 47 45 45 46 47 50 47 44 49 59 59 57 56 53
18 19 16 19 23 21 23 23 22 27 29 27 24 19 17 14 11 14 16 19 22 24 24 28 34 38 37 37 42 42 41 39 42 46 38 45 48 57 55 56 62 61 60
20 17 17 21 20 18 19 24 22 23 27 22 20 17 16 14 13 13 16 18 20 21 22 21 19 19 28 23 27 31 33 38 42 46 44 51 56 55 52 59 57 58 61
18 16 15 14 17 17 17 16 20 20 21 20 18 17 18 12 8 10 9 5 6 7 20 10 17 18 22 27 24 32 33 38 38 43 47 50 52 55 52 54 55 58 59
15 15 11 11 14 12 12 14 14 16 15 17 18 15 13 8 7 8 8 5 6 9 10 7 11 12 15 16 27 31 29 34 37 42 46 43 45 48 50 52 54 56 60
12 11 9 11 14 11 12 10 13 13 11 14 13 8 11 16 5 13 5 7 2 5 1 5 8 16 16 20 22 30 32 28 28 33 38 41 44 46 48 51 56 61 67
12 11 11 9 9 9 7 10 10 11 7 14 14 9 9 16 14 12 6 6 9 11 6 1 8 6 15 18 19 21 24 27 30 32 35 39 43 47 53 59 65 71 76
11 11 11 9 8 7 11 6 9 8 7 5 11 12 12 12 12 12 10 8 7 7 7 7 9 11 14 16 19 22 25 28 30 33 38 43 49 54 59 66 72 75 77
12 12 12 12 10 8 6 8 4 6 7 7 9 10 10 10 10 9 8 7 8 9 9 11 12 14 17 18 20 21 24 27 31 37 40 46 52 57 63 65 63 66 62
12 12 11 12 9 8 6 5 4 5 7 8 8 9 9 8 8 8 9 10 11 12 14 16 17 18 18 19 21 24 27 31 36 40 44 53 54 60 58 56 52 40 25
13 14 13 12 10 7 6 4 4 5 7 8 9 10 10 11 11 13 14 14 15 16 19 19 17 18 20 21 24 28 31 34 38 44 47 52 52 52 49 43 28 21 20
13 13 15 14 13 9 7 4 3 4 7 10 12 14 15 16 16 17 17 18 19 20 21 20 19 20 22 25 27 32 35 38 41 48 50 56 50 47 40 29 24 25 26

GFSMW_500_spd_054.txt.gz
Wind_Speed
41 42 39 38 37 38 38 38 39 39 42 44 44 44 44 45 46 46 47 48 48 48 48 47 46 46 45 44 43 42 38 38 37 35 34 33 33 32 35 38 35 33 32
43 42 41 40 40 40 40 40 41 41 41 44 45 46 49 49 48 48 48 48 49 49 50 50 50 49 48 47 47 46 44 42 41 39 36 36 34 33 35 37 39 39 37
43 44 43 43 43 42 42 42 43 44 44 43 44 46 48 49 50 50 50 50 51 52 52 52 52 51 51 50 50 49 47 46 44 42 42 40 39 37 36 36 41 37 40
42 43 43 43 42 42 42 43 43 44 44 44 44 45 46 48 48 50 52 53 55 55 53 53 55 55 54 53 51 50 49 49 46 46 42 41 41 40 39 38 36 38 38
40 41 42 42 41 40 40 41 42 42 44 44 45 46 46 47 49 50 51 52 55 56 58 57 57 54 55 55 54 52 51 51 51 49 46 44 43 43 42 43 42 41 41
39 39 39 39 38 39 40 41 42 42 42 42 43 44 45 47 49 50 51 53 54 56 59 61 62 60 57 57 57 56 54 54 53 51 49 47 46 45 46 46 45 46 45
36 34 34 35 37 38 39 41 40 41 41 42 42 43 45 47 49 50 52 54 56 56 56 60 64 66 64 61 59 60 58 58 57 54 52 51 49 48 50 49 50 47 47
31 32 33 35 38 39 39 38 38 39 40 42 44 47 49 51 52 55 58 59 60 61 62 62 62 63 66 67 66 62 60 60 60 55 59 48 55 53 54 51 53 51 51
31 31 32 32 33 33 34 36 37 40 42 45 46 47 51 56 60 62 64 65 66 67 68 68 67 67 64 64 64 65 67 62 60 58 56 62 63 63 60 46 50 47 51
27 28 28 29 30 32 35 38 39 40 41 44 49 54 58 59 61 64 67 69 69 69 70 69 69 69 69 68 65 63 61 61 62 58 55 53 56 52 47 48 49 48 55
25 26 28 29 32 33 32 32 36 38 42 46 49 52 56 59 62 63 64 64 64 67 70 72 71 70 68 66 65 65 63 62 61 60 58 60 63 63 60 63 53 64 62
25 26 27 26 25 28 30 31 33 36 38 42 45 43 46 52 57 58 58 61 63 64 69 71 72 71 68 65 62 60 59 60 62 63 65 65 65 66 64 65 70 67 66
23 21 21 25 27 26 29 28 30 31 33 27 28 35 42 50 44 46 49 46 46 50 54 56 57 54 57 61 58 55 54 51 51 54 56 56 55 56 52 55 57 61 62
21 22 21 21 22 23 23 26 26 29 28 30 34 35 39 42 38 37 36 35 39 45 46 46 48 55 45 47 51 46 43 44 44 45 47 47 48 54 48 51 54 55 58
21 20 20 20 22 20 22 23 21 25 31 36 36 34 34 34 32 32 30 27 28 23 20 21 29 33 44 38 41 41 38 36 37 39 39 40 50 55 47 52 57 52 60
21 22 22 23 21 20 22 21 19 20 20 25 27 28 30 31 28 23 22 20 20 19 18 17 15 17 16 19 27 30 33 34 31 32 33 38 46 46 47 49 52 56 59
22 24 26 23 24 25 22 20 19 16 16 19 20 21 21 23 25 24 20 21 22 20 17 13 9 10 15 18 21 23 24 25 26 32 30 32 41 46 49 52 57 59 60
15 15 18 19 21 19 18 16 14 15 14 17 15 14 17 15 16 18 19 16 15 14 11 8 12 12 8 11 19 15 18 17 28 33 30 36 42 44 46 47 50 52 54
10 11 12 15 18 16 15 15 17 15 14 15 13 12 16 14 13 12 11 16 14 6 9 11 4 6 2 7 13 20 21 26 27 32 37 37 42 42 40 43 44 47 51
10 12 13 15 18 19 15 11 10 13 12 11 10 13 12 15 13 12 11 13 13 7 8 6 3 7 9 10 12 14 20 22 26 28 27 31 33 34 36 40 44 50 54
9 10 11 13 14 14 15 15 14 13 10 9 9 11 9 10 10 12 12 12 12 13 8 5 5 6 7 7 11 14 17 20 21 22 24 26 30 34 39 44 48 50 57
10 11 12 12 11 13 11 12 10 11 10 11 12 9 8 9 10 10 11 11 12 11 11 10 10 11 12 13 14 15 16 18 20 23 26 30 34 38 44 49 49 53 60
12 12 13 12 11 12 11 11 11 10 9 7 6 7 9 10 11 12 12 13 13 13 12 12 14 15 16 16 16 18 19 22 25 28 32 34 37 43 46 50 54 54 55
12 13 14 14 13 12 12 11 11 8 7 6 7 8 10 12 12 13 14 14 13 13 14 15 16 16 14 15 17 18 21 25 28 31 34 38 41 43 46 51 53 51 44
14 14 15 16 15 14 13 12 11 8 7 6 8 10 11 12 13 14 14 15 15 17 18 18 18 17 18 19 21 24 26 29 32 36 39 39 42 44 49 52 51 44 39
14 14 14 15 15 15 15 13 13 11 9 9 11 12 13 15 17 17 17 19 19 20 20 22 22 20 21 23 25 27 30 32 35 38 41 42 44 48 52 50 43 39 38

GFSMW_500_spd_057.txt.gz
Wind_Speed
45 42 41 41 38 38 37 38 38 38 38 39 41 39 43 44 46 46 45 45 45 46 47 46 46 47 48 48 48 47 46 46 46 44 40 40 38 36 35 35 35 35 35
44 44 42 41 38 37 37 37 37 38 38 41 41 41 42 44 47 48 48 47 48 48 48 49 49 50 50 52 51 51 50 50 50 49 47 44 42 39 37 39 39 38 36
38 39 39 38 37 37 37 37 38 39 41 42 43 44 41 43 45 45 48 50 52 52 52 52 53 55 56 55 55 53 53 53 53 51 51 48 44 42 41 42 42 42 40
35 36 37 37 37 37 38 38 39 40 41 42 43 44 45 44 45 47 48 50 53 55 54 54 54 55 56 56 56 56 52 54 53 53 52 51 48 46 44 43 43 43 43
34 35 37 38 38 39 39 39 39 40 40 41 42 43 44 44 45 47 49 51 52 55 56 58 57 57 58 57 57 58 57 56 56 55 53 52 51 50 48 46 45 46 45
37 38 39 39 39 39 39 39 40 40 39 40 41 42 43 44 45 47 48 50 52 54 55 56 57 59 60 61 61 61 62 59 58 58 57 56 55 53 53 51 49 51 47
36 38 38 39 38 38 38 38 38 38 39 40 41 41 41 42 44 45 47 50 52 55 57 58 59 60 61 62 63 63 64 63 61 61 59 60 59 59 57 55 56 54 51
36 37 38 37 37 37 36 36 38 40 40 40 39 39 40 42 44 47 49 52 55 58 60 62 64 66 67 67 66 65 63 62 62 63 65 59 57 60 61 58 56 59 55
35 35 35 35 35 35 37 38 37 36 35 36 38 39 40 41 45 50 55 59 63 66 68 69 70 69 69 69 68 69 67 64 60 62 62 63 63 61 57 58 56 55 67
33 34 34 34 34 34 33 31 31 32 34 36 36 37 40 44 48 52 56 58 59 65 69 70 70 70 69 68 65 66 67 65 61 62 61 62 59 58 58 56 56 57 50
32 32 31 31 29 28 29 29 30 31 32 33 33 36 40 45 49 45 43 52 59 64 64 67 69 66 65 64 64 64 64 63 62 61 60 60 58 57 55 55 59 64 62
28 28 28 28 27 26 25 26 29 30 29 31 33 37 39 38 39 46 49 53 58 55 52 54 60 63 60 56 57 61 63 62 60 59 58 58 58 60 59 58 58 66 63
25 26 26 25 23 23 25 26 26 28 28 29 32 32 38 41 46 44 45 52 54 50 46 44 47 49 52 54 55 54 54 50 53 55 54 53 55 57 59 59 60 61 60
24 23 22 22 23 24 24 24 26 25 27 25 24 28 34 34 34 39 44 48 46 39 41 40 39 41 42 49 52 46 48 52 46 46 46 47 48 51 53 54 54 53 53
22 22 23 24 25 24 23 24 25 26 25 25 22 23 26 26 28 31 36 38 41 40 39 32 30 33 32 34 40 45 47 49 45 32 34 37 40 42 44 46 46 46 62
22 23 24 25 26 26 26 27 29 30 26 22 20 22 22 23 22 26 26 29 32 33 31 24 26 26 20 18 22 29 32 19 19 21 25 31 32 36 39 43 47 47 51
20 21 23 25 27 29 27 29 29 26 25 24 22 24 24 22 24 23 23 25 28 28 27 21 19 18 18 12 10 6 16 18 19 20 24 29 30 35 34 41 40 46 48
16 15 15 17 19 24 27 27 23 22 20 23 24 25 23 23 24 24 23 23 22 22 21 21 18 19 13 12 12 13 16 16 17 17 19 26 33 35 32 36 43 50 46
14 13 13 14 16 17 19 21 23 22 24 21 24 25 21 21 21 23 20 21 21 21 18 18 15 15 15 14 10 6 8 14 18 23 22 25 27 31 36 38 32 33 37
13 14 12 11 13 17 20 22 24 21 18 18 19 19 14 20 21 18 17 16 18 17 17 17 16 15 14 14 10 9 11 14 17 20 18 20 21 22 25 29 33 37 42
14 12 10 12 14 16 18 20 20 22 21 19 20 19 23 20 16 16 18 19 20 19 19 18 18 17 16 14 12 13 14 15 16 17 18 21 24 27 31 34 38 42 44
16 12 12 13 14 16 17 18 19 19 19 18 17 17 17 15 16 17 18 19 20 20 19 18 18 19 19 18 16 14 14 15 17 19 22 26 29 32 35 39 42 44 48
16 16 15 14 15 16 16 16 18 18 18 18 16 15 15 15 16 17 19 19 19 19 19 19 19 19 19 18 17 18 20 21 23 25 28 30 33 37 40 42 45 48 50
17 17 17 15 16 17 18 18 18 18 17 18 16 15 14 14 15 16 18 18 18 18 19 19 18 19 19 18 19 20 22 25 27 29 32 34 37 39 42 45 46 49 51
16 17 16 18 17 18 19 18 19 19 17 17 16 14 14 15 15 16 17 17 18 19 18 19 19 21 21 21 22 24 27 28 31 34 36 37 40 42 45 47 49 50 54
15 16 18 19 19 19 18 18 19 19 18 18 18 17 17 17 17 18 17 19 21 21 20 21 21 23 23 23 25 28 30 33 34 36 38 40 42 43 46 49 51 53 56

GFSMW_500_spd_060.txt.gz
Wind_Speed
42 43 42 39 38 38 39 38 38 37 37 37 38 38 36 38 39 40 41 41 41 41 43 43 44 45 45 45 46 47 47 47 48 48 47 46 45 43 40 38 37 36 37
43 43 40 40 42 41 40 38 38 38 38 37 39 41 37 36 40 43 42 42 45 45 46 46 46 48 48 48 48 49 49 50 49 50 51 50 49 45 44 43 42 41 39
41 41 40 42 41 41 40 38 38 37 37 37 38 40 42 38 38 42 44 45 47 47 49 50 49 49 51 50 51 51 52 52 51 52 51 51 49 48 47 45 46 45 42
39 37 39 40 40 38 36 35 36 37 36 37 39 40 42 43 41 40 43 45 47 49 52 52 54 55 55 55 55 55 54 54 53 54 52 55 54 52 50 47 47 47 45
32 32 33 33 33 33 32 34 34 34 35 37 39 40 41 42 42 42 43 45 47 48 49 52 56 57 59 57 59 59 60 58 58 56 55 55 56 56 53 52 49 48 48
31 31 32 31 31 32 33 34 35 36 37 38 38 39 39 40 41 42 44 45 46 47 48 49 51 54 57 59 61 63 63 64 63 60 56 57 58 57 57 55 54 52 53
33 32 32 32 33 36 37 37 37 38 38 38 38 38 38 40 42 42 42 42 43 44 47 48 51 56 59 62 64 66 67 66 67 65 62 59 58 59 58 58 56 55 56
37 37 35 35 35 36 38 38 38 37 37 37 38 39 40 38 36 38 39 40 41 45 49 53 56 58 58 60 66 68 70 70 69 68 65 63 61 58 57 57 58 57 53
32 34 35 36 37 37 38 37 36 35 36 38 38 36 35 35 35 35 36 40 44 48 50 51 49 56 60 65 68 68 67 68 67 67 66 66 64 61 58 56 57 58 59
35 36 37 37 37 37 36 35 35 35 36 34 33 33 33 31 32 33 38 43 46 44 46 52 54 59 64 59 61 63 61 61 64 64 63 65 63 62 61 55 57 56 54
35 36 36 36 36 35 34 34 34 33 32 32 31 31 30 30 32 37 39 41 43 46 49 50 57 61 55 62 58 59 59 58 55 56 59 60 58 58 57 58 58 55 54
33 32 32 32 32 32 31 31 31 31 30 30 30 29 29 31 34 32 37 40 40 39 44 47 54 56 56 58 50 49 50 50 46 47 46 50 55 56 55 57 56 55 52
30 29 29 29 29 29 28 28 29 29 29 27 27 26 27 27 30 30 29 31 33 34 36 42 48 47 46 47 50 47 42 44 48 46 44 47 47 47 50 53 53 53 54
27 26 25 25 26 26 27 27 27 27 27 27 26 28 25 25 26 24 27 26 28 29 34 38 39 38 45 44 45 42 37 39 36 34 40 45 46 45 43 46 47 49 49
25 24 24 25 26 27 26 26 27 28 27 27 27 27 27 25 27 28 29 29 29 32 35 36 38 37 37 32 36 35 36 26 25 31 28 36 41 41 39 38 41 42 45
23 23 23 25 26 28 30 30 31 31 29 29 31 31 29 27 29 27 28 29 31 31 32 31 31 30 29 27 26 27 29 22 23 26 23 22 27 22 34 32 33 36 37
23 24 25 25 27 29 30 32 31 30 28 29 28 28 28 29 28 28 30 29 29 29 29 28 27 27 25 27 26 25 20 25 23 22 16 10 9 15 23 28 29 29 33
21 22 22 21 19 18 18 20 22 25 26 26 27 25 26 29 28 27 25 28 27 27 26 25 25 26 23 23 21 20 18 16 17 17 15 20 22 18 18 20 27 28 33
20 19 16 16 15 15 17 18 18 20 22 24 25 26 24 23 21 22 24 25 23 23 25 26 26 26 24 22 20 17 16 17 17 15 14 16 17 15 15 16 19 22 26
17 16 15 14 11 13 13 13 16 20 22 23 24 23 22 22 23 23 23 22 23 25 26 26 25 25 25 24 22 19 18 17 16 15 14 15 16 17 18 20 24 27 31
16 16 14 12 14 14 13 14 16 18 20 21 22 21 22 23 22 21 20 22 23 25 26 25 25 25 25 24 23 21 18 17 16 16 17 19 20 22 24 26 29 32 35
17 16 17 16 16 15 14 15 17 18 19 20 20 21 20 19 19 19 20 21 21 23 24 23 24 24 23 22 22 21 20 20 21 22 22 24 26 28 30 33 35 37 39
18 18 19 20 18 17 16 17 18 20 21 21 20 19 19 19 19 19 19 19 20 22 22 22 22 22 22 22 21 21 21 23 24 25 27 29 30 32 34 35 37 40 42
17 16 19 20 19 18 19 19 20 20 21 21 20 20 20 19 18 18 18 19 19 20 21 22 22 22 22 22 23 23 24 26 27 29 30 32 34 37 38 40 42 42 44
14 14 17 16 17 18 19 20 20 19 21 22 21 20 19 19 19 20 20 21 20 21 22 22 23 23 24 25 25 26 27 28 30 32 34 36 38 40 41 42 42 43 46
13 12 14 16 17 18 18 20 22 23 22 21 22 22 22 23 23 22 22 23 24 24 24 25 25 26 27 27 28 29 31 31 33 35 37 39 41 42 43 43 43 45 48

GFSMW_500_spd_063.txt.gz
Wind_Speed
39 41 41 40 39 36 35 38 39 36 34 34 36 36 36 36 36 36 36 36 38 38 38 39 40 42 43 44 45 45 45 44 46 47 47 47 47 45 45 45 42 39 39
44 42 39 36 36 38 39 38 39 39 39 38 39 38 37 35 36 38 38 41 41 41 42 42 43 43 43 44 46 47 46 46 47 49 52 52 49 47 46 46 45 43 42
44 43 39 37 39 39 39 40 41 41 41 41 40 40 40 36 35 36 39 42 45 45 44 43 44 44 46 47 48 49 50 50 53 53 55 56 54 54 51 49 49 47 46
41 39 37 35 36 38 40 40 42 43 43 41 40 40 40 39 38 37 38 41 44 45 47 46 46 46 48 48 51 52 53 53 55 58 57 58 58 58 58 53 50 50 51
42 37 36 36 37 38 41 42 42 40 37 37 36 37 38 39 40 40 40 41 42 44 45 47 48 48 48 47 48 51 54 56 58 59 61 61 60 61 59 58 56 52 51
36 38 39 36 36 36 38 39 37 34 33 34 35 38 39 39 40 41 40 41 42 42 43 43 43 44 45 47 50 54 58 60 62 65 66 66 67 65 63 61 58 58 56
37 34 34 33 32 32 33 34 32 33 34 36 39 39 39 40 40 40 40 42 43 41 39 39 40 43 47 50 49 53 55 57 61 64 66 66 68 71 68 64 62 62 60
36 34 32 30 30 33 34 35 36 37 38 39 40 40 39 38 38 40 40 38 38 38 38 39 43 46 47 45 51 53 57 61 65 62 62 65 68 69 70 64 62 64 64
32 32 35 38 37 38 38 38 39 39 39 40 39 38 37 38 39 38 37 37 35 35 38 43 45 42 43 45 50 53 59 55 59 63 60 65 65 66 64 60 50 56 50
34 34 33 35 36 37 39 39 39 40 39 38 36 36 37 37 36 36 33 33 34 37 40 40 38 36 38 45 50 47 51 53 57 57 55 56 56 56 58 59 64 53 42
34 36 38 38 38 39 39 39 38 37 36 34 35 35 35 35 33 32 32 33 35 36 34 32 34 37 38 42 43 46 51 52 52 49 50 49 45 45 50 53 56 56 64
34 36 37 38 38 37 37 35 34 33 34 34 34 34 33 32 31 32 31 31 32 29 30 32 31 33 38 42 43 42 44 47 43 47 42 38 39 41 39 41 46 54 53
31 31 33 33 32 32 32 31 31 31 32 32 32 32 30 29 31 29 28 26 27 29 29 30 32 35 39 40 38 38 40 42 40 44 44 35 33 34 35 38 41 44 47
31 28 28 27 27 28 29 28 29 30 31 31 31 29 29 31 30 30 31 28 28 29 29 32 35 35 37 37 35 35 34 34 33 34 36 34 30 30 33 31 40 34 34
24 25 25 24 24 25 26 28 28 29 30 30 28 29 30 30 31 31 32 32 31 28 30 31 31 36 35 34 34 33 31 31 30 31 31 28 25 19 23 23 20 26 31
21 22 22 23 24 25 27 29 29 30 30 30 32 33 33 34 34 33 33 31 30 31 29 29 32 32 31 33 32 31 31 27 26 25 24 19 24 19 20 14 21 25 23
22 23 23 24 25 26 26 27 27 29 31 34 35 33 30 29 30 30 29 29 27 29 30 30 29 29 32 32 31 28 27 25 25 23 24 22 21 21 23 19 17 21 26
21 21 22 23 22 23 24 25 24 22 21 22 24 24 26 26 26 27 28 28 25 25 25 25 28 31 32 31 29 27 26 25 24 23 23 22 22 20 16 16 14 13 14
21 21 21 21 21 20 19 18 18 17 18 19 21 23 23 23 21 24 24 23 23 24 25 26 28 30 31 29 29 27 24 22 21 21 20 19 18 17 17 17 17 18 19
21 20 20 19 18 17 17 14 14 14 15 17 19 20 21 23 24 25 25 24 24 25 26 26 27 28 28 27 27 25 22 20 19 19 19 19 20 21 21 22 23 24 26
20 20 20 18 18 18 17 15 15 14 14 14 16 18 18 20 22 22 21 22 23 24 24 25 26 26 26 25 25 24 24 23 22 23 23 24 24 24 25 26 28 29 31
20 20 19 20 19 19 18 15 16 16 15 15 17 18 19 19 19 19 20 21 22 22 22 23 24 25 25 24 24 25 25 25 24 24 25 26 27 28 30 30 32 33 35
21 20 20 21 21 20 20 17 19 18 17 19 19 18 19 20 20 20 20 20 21 21 21 21 23 24 24 25 26 27 28 28 28 28 28 29 30 31 33 34 35 36 38
22 21 22 22 19 19 19 16 18 18 19 20 19 20 20 20 20 20 20 21 21 22 23 24 24 25 25 27 28 29 30 31 32 32 32 33 33 34 35 37 38 39 39
23 22 20 19 17 17 17 16 17 18 20 21 20 21 22 21 21 21 24 25 24 24 24 25 26 28 28 28 30 31 32 33 34 35 35 35 35 37 38 39 40 41 41
22 22 18 16 14 15 16 16 17 19 21 23 24 23 23 23 24 25 28 31 31 29 28 28 28 29 30 31 31 33 33 34 36 36 36 36 37 39 40 41 42 42 43

GFSMW_500_spd_066.txt.gz
Wind_Speed
46 45 45 44 42 40 39 37 35 35 37 36 36 35 33 34 34 34 33 35 35 35 36 36 36 37 40 41 43 42 42 42 44 47 45 46 47 47 47 49 49 49 45
49 47 45 45 41 38 38 39 40 40 38 36 36 36 37 37 38 38 37 36 36 38 38 37 39 40 42 43 43 45 45 45 47 48 50 50 50 51 52 54 54 53 52
48 49 46 43 42 41 40 40 38 39 39 38 37 37 38 39 39 40 41 40 40 40 42 43 41 42 43 44 44 46 46 46 48 47 51 51 51 52 54 56 57 58 56
48 47 49 47 43 43 41 40 38 37 38 38 39 39 40 40 41 39 38 39 42 44 46 46 45 45 44 44 45 45 45 45 45 49 51 56 57 59 59 58 58 59 59
44 45 45 45 42 42 47 48 47 44 43 42 40 40 41 41 40 38 37 39 41 43 44 45 46 46 46 47 45 44 44 46 49 51 53 55 58 60 61 60 60 62 54
40 40 43 41 42 41 40 42 46 44 41 42 44 44 41 38 37 38 40 41 42 43 44 44 44 45 45 43 43 44 47 49 48 50 51 56 61 64 67 67 66 63 64
43 40 38 38 42 41 40 41 43 44 44 44 43 41 39 39 40 42 43 45 44 43 42 42 41 40 41 42 43 46 47 44 45 48 53 54 59 63 66 68 71 69 60
43 41 38 36 38 40 41 40 39 39 39 38 37 38 40 42 42 43 43 43 43 42 43 40 39 38 39 42 44 44 43 43 46 46 50 53 56 55 59 67 70 68 67
42 40 40 40 39 39 38 37 37 36 37 38 39 41 43 43 43 43 42 42 42 42 41 40 38 38 42 43 41 38 40 42 45 47 49 51 49 49 56 57 61 62 61
40 39 39 40 39 38 38 38 39 41 43 43 46 45 45 45 43 41 41 41 40 40 39 37 37 40 41 37 37 34 38 41 44 43 46 49 48 51 56 47 46 48 50
41 39 38 37 37 38 40 42 43 43 43 43 45 44 42 41 40 39 39 39 39 38 38 37 37 37 35 32 32 35 40 41 41 41 44 45 44 47 53 45 40 41 43
39 38 38 39 40 41 41 41 41 42 43 42 41 39 38 38 37 37 37 37 37 36 35 34 34 34 33 34 35 38 40 41 40 40 41 42 44 45 46 46 36 34 37
37 40 39 38 39 40 41 41 42 41 38 36 35 36 35 34 34 35 35 35 35 35 33 31 33 32 32 34 38 38 38 38 39 39 38 38 40 38 33 36 36 34 34
35 38 34 33 31 33 34 34 34 33 32 32 32 32 32 33 33 33 34 35 35 35 35 35 33 31 32 32 36 37 36 38 37 38 36 35 32 33 32 31 32 32 29
28 29 31 29 28 27 28 28 28 28 29 30 30 31 32 32 32 32 33 34 36 35 35 34 34 33 34 35 35 35 37 39 36 34 32 31 31 31 28 29 28 27 26
24 23 22 24 24 25 25 25 26 27 28 29 30 31 31 32 33 34 36 37 36 34 35 33 30 32 34 33 33 35 37 37 33 32 31 30 29 28 29 29 27 24 21
22 23 23 24 25 24 25 25 26 26 27 28 30 31 32 34 35 35 32 32 31 29 30 32 31 32 29 31 33 35 35 33 31 29 28 28 26 25 24 23 21 21 20
21 21 23 24 24 24 24 26 25 25 26 26 26 25 25 25 26 27 28 28 29 29 29 30 30 28 29 30 32 32 31 28 26 24 22 22 22 22 22 21 20 20 21
20 21 22 22 21 21 21 22 22 21 20 20 20 20 21 22 23 25 25 26 25 27 29 31 30 28 29 29 31 29 27 25 25 24 23 23 23 24 24 25 25 25 25
20 21 21 21 21 21 21 20 19 19 16 17 18 18 18 19 20 21 23 25 26 27 28 28 27 27 28 29 29 27 26 25 25 25 25 26 26 27 28 29 29 29 29
21 20 20 20 21 21 19 19 18 19 18 16 16 17 16 16 17 20 21 23 24 25 25 25 24 25 27 27 27 26 25 25 26 27 27 28 29 29 30 30 31 32 33
20 20 20 20 20 21 20 19 19 20 20 17 17 18 18 18 18 19 21 22 23 23 24 24 25 24 24 25 25 25 25 26 28 29 30 31 31 32 33 34 35 35 36
20 21 22 21 21 20 21 21 20 21 20 18 20 21 20 19 20 20 20 21 22 24 23 24 25 26 26 27 27 27 27 27 28 30 31 32 33 34 35 35 36 37 38
21 22 22 22 22 22 23 23 21 19 20 19 19 20 20 21 21 21 22 22 23 25 26 27 28 27 27 27 28 29 30 30 31 32 33 34 35 36 37 37 38 39 40
22 23 24 24 23 23 23 24 20 20 20 20 19 20 21 23 23 22 23 25 27 29 30 33 33 32 32 32 32 32 33 33 33 34 35 36 37 38 39 39 40 42 43
25 24 24 26 22 23 24 24 20 20 21 20 20 21 23 24 24 25 25 26 29 32 34 35 33 32 32 34 35 35 35 35 35 36 38 38 39 39 40 42 43 45 45

GFSMW_500_spd_069.txt.gz
Wind_Speed
51 52 50 49 47 44 42 42 42 42 42 41 39 37 35 35 34 33 33 33 35 35 35 36 37 37 36 37 40 42 42 42 43 44 43 44 44 44 43 46 48 48 50
49 51 52 51 47 46 45 43 42 41 42 43 42 39 38 37 36 36 36 36 37 37 37 38 38 39 39 42 43 44 43 44 44 45 48 47 44 43 44 47 50 51 52
46 48 52 52 49 47 46 45 44 43 42 41 39 39 39 38 38 38 39 39 38 39 40 40 40 42 42 42 43 44 44 45 46 46 47 46 46 45 46 49 48 50 51
44 45 48 50 51 49 47 46 46 45 43 43 42 40 40 39 39 39 41 42 44 44 42 42 43 44 45 45 44 45 45 46 44 44 46 47 48 50 46 46 50 53 55
40 43 46 47 48 47 47 47 47 46 44 42 41 41 41 39 39 40 41 43 45 44 43 43 45 47 48 47 46 46 48 44 44 44 45 48 48 46 49 48 50 55 58
39 40 42 44 44 45 49 51 50 49 50 49 50 52 51 48 45 43 44 42 41 41 43 44 46 49 49 47 47 48 45 44 45 47 48 47 45 48 50 52 52 55 55
40 40 41 43 45 47 47 48 47 47 48 47 46 47 49 49 46 45 43 42 41 44 45 47 47 47 46 46 46 44 43 44 46 48 44 42 44 49 51 51 53 53 50
44 45 43 40 39 39 42 45 44 45 45 44 45 46 47 48 47 44 41 42 45 47 46 45 45 43 43 42 41 41 42 44 43 40 39 42 45 48 49 51 52 51 51
45 46 45 43 40 38 39 41 44 46 46 46 46 45 44 43 41 41 43 46 46 46 45 45 43 43 41 40 40 41 42 40 39 35 38 42 45 45 48 50 50 52 53
43 47 46 45 44 42 41 41 41 43 44 44 43 41 40 40 42 45 48 49 47 46 45 43 42 41 40 39 40 41 38 37 36 38 43 44 44 46 47 48 47 47 50
38 44 49 46 45 45 44 43 44 43 43 42 41 42 45 48 50 50 49 47 46 44 42 41 41 40 39 39 39 36 38 38 40 42 43 42 44 46 46 45 44 44 47
40 40 42 49 43 45 44 44 44 44 44 45 48 49 48 47 47 47 45 43 42 41 40 39 39 39 38 38 36 38 36 37 38 42 42 42 45 45 43 42 41 43 42
40 39 40 42 42 41 42 43 43 42 42 44 44 46 47 49 46 42 40 39 38 37 38 38 37 38 38 36 36 37 36 37 39 41 40 43 43 41 40 39 42 42 42
36 39 37 42 38 39 39 40 41 45 48 47 46 45 44 41 39 38 36 35 35 35 35 36 37 37 39 38 39 38 38 39 40 40 42 42 39 38 37 36 36 39 39
25 36 38 39 42 39 37 38 39 39 39 38 37 36 36 35 35 34 33 33 34 33 35 37 38 39 39 38 35 36 38 39 37 39 41 39 35 34 32 32 33 32 29
24 24 26 27 33 40 34 32 32 31 31 31 31 31 31 31 31 32 33 34 35 36 37 37 36 35 34 34 35 36 37 36 37 39 37 33 30 28 28 28 28 28 27
24 25 25 26 26 26 28 29 28 28 28 28 28 29 30 30 32 33 33 35 36 35 32 31 31 31 32 32 33 34 34 35 36 36 32 29 28 26 26 27 27 28 27
18 19 21 24 24 25 26 27 28 28 27 27 27 27 27 28 27 28 27 27 27 27 28 29 27 27 28 30 33 34 34 34 34 31 29 28 27 26 26 27 28 29 29
22 22 22 23 24 26 27 27 27 26 24 25 25 24 23 22 23 23 24 24 26 27 28 28 29 29 31 33 32 31 32 34 31 28 27 26 27 27 29 29 30 31 31
22 22 22 23 23 23 22 23 23 22 21 22 22 21 19 19 20 20 21 20 21 23 24 26 27 29 29 29 29 30 31 30 28 27 26 27 27 28 29 30 31 32 33
21 21 22 22 23 23 21 21 21 21 20 21 20 19 19 18 18 19 19 20 21 21 23 25 27 28 28 28 28 27 26 26 26 26 26 27 28 30 30 31 32 33 35
24 23 21 22 23 24 23 22 21 21 20 21 21 21 20 18 19 20 20 21 22 22 24 25 27 27 27 27 29 30 30 29 29 28 29 30 31 32 33 33 35 36 37
20 20 21 22 23 21 21 21 21 22 21 21 22 23 21 19 19 20 22 22 23 24 25 26 27 28 29 30 32 32 32 32 32 32 32 33 33 34 35 36 37 38 38
16 18 21 21 22 23 23 23 23 24 25 25 23 23 20 19 20 21 23 23 24 26 26 27 28 31 33 35 34 34 35 35 36 36 36 35 36 37 37 38 39 39 40
28 26 25 24 24 23 24 23 24 26 26 27 24 22 21 21 21 21 23 24 25 26 28 29 30 33 36 39 38 36 35 37 38 38 38 38 38 39 39 40 41 41 43
23 25 26 26 23 24 25 26 23 26 26 27 25 22 22 22 23 23 25 25 27 28 30 32 32 33 34 35 35 35 36 37 37 37 38 39 40 40 41 42 43 44 46

GFSMW_500_spd_072.txt.gz
Wind_Speed
60 59 56 56 53 50 48 46 44 43 41 41 41 41 39 38 38 36 35 35 35 34 34 35 38 38 38 39 37 39 41 43 44 45 44 43 43 43 44 43 42 42 43
62 63 61 58 56 53 49 47 47 46 45 45 44 44 42 40 39 38 38 38 37 37 38 39 40 41 41 41 41 41 43 44 45 46 46 44 42 43 43 43 43 44 45
58 59 59 59 59 55 52 50 49 48 48 46 47 46 45 44 42 42 41 41 41 41 41 41 42 42 44 43 43 43 44 45 46 46 46 46 44 44 43 43 44 43 43
51 49 48 49 50 50 50 50 50 49 48 47 47 46 45 44 44 43 43 43 44 43 42 41 43 46 46 44 44 45 45 47 46 45 46 46 45 45 44 45 42 40 43
46 45 46 47 52 52 51 50 49 49 48 48 47 47 46 46 45 44 43 43 43 44 45 45 45 45 43 44 46 47 47 47 45 45 43 43 43 44 44 39 38 41 45
45 43 42 43 46 48 50 51 51 49 48 48 48 49 49 48 48 47 47 48 53 53 50 49 47 44 45 47 49 48 47 45 45 43 43 42 43 41 39 39 41 44 45
44 45 43 43 45 46 48 49 50 52 52 52 51 50 50 49 51 52 52 52 49 50 48 46 44 45 47 49 49 47 46 46 44 43 41 43 42 40 38 42 45 49 47
42 44 46 45 44 46 46 46 47 48 49 51 52 52 52 50 49 47 46 46 47 46 44 42 43 46 48 47 46 45 45 43 42 40 41 39 38 38 42 47 48 48 48
44 44 47 46 45 44 43 43 44 45 46 49 50 51 51 50 47 47 47 46 45 43 41 44 47 47 46 45 44 43 41 40 39 39 36 36 37 40 42 46 47 49 50
47 47 45 46 47 45 44 44 43 43 43 43 45 48 49 49 49 48 45 42 41 42 46 50 50 48 46 44 42 40 39 38 38 35 35 37 39 39 43 45 47 50 47
44 46 49 49 49 48 47 46 45 44 43 43 43 44 46 46 45 44 42 43 46 50 51 50 48 46 44 41 40 39 38 37 35 35 34 37 38 41 42 45 48 47 44
42 46 48 48 50 51 51 49 47 45 44 44 44 45 45 44 44 45 45 49 50 47 47 47 45 42 40 39 38 37 37 36 35 35 36 38 41 42 43 46 46 44 41
40 39 41 44 46 47 51 51 48 44 45 45 45 45 46 46 45 47 48 48 49 50 46 41 40 38 36 36 36 37 38 38 38 38 36 39 42 42 43 43 41 39 37
32 34 35 38 44 45 43 43 48 42 42 44 44 44 43 43 45 49 49 47 45 42 40 37 36 36 35 35 37 37 38 38 37 36 38 40 40 40 41 39 37 34 32
32 34 30 33 39 47 47 44 40 41 40 40 41 40 43 46 45 44 42 40 39 37 36 35 35 36 37 38 38 37 37 36 36 37 38 38 38 40 37 35 33 31 30
36 35 29 30 37 40 40 43 42 35 37 38 38 45 42 41 39 37 36 35 35 35 35 37 37 37 38 35 34 33 32 34 34 36 37 36 37 36 33 32 31 30 30
32 33 31 27 28 31 31 34 39 42 43 42 35 37 36 34 33 32 33 33 34 35 36 36 35 32 31 31 31 30 30 31 34 35 35 35 35 32 31 30 30 30 30
22 29 27 28 29 28 26 26 28 29 30 30 31 31 30 29 30 31 32 32 32 31 28 26 27 28 28 29 29 30 31 33 33 33 34 34 32 30 29 29 30 31 32
23 20 21 20 21 23 28 27 26 29 29 28 31 28 29 29 30 28 26 24 24 25 25 26 26 26 26 26 26 27 28 29 30 31 31 30 28 30 30 30 31 31 32
23 23 20 23 24 23 22 23 25 26 26 27 28 29 28 26 25 24 22 22 21 21 22 23 24 24 23 23 26 28 28 27 28 29 30 29 29 29 30 30 31 32 34
19 20 23 24 23 22 21 21 22 22 23 23 22 22 22 23 21 20 19 19 20 21 22 22 22 21 22 24 25 27 27 29 30 31 31 31 31 32 32 33 33 35 36
22 22 23 22 23 24 25 25 26 25 25 24 23 21 21 22 22 21 19 20 20 21 22 22 22 22 24 25 26 27 28 32 34 35 36 36 36 36 35 35 36 36 37
24 24 23 24 23 22 23 26 28 24 23 24 23 22 22 22 23 23 22 21 21 21 22 22 23 24 25 28 29 30 32 35 36 36 36 37 38 38 38 38 39 40 40
23 22 21 21 21 22 23 23 24 22 23 24 24 24 25 25 25 25 23 22 23 22 23 23 23 25 27 29 31 34 35 36 36 34 35 36 37 37 38 39 40 42 43
25 21 25 23 24 25 25 24 24 26 25 26 27 29 28 28 28 26 24 24 24 23 24 25 25 26 29 31 32 34 35 36 35 35 35 36 37 38 39 41 43 43 42
25 27 28 29 30 29 27 26 27 26 26 25 27 28 29 29 30 28 25 25 25 25 26 26 27 28 30 31 32 35 35 32 33 34 34 36 39 40 41 42 41 40 41

GFSMW_500_spd_075.txt.gz
Wind_Speed
53 48 49 48 45 45 47 46 45 44 42 41 40 39 38 38 37 38 38 38 37 36 36 35 36 38 39 39 40 40 41 41 41 42 42 42 43 43 44 43 41 39 39
54 54 54 52 52 52 52 51 49 47 46 45 44 42 41 40 40 40 40 40 41 41 40 39 39 40 41 42 43 43 44 45 43 43 43 42 43 42 42 41 40 39 40
50 52 54 55 56 55 54 53 52 51 49 48 46 44 44 43 43 43 43 43 44 44 43 42 42 42 43 44 45 47 49 47 43 44 45 46 43 41 40 39 38 38 39
50 55 56 60 61 58 57 56 55 54 52 50 49 48 47 46 46 46 46 47 47 46 46 45 45 45 45 45 47 49 48 45 42 45 47 45 42 42 41 39 37 38 36
53 52 52 52 53 54 57 59 60 57 55 54 53 52 51 50 49 49 49 49 48 48 48 47 47 46 49 53 51 49 44 43 44 47 46 43 43 41 40 37 37 35 33
51 52 50 48 46 48 49 50 52 53 53 52 52 52 51 51 51 50 49 48 49 49 49 49 50 55 51 50 49 45 43 45 47 47 44 43 41 40 38 37 34 33 36
54 55 56 52 48 47 48 49 50 51 53 54 55 55 55 53 52 52 52 51 51 51 51 54 54 52 50 47 44 43 45 47 46 44 43 42 40 37 37 36 33 34 37
52 52 51 50 50 48 48 47 47 48 50 51 53 54 55 55 55 54 53 54 53 52 50 50 48 46 45 42 42 45 47 46 46 44 42 40 38 38 35 35 37 36 38
43 52 53 54 52 49 49 49 49 48 50 52 54 55 55 55 55 54 54 53 52 50 47 46 44 42 41 43 47 47 46 45 43 41 40 38 37 35 35 35 36 38 39
40 44 46 45 48 50 50 49 48 46 46 48 49 51 52 52 51 52 51 49 48 47 46 44 41 42 45 48 47 46 45 42 40 38 37 35 34 34 33 34 36 39 41
38 43 48 50 50 51 53 54 53 50 48 47 47 47 48 48 48 47 46 46 45 43 42 41 43 44 45 45 45 44 42 40 37 35 35 33 33 34 35 36 38 39 42
33 39 45 51 53 55 54 54 54 53 51 50 48 47 47 46 45 44 44 43 42 41 42 43 43 45 47 46 44 41 38 36 36 34 35 36 36 37 37 37 38 40 41
30 34 38 44 50 51 51 52 51 51 51 51 50 48 47 45 44 44 44 43 42 42 41 44 48 46 44 40 38 37 36 35 35 36 36 37 36 36 36 37 38 39 40
31 34 37 39 40 43 47 50 50 50 51 52 53 51 48 45 43 42 41 41 40 42 45 44 44 41 38 36 35 35 36 37 37 38 36 36 36 36 36 37 38 39 36
33 36 37 38 40 40 44 47 45 47 48 48 49 50 50 45 44 43 41 41 43 43 42 41 39 37 36 35 35 36 35 35 34 34 33 34 34 35 36 37 38 35 32
32 35 37 39 40 38 39 40 41 44 46 45 45 42 42 39 37 37 40 45 44 41 39 38 36 35 35 36 36 35 31 31 32 32 30 31 33 35 37 38 35 32 31
32 33 35 38 40 41 41 39 40 42 43 41 42 43 39 41 46 50 38 39 40 39 38 35 34 36 35 34 29 28 29 29 28 29 30 32 33 35 35 34 32 31 30
32 31 32 35 35 35 34 35 32 38 37 37 40 43 45 41 35 35 37 37 35 34 33 34 32 30 27 26 26 27 27 26 26 27 28 29 29 29 30 30 30 30 31
21 23 24 23 26 29 32 32 32 29 28 27 27 27 30 30 30 32 31 31 30 31 29 26 25 25 25 23 23 24 24 24 25 25 27 27 30 31 32 32 30 30 31
18 21 25 25 22 20 22 19 21 32 28 26 28 27 25 26 29 30 31 33 31 28 25 24 23 23 22 22 23 23 23 23 24 25 26 28 29 30 32 34 35 36 36
21 21 22 24 25 22 21 22 21 22 23 25 26 26 27 28 29 28 27 26 25 24 22 20 21 21 21 22 21 21 22 23 25 27 29 31 32 33 33 35 36 37 37
23 23 22 22 22 22 23 22 22 23 25 24 24 23 23 23 22 22 22 22 23 22 21 21 20 21 22 22 23 24 24 25 27 29 31 33 34 34 34 35 36 36 36
22 23 24 24 24 24 25 23 23 24 28 30 29 26 24 24 24 23 22 23 24 24 24 23 21 22 22 23 25 25 26 27 29 31 33 34 34 34 34 34 35 35 36
21 23 24 24 23 21 22 23 24 25 22 23 26 25 25 25 25 25 25 25 26 27 27 26 24 23 24 24 26 26 28 29 30 32 33 33 32 32 33 34 36 37 38
25 25 26 24 21 22 24 23 23 24 25 23 24 26 26 27 28 28 29 29 29 29 28 27 25 24 25 25 27 28 29 30 31 34 34 31 32 34 36 37 37 38 37
26 24 26 26 29 22 22 27 26 28 26 27 25 26 28 27 27 30 31 31 30 31 30 28 26 25 26 26 28 30 31 33 33 34 34 34 36 38 38 37 37 37 38

GFSMW_500_spd_078.txt.gz
Wind_Speed
54 50 49 48 44 42 45 46 44 45 44 42 40 39 39 39 38 37 37 36 36 36 35 35 36 37 37 38 38 39 41 42 43 43 44 45 43 41 43 44 46 46 42
52 50 50 49 49 45 42 43 44 44 45 43 43 42 42 42 41 40 40 39 39 39 38 38 39 39 40 41 42 43 44 45 46 46 48 47 42 42 44 46 45 44 42
54 54 52 50 49 50 47 44 44 45 45 44 44 43 43 44 44 44 43 43 43 42 42 42 43 43 43 43 44 45 46 47 47 52 50 48 42 42 44 43 43 40 38
55 53 54 57 54 52 50 49 49 49 50 49 48 48 48 48 48 47 46 46 45 45 45 46 46 46 46 46 46 46 48 49 53 48 49 45 44 46 45 43 41 40 37
60 55 55 54 55 56 52 53 55 55 53 51 50 51 50 50 49 49 48 48 48 48 49 50 50 49 48 49 47 48 50 55 50 49 44 43 45 45 45 43 41 39 37
66 57 56 56 55 51 55 57 58 60 59 57 54 53 53 54 53 53 54 54 53 53 53 53 51 50 51 50 50 53 52 47 45 41 42 45 46 45 45 43 39 37 36
56 50 48 50 51 52 51 54 55 56 55 54 54 56 58 59 58 56 55 55 55 55 55 54 53 52 51 52 53 50 47 44 41 43 45 47 47 45 43 41 38 36 33
40 51 51 54 54 55 51 50 50 49 49 50 50 50 52 54 54 55 55 55 55 56 56 55 54 54 52 51 48 45 42 41 42 46 47 46 45 43 42 40 38 36 35
45 44 46 49 53 53 53 53 53 50 49 49 51 51 52 52 52 52 53 54 55 56 57 56 54 53 50 46 45 42 41 43 46 45 44 44 42 41 39 38 37 36 35
30 36 40 42 53 56 57 56 56 53 53 49 49 50 51 52 53 55 56 57 57 56 55 53 51 49 46 45 43 42 43 42 43 43 43 41 39 38 37 36 37 38 38
25 28 34 43 47 56 56 55 54 53 53 53 53 52 51 51 53 54 55 54 52 50 49 46 44 43 42 42 42 42 44 46 44 42 39 38 37 36 37 37 39 40 41
25 29 31 36 41 46 50 61 62 56 57 56 56 55 54 53 53 53 52 51 49 47 46 44 43 42 41 42 42 45 46 43 41 38 37 36 36 38 39 39 40 39 39
22 27 33 35 38 42 47 51 53 54 55 56 57 57 56 54 55 54 53 51 48 46 44 44 42 42 42 43 45 45 43 40 38 36 36 36 38 39 39 38 37 37 38
25 26 28 32 37 40 42 46 50 54 56 56 56 55 53 54 54 54 54 50 47 45 42 41 41 42 43 45 44 42 40 38 36 36 37 36 37 35 34 34 34 35 37
28 29 30 31 33 38 40 40 42 44 46 49 51 51 52 51 50 49 48 47 46 44 44 39 40 40 41 42 40 38 38 36 37 36 35 33 33 33 32 32 35 36 37
29 31 32 31 34 37 40 41 42 43 44 45 46 47 47 46 46 45 43 41 43 41 39 41 45 47 41 37 38 38 37 36 34 32 31 29 30 30 31 32 33 33 33
33 31 31 31 31 34 37 40 41 43 45 46 47 47 46 47 44 44 39 40 40 40 45 47 40 39 40 38 37 36 32 29 28 29 29 28 27 27 29 30 30 28 28
36 29 29 31 33 34 35 36 37 39 40 41 44 47 44 43 43 42 44 44 48 52 41 39 38 37 36 35 29 28 27 27 27 26 26 26 27 27 27 29 31 31 31
30 31 29 30 32 30 28 32 37 40 40 37 34 37 37 34 33 34 35 32 32 33 36 35 35 32 30 28 27 26 26 25 25 25 25 26 26 26 29 30 32 33 33
26 24 24 25 26 25 25 24 23 23 22 29 27 32 28 28 29 34 37 35 32 32 30 28 30 30 29 27 25 25 25 24 25 24 25 25 26 28 30 32 32 32 33
26 25 23 23 24 25 27 24 25 23 22 21 23 26 30 33 29 29 29 29 29 30 30 30 30 28 26 25 25 25 25 25 25 25 25 26 27 29 31 32 32 32 33
27 27 26 25 25 25 26 27 28 25 25 23 24 26 24 25 26 26 26 26 26 26 26 26 26 26 25 25 25 25 26 26 26 27 28 29 30 30 32 32 31 30 30
26 26 27 28 28 27 26 25 24 25 27 26 26 28 30 30 30 27 25 24 25 26 25 25 26 27 28 27 26 27 26 26 27 28 30 31 31 32 33 32 31 32 34
24 23 24 26 27 27 27 26 27 28 26 25 25 24 23 26 30 29 27 25 25 25 26 27 28 29 30 29 28 27 27 28 29 30 32 32 33 34 34 33 35 36 37
21 22 23 23 24 24 25 26 25 26 27 26 25 25 25 24 27 29 28 28 28 27 28 29 31 31 31 31 30 29 28 29 30 30 32 34 35 35 35 36 37 37 35
26 26 26 25 27 28 27 27 29 32 27 29 27 27 27 27 26 27 32 32 30 31 32 32 32 32 32 32 31 30 29 29 31 31 32 34 35 36 36 36 37 37 38

GFSMW_500_spd_081.txt.gz
Wind_Speed
60 55 54 51 48 46 44 41 39 39 40 40 41 41 40 39 38 37 37 37 35 35 35 35 35 35 35 35 36 37 38 39 40 40 42 44 42 46 47 45 42 43 45
62 59 55 53 49 48 47 45 43 42 43 43 43 41 41 41 39 39 39 38 39 38 38 39 38 38 38 38 39 40 42 42 42 45 46 47 46 49 44 40 41 44 46
61 61 56 52 50 49 48 47 45 42 45 44 45 44 39 41 42 41 41 40 40 41 42 42 42 41 41 42 43 44 44 43 46 47 48 51 53 48 44 38 41 44 46
57 59 55 55 51 51 49 49 47 48 42 42 41 42 41 43 41 41 42 43 44 45 45 45 44 44 45 46 47 48 47 48 49 48 49 53 51 45 41 39 43 45 46
59 57 55 52 55 51 49 49 48 46 47 48 45 45 45 45 46 46 45 46 47 47 47 47 47 48 48 50 51 51 49 49 51 50 52 48 46 41 41 42 45 46 45
59 52 54 51 51 52 55 53 50 49 51 50 50 50 51 51 50 50 50 50 51 50 50 51 51 53 54 53 53 52 51 51 50 52 49 46 42 41 44 46 45 45 43
60 62 55 54 50 49 50 51 52 56 59 56 55 55 55 56 56 56 56 54 54 55 55 56 56 55 55 55 54 54 52 52 49 48 45 42 42 44 46 46 45 43 41
41 48 63 66 62 55 54 56 57 58 57 55 57 58 60 60 59 59 59 58 58 56 55 55 57 56 55 55 54 54 52 51 47 45 44 43 44 45 46 46 44 42 40
43 43 46 47 59 60 62 57 53 50 52 53 55 53 53 53 53 53 51 52 53 55 55 54 53 53 55 54 53 51 49 45 44 43 42 43 45 47 47 45 42 41 38
35 35 44 47 39 53 55 53 54 54 56 56 54 52 50 50 50 50 52 53 52 52 52 54 54 54 53 51 49 46 44 43 42 42 43 45 48 47 45 42 40 39 39
27 33 35 36 39 42 47 53 54 51 54 55 54 54 54 53 53 54 52 53 54 55 53 52 52 51 50 49 46 43 42 40 42 44 45 48 46 44 41 39 37 38 39
18 24 30 35 41 45 47 44 52 54 61 65 62 61 57 55 54 54 55 55 54 53 52 52 52 50 49 47 45 44 42 42 43 45 46 45 42 40 38 38 38 40 39
18 19 22 27 30 35 41 47 47 47 57 64 63 61 57 56 57 58 57 56 55 54 54 54 52 49 48 47 46 43 42 43 44 46 43 41 39 38 36 38 38 39 36
24 23 21 23 26 31 37 40 43 44 46 48 51 53 54 54 54 54 54 53 53 52 53 51 48 48 47 44 43 42 43 42 43 42 41 38 37 37 37 35 34 34 34
28 27 25 23 24 26 31 38 42 44 46 45 45 45 46 47 49 51 53 55 54 51 49 46 46 44 44 44 43 44 43 44 45 40 36 36 36 35 33 32 31 32 31
30 31 28 28 29 28 30 33 36 38 39 42 43 43 45 46 46 46 47 47 46 45 44 43 43 40 43 45 43 47 45 38 35 37 36 33 32 30 29 30 29 28 29
32 32 33 34 33 29 28 30 32 34 36 38 39 41 42 43 46 47 46 47 48 45 42 41 41 41 42 43 46 42 37 39 36 34 30 29 27 29 28 28 28 29 29
34 34 36 35 36 34 29 29 30 31 33 35 38 41 45 45 42 43 45 45 43 44 47 41 40 41 45 49 37 35 37 35 29 29 28 28 27 27 28 27 28 29 30
37 38 37 35 35 31 30 33 35 34 34 36 38 38 40 39 39 35 36 38 40 40 41 46 48 45 35 35 35 33 29 28 29 28 27 27 26 26 27 28 29 29 31
40 41 39 35 32 33 29 29 27 28 27 26 27 29 29 32 33 33 27 29 29 32 35 29 29 29 32 29 28 27 29 29 28 27 26 27 26 26 27 28 29 30 31
30 30 33 33 28 25 25 26 27 29 26 26 25 23 23 23 27 32 32 33 33 32 28 26 28 26 28 28 28 28 29 28 27 27 27 27 27 28 28 30 31 32 32
28 28 27 29 29 29 30 30 30 29 29 27 25 24 25 25 27 25 26 30 28 25 25 26 26 27 27 27 27 27 27 27 27 27 28 29 29 30 31 31 33 33 33
32 32 32 32 32 33 34 34 31 28 27 26 26 26 28 30 26 25 27 30 29 27 26 24 23 23 24 24 26 26 27 27 28 29 30 30 29 30 32 32 34 35 35
31 31 31 30 30 31 33 34 32 29 29 29 28 29 28 26 26 25 23 25 27 29 27 25 24 24 25 26 27 28 29 29 29 31 31 30 30 30 32 33 35 35 36
27 27 28 28 29 29 29 29 29 29 29 29 29 28 28 29 27 25 25 25 29 27 27 27 27 27 28 28 30 30 31 31 31 32 32 30 29 29 31 34 36 37 38
27 26 27 27 27 27 28 29 29 28 28 28 30 34 32 30 30 28 27 27 26 25 30 31 27 28 30 31 32 32 31 32 33 33 33 31 30 31 33 35 37 38 39

GFSMW_500_spd_084.txt.gz
Wind_Speed
62 68 58 52 50 47 47 45 42 39 40 38 36 36 38 39 39 38 36 35 33 33 33 33 33 33 33 33 33 33 33 34 35 36 37 37 41 43 41 43 46 44 41
51 61 65 54 51 49 46 44 41 40 38 37 37 37 36 39 41 39 37 35 35 36 35 35 36 36 36 35 36 36 36 37 38 41 41 39 42 43 45 47 44 40 38
44 50 63 61 52 50 49 47 45 39 40 41 37 37 40 40 40 41 38 36 36 37 38 38 37 38 39 39 39 40 40 40 41 43 45 45 47 45 46 46 43 40 39
47 46 47 58 65 54 46 47 46 44 44 42 39 38 40 41 40 42 39 39 36 38 39 39 40 40 40 41 42 43 44 46 46 47 48 46 48 47 47 44 41 40 41
46 51 44 50 52 59 55 48 46 47 47 46 44 43 39 38 37 38 37 35 40 42 43 43 43 43 43 44 46 48 51 51 51 51 49 48 48 47 45 42 40 41 43
38 48 47 46 49 49 51 53 55 49 48 47 45 44 45 45 44 44 45 45 45 46 46 47 48 49 51 51 51 53 54 52 53 52 50 49 48 45 42 42 41 41 46
42 40 45 47 47 47 49 49 51 55 53 48 46 46 47 48 49 50 50 50 50 51 53 53 52 53 54 54 53 53 54 53 52 51 50 49 46 43 42 40 41 42 45
48 46 46 41 48 52 50 50 45 47 51 55 54 53 54 55 55 56 54 56 56 56 57 56 55 54 53 53 53 54 53 52 51 50 47 44 43 43 41 42 43 46 47
38 46 52 46 39 50 48 51 55 49 51 50 49 50 51 52 56 56 56 59 60 59 58 57 56 54 52 53 53 52 52 51 48 46 43 42 41 41 41 44 45 47 44
32 36 42 44 33 40 45 54 60 58 57 56 55 59 59 52 51 52 53 53 52 50 50 49 49 51 51 52 52 51 49 47 43 42 41 41 40 41 42 44 47 44 41
19 27 38 40 42 39 43 49 42 54 60 57 58 58 56 56 53 55 56 51 50 50 49 50 50 50 51 51 49 48 45 43 42 42 41 41 41 43 44 46 45 41 37
17 18 23 30 36 40 42 42 48 45 46 52 51 55 57 56 51 54 54 55 54 55 54 52 51 51 51 51 50 47 44 43 43 43 41 41 43 44 45 44 41 37 34
21 19 17 20 23 29 37 43 48 50 49 53 56 51 56 65 62 55 61 64 59 57 54 54 55 54 50 49 48 46 47 44 44 43 41 42 44 43 42 40 36 34 34
26 22 20 20 20 22 26 31 35 39 44 49 52 54 55 49 48 50 53 53 55 55 55 54 52 50 49 48 48 46 44 44 43 42 43 44 42 44 43 36 33 33 30
31 26 22 20 22 22 23 24 27 31 35 39 41 40 41 43 43 42 42 42 44 46 47 48 47 48 49 49 46 44 43 42 44 47 45 44 44 37 35 32 32 30 29
33 28 28 27 23 25 27 25 25 29 34 36 38 39 37 35 35 37 38 41 43 44 45 46 46 45 45 45 43 43 40 41 45 46 43 37 35 34 34 31 28 28 29
36 36 32 33 32 30 32 29 28 31 33 36 37 37 37 37 36 36 37 39 40 42 43 43 42 41 42 43 42 40 38 40 39 39 38 34 34 29 28 30 28 27 27
38 36 34 35 34 35 34 30 29 30 32 33 33 34 35 36 37 38 40 42 43 41 40 41 41 41 41 41 42 40 41 41 41 33 33 34 27 29 28 27 27 27 27
38 39 38 38 39 37 32 30 31 31 30 32 35 34 36 37 38 40 40 40 40 40 36 34 34 36 38 41 42 46 45 30 30 32 28 27 28 27 26 27 27 27 27
34 37 39 39 38 36 36 33 31 30 31 32 29 28 29 30 30 31 30 32 32 34 30 28 30 32 33 30 28 26 27 28 27 27 29 28 27 27 27 27 27 26 27
31 34 35 36 36 36 37 35 29 29 28 25 27 28 26 26 24 25 25 22 24 29 30 32 34 33 29 27 25 25 26 27 27 27 27 27 27 28 28 28 28 29 29
30 34 34 31 27 29 29 27 26 28 29 29 28 29 29 26 24 25 24 26 25 25 23 24 25 25 26 26 26 26 26 25 24 25 26 27 28 29 29 30 30 30 30
30 30 31 30 29 29 28 28 30 32 33 32 31 29 29 28 27 27 27 26 25 22 23 25 27 27 25 23 23 23 22 22 23 24 26 28 29 29 30 30 30 31 29
29 30 31 32 31 31 31 32 34 35 36 35 32 30 29 28 29 27 26 24 25 23 21 22 23 25 26 25 24 24 24 24 25 26 27 28 29 29 29 31 31 30 29
29 28 28 29 30 31 31 32 32 33 33 33 32 31 30 29 28 25 26 26 25 26 26 23 25 25 26 26 25 26 26 27 28 29 30 30 30 31 30 31 32 30 31
28 28 28 28 28 29 29 30 31 32 32 31 31 31 31 30 28 31 30 30 30 27 26 25 23 24 28 25 25 27 27 28 29 30 31 31 31 30 31 32 34 33 34

GFSMW_500_spd_087.txt.gz
Wind_Speed
48 48 53 57 57 58 54 49 47 42 41 41 42 39 37 37 39 40 39 37 35 32 33 32 31 31 30 30 29 29 29 29 31 30 32 32 36 37 40 38 39 39 39
46 46 51 57 52 58 59 52 49 49 47 41 40 37 36 37 37 39 37 35 35 36 34 33 34 33 32 32 32 32 32 32 33 35 35 35 37 40 41 41 41 42 40
45 48 49 54 55 53 62 54 52 46 52 42 40 38 37 37 38 38 37 37 38 39 38 37 34 33 34 34 34 34 34 34 35 38 41 43 41 42 42 42 42 41 40
41 42 49 53 54 56 57 60 47 45 45 40 38 37 35 37 35 33 34 34 32 33 42 40 37 36 35 36 37 37 37 39 42 44 46 46 46 46 43 43 43 42 38
39 38 49 44 46 51 56 56 62 47 46 45 45 43 41 39 39 38 36 34 33 33 32 38 42 38 40 40 41 43 46 46 48 48 47 47 47 46 43 43 43 40 39
32 36 43 50 44 44 49 50 53 56 49 47 43 45 44 45 45 43 43 40 39 39 40 40 40 43 45 46 46 48 50 51 50 49 48 48 47 44 45 42 40 39 39
30 37 39 41 46 45 45 45 46 50 54 59 55 48 47 46 48 47 46 45 46 45 46 46 47 48 49 50 54 56 54 51 50 50 50 49 47 45 43 39 38 38 39
30 35 44 41 43 43 45 45 46 48 48 50 49 53 56 50 49 48 50 51 50 50 50 52 52 55 59 57 57 58 56 54 51 48 48 47 46 43 40 38 38 37 39
34 35 36 45 45 39 38 42 50 50 51 48 47 48 50 52 56 55 52 54 55 52 53 56 57 58 58 57 56 54 52 49 48 47 46 45 42 39 38 37 38 39 39
30 34 35 37 40 44 46 46 43 50 51 49 52 50 46 50 52 49 50 51 52 51 52 51 50 52 52 50 49 48 49 48 47 45 43 41 39 39 38 38 40 41 41
19 22 24 29 38 40 40 46 46 45 47 49 53 65 60 57 55 54 55 57 54 54 53 53 53 53 50 50 50 50 49 48 47 46 42 39 38 38 40 41 42 43 43
19 19 18 16 23 35 40 39 38 41 46 52 48 48 57 63 65 60 58 57 57 54 52 52 54 53 54 54 54 53 50 50 49 47 44 41 39 41 43 42 43 44 43
23 21 20 18 17 21 26 38 38 43 45 50 47 48 47 57 64 65 62 49 54 67 60 60 59 57 56 57 56 53 52 50 48 46 45 43 40 43 42 43 45 42 39
30 27 23 21 20 20 19 23 29 33 39 43 46 49 48 46 51 51 53 55 55 55 53 52 52 52 52 52 54 54 52 50 50 48 45 43 43 42 44 46 44 41 34
28 28 25 22 20 22 24 23 23 25 29 31 32 35 39 40 40 40 41 43 47 48 46 43 42 44 46 47 48 48 48 46 46 46 45 45 44 42 43 39 33 31 32
29 29 31 28 27 25 23 26 28 28 26 26 27 29 32 35 38 38 36 38 38 38 37 37 40 42 44 45 45 45 46 46 43 43 43 40 41 35 33 31 34 34 32
30 30 31 30 32 30 29 29 30 31 30 29 28 29 31 36 38 37 36 36 36 37 37 38 41 42 43 44 43 42 41 41 40 39 37 37 38 36 37 34 29 28 28
32 34 34 34 32 32 34 33 33 34 32 32 31 31 32 33 35 35 35 37 38 39 39 40 39 39 39 40 41 39 38 39 40 40 38 38 39 35 31 30 29 28 26
33 35 38 38 38 38 39 39 38 35 33 32 32 33 32 33 35 36 37 38 39 40 40 39 40 39 36 34 33 33 32 33 38 40 41 41 33 28 29 30 28 25 26
32 34 35 36 37 37 39 42 40 37 34 32 31 33 35 34 33 31 31 31 30 31 32 33 33 33 33 31 31 31 31 31 31 28 26 27 27 28 30 28 25 25 25
32 31 30 29 30 30 31 34 36 36 36 33 34 34 31 27 29 29 28 28 28 27 24 24 24 26 26 30 31 31 28 28 27 26 26 27 28 27 25 24 25 25 26
32 32 31 30 30 30 30 31 31 32 31 31 32 32 30 28 28 29 30 28 27 26 27 25 27 26 21 21 23 24 26 25 25 25 26 27 26 26 24 23 24 26 28
30 30 30 30 30 29 30 34 30 29 28 29 31 32 31 29 27 27 29 29 27 29 28 26 25 24 24 22 21 23 24 23 24 24 25 25 24 23 24 25 27 28 28
29 30 30 30 30 29 29 28 28 29 31 31 32 33 33 31 30 28 28 29 29 27 25 24 24 23 22 20 19 21 22 24 25 24 26 26 26 27 28 28 28 28 29
30 29 29 30 30 29 28 29 30 31 31 31 30 30 31 31 30 29 30 30 30 26 25 25 25 25 25 24 23 21 23 24 26 27 28 28 29 30 30 29 29 29 28
31 30 28 29 30 30 29 28 28 29 29 30 29 29 29 29 30 31 31 31 28 28 27 27 30 27 26 23 24 27 27 26 24 25 27 28 27 28 28 30 31 30 31

GFSMW_500_spd_090.txt.gz
Wind_Speed
50 48 45 44 45 44 41 41 45 51 47 47 33 31 29 32 36 37 37 37 39 37 37 36 34 33 32 32 31 31 30 28 28 27 28 28 30 34 35 38 38 39 38
51 50 48 44 44 42 41 44 47 48 51 46 44 44 40 39 39 41 39 37 38 40 40 38 36 37 36 36 35 34 33 32 32 33 32 30 31 36 40 41 41 41 40
52 52 48 45 43 44 43 43 47 46 50 49 47 45 46 45 40 37 36 36 36 37 37 38 38 38 38 38 37 36 35 34 33 35 36 36 36 40 42 42 41 42 40
55 51 46 47 47 47 47 45 44 49 51 53 51 49 50 53 50 41 38 37 36 36 35 42 43 44 39 37 40 39 37 35 35 38 42 45 48 49 46 43 45 44 41
40 45 47 48 51 50 48 48 47 47 53 56 51 55 56 43 44 40 39 38 37 32 29 28 30 31 33 43 45 38 40 43 46 45 45 49 51 49 50 49 46 44 41
39 40 41 43 46 46 46 46 42 46 52 56 55 55 57 55 54 50 46 44 40 37 39 39 38 39 37 37 37 41 45 46 44 47 51 57 55 51 52 51 46 44 40
32 33 33 32 34 34 40 45 45 45 48 54 54 53 58 56 52 52 53 49 45 40 42 39 43 45 46 46 46 46 47 48 52 58 58 58 58 54 49 47 44 42 39
30 30 30 30 31 32 36 40 51 47 47 48 54 53 55 47 48 49 47 49 53 54 54 50 54 53 49 51 52 55 54 55 58 56 54 53 49 47 45 43 41 38 36
30 32 31 30 31 35 37 39 43 51 49 50 49 52 48 57 55 56 54 54 56 56 55 55 54 51 52 54 52 54 55 53 52 51 49 46 46 45 44 41 38 37 36
33 34 33 33 34 36 40 44 47 49 51 52 52 53 52 51 50 47 50 54 51 48 48 51 54 53 54 54 51 51 50 48 49 47 47 47 47 45 43 40 39 37 37
31 29 28 32 34 34 40 45 49 51 51 49 49 53 53 53 52 52 57 57 57 56 56 56 53 54 57 53 52 50 51 51 49 50 50 51 50 47 44 43 41 40 40
23 23 22 22 22 24 28 34 42 47 51 53 53 48 50 56 57 54 58 57 60 56 58 58 58 61 57 55 53 51 52 53 53 53 52 53 51 48 44 44 42 42 44
26 25 23 22 21 21 23 25 28 34 45 47 47 46 49 59 57 59 52 52 48 54 63 63 58 57 54 53 58 60 58 58 56 54 51 50 52 50 49 47 43 45 45
29 27 25 24 24 25 26 25 24 24 27 33 42 42 42 47 56 55 52 52 53 55 57 59 55 59 60 54 52 51 50 52 52 51 52 50 50 48 46 45 47 47 46
34 32 30 30 30 30 30 28 27 26 25 26 28 34 35 36 42 47 49 46 52 49 47 42 40 42 44 47 46 46 46 46 44 46 47 47 46 46 47 46 47 44 40
33 33 33 35 34 32 31 30 30 29 29 28 27 27 27 28 29 32 33 35 37 38 36 33 35 38 39 38 41 42 41 42 42 44 44 46 45 43 41 41 38 37 33
34 33 31 32 33 32 34 33 35 34 31 32 32 32 32 32 32 32 34 36 38 38 37 36 36 39 39 39 41 42 43 45 45 44 43 43 39 37 36 33 33 34 38
33 34 34 33 35 36 35 34 36 37 37 36 35 36 37 36 35 34 34 35 35 35 37 37 38 39 39 40 40 39 39 38 39 41 42 41 40 39 37 37 37 37 36
35 35 35 35 34 37 40 41 40 40 40 40 39 38 38 38 36 35 37 36 36 38 38 38 39 39 38 37 38 37 35 32 32 32 35 37 40 42 41 38 35 34 32
37 38 40 39 38 36 38 41 43 45 46 46 44 42 39 38 38 37 37 37 37 33 33 33 32 32 30 30 32 32 31 29 31 34 33 33 32 33 34 32 31 31 31
37 38 38 38 37 36 34 34 36 39 43 44 42 39 38 39 38 37 36 33 31 30 30 30 29 27 27 27 26 28 27 27 29 29 28 29 30 30 28 28 30 31 27
37 36 36 35 35 34 34 32 30 31 33 34 35 36 38 38 39 38 34 31 31 32 32 29 28 27 29 29 29 29 26 25 24 24 25 25 26 29 30 32 28 24 23
37 37 35 34 33 34 33 34 33 34 34 34 35 36 35 36 39 34 32 31 29 31 31 31 28 30 30 29 27 26 28 27 24 23 23 25 26 27 28 26 28 26 25
37 37 36 35 34 33 33 32 33 33 31 36 37 35 35 36 35 35 34 30 30 31 29 28 28 28 28 28 25 26 26 25 22 22 23 25 26 27 28 29 30 29 30
36 36 34 33 34 33 33 33 32 32 33 32 33 32 31 31 30 31 32 31 32 31 30 30 30 30 29 26 28 27 27 26 26 24 24 25 28 29 28 28 29 30 30
35 34 34 33 32 32 32 32 32 32 32 33 33 32 31 31 31 30 30 29 29 29 30 30 32 33 30 29 29 28 28 26 26 28 29 29 28 27 27 27 27 25 25

GFSMW_500_spd_093.txt.gz
Wind_Speed
48 45 40 39 43 43 39 34 33 31 31 33 22 28 33 33 28 33 32 29 30 30 33 35 36 36 37 37 37 37 37 35 35 33 32 30 32 33 34 34 35 38 41
45 44 47 44 41 38 33 34 31 32 34 35 35 32 37 39 35 31 31 32 34 37 37 39 40 39 38 39 39 41 40 36 37 36 34 32 31 34 35 36 40 44 46
51 48 47 47 45 41 40 38 34 34 34 33 36 37 37 40 39 43 39 37 34 36 40 42 45 46 44 39 40 42 41 38 37 39 41 37 34 35 37 40 43 46 48
52 47 47 48 46 44 41 38 36 34 34 37 38 37 40 44 43 42 45 43 41 38 41 39 37 35 38 40 42 42 41 39 39 41 42 40 39 42 44 46 49 52 54
56 53 49 49 48 45 42 39 38 38 37 39 42 40 41 43 44 46 46 44 44 48 49 47 35 30 26 32 36 40 43 42 44 45 45 48 50 49 46 48 55 60 56
52 53 57 59 52 48 43 41 44 44 44 41 40 41 44 46 46 42 42 41 43 48 45 45 44 39 36 30 34 37 38 37 39 40 43 45 46 49 54 56 61 58 53
39 35 37 43 48 48 49 47 48 49 44 43 41 39 44 47 49 45 45 43 43 47 49 52 50 41 33 36 34 37 48 48 50 49 51 54 54 56 57 60 54 51 46
33 36 39 42 45 46 48 45 43 42 41 42 43 43 45 44 48 53 50 46 52 50 45 43 44 45 45 50 47 47 50 50 49 52 56 55 54 56 54 49 46 44 43
33 34 35 36 37 39 41 41 42 43 42 43 45 48 46 49 52 52 52 51 45 45 45 51 56 54 54 52 49 52 50 50 53 54 54 54 50 48 48 45 45 45 43
31 33 33 33 36 39 42 42 42 44 45 45 47 49 52 55 55 55 54 58 55 59 54 51 48 48 48 44 46 45 47 50 51 52 51 49 49 49 48 48 48 48 46
35 37 38 39 40 42 42 43 44 45 46 49 51 53 51 54 56 56 58 57 57 48 47 50 52 53 54 53 57 51 51 52 53 52 52 53 52 51 52 51 51 48 45
37 36 36 38 41 42 43 43 45 46 46 47 50 53 54 55 54 55 55 61 61 61 53 54 52 48 50 56 57 56 57 61 57 58 56 56 56 57 54 51 49 46 45
34 35 36 36 35 35 36 36 36 36 35 36 39 44 51 56 58 56 57 53 57 59 56 62 63 62 57 53 56 55 56 59 60 61 60 55 54 53 49 50 50 50 48
35 36 36 36 35 34 32 32 31 29 28 28 30 33 38 45 50 52 52 50 54 60 67 58 54 51 53 51 51 55 55 53 52 51 52 53 52 49 48 47 47 47 48
39 38 39 38 36 34 34 33 33 32 32 31 30 30 28 30 40 45 48 50 49 47 50 49 45 45 43 44 43 48 48 48 47 47 48 49 49 46 45 46 46 47 46
40 39 40 40 40 39 39 38 37 36 37 36 34 32 32 29 29 31 34 33 32 33 33 35 37 39 39 39 39 39 40 40 42 42 44 45 45 45 45 44 44 42 40
34 36 41 42 43 42 42 41 41 39 39 39 37 35 35 34 33 32 31 31 31 31 32 33 34 36 36 36 37 38 38 40 41 42 42 41 41 41 41 42 43 40 37
35 36 36 36 38 39 41 42 41 41 41 42 44 42 41 39 37 37 36 37 37 35 35 34 33 33 35 37 38 39 39 38 38 39 40 39 37 36 36 38 41 39 38
42 40 40 40 39 41 42 43 43 42 43 43 45 46 45 44 43 42 42 41 41 40 39 37 37 39 40 38 38 37 36 36 36 36 36 33 31 32 34 36 36 40 39
45 44 44 44 44 44 42 42 44 46 47 48 49 48 48 48 47 45 43 41 42 41 40 38 38 37 36 34 33 31 30 30 29 29 30 31 33 33 33 31 32 31 34
47 48 48 48 48 48 47 47 46 46 46 46 49 50 51 50 49 48 45 43 43 41 39 38 36 34 33 31 31 30 30 30 29 28 28 28 28 27 27 28 29 30 30
47 47 46 45 45 46 45 44 42 43 43 41 40 41 42 43 43 44 44 43 43 42 40 37 36 35 34 30 31 30 31 30 28 31 31 30 27 26 25 25 28 28 30
43 47 46 44 43 43 42 41 40 41 41 38 36 37 38 39 40 41 41 43 42 41 39 37 34 34 34 33 32 32 29 29 29 27 29 30 30 27 26 26 26 26 28
45 41 43 44 41 40 39 39 39 39 39 39 37 36 38 39 40 40 39 42 43 43 41 36 33 33 32 31 30 30 29 30 29 28 28 28 27 26 25 26 26 27 31
39 36 34 38 39 37 37 38 38 38 37 37 37 36 32 31 33 37 38 39 38 36 31 32 32 32 32 32 31 31 30 30 29 28 28 28 26 27 26 26 27 29 32
35 35 30 31 33 34 35 34 34 35 36 37 37 37 37 39 42 40 35 33 31 30 30 31 32 32 32 31 32 31 31 31 30 29 30 28 28 30 28 28 27 28 29

GFSMW_500_spd_096.txt.gz
Wind_Speed
39 37 33 29 30 33 30 27 31 28 19 9 33 32 33 33 31 33 34 37 31 30 30 29 30 33 34 34 36 37 37 38 39 39 37 35 35 35 36 36 36 37 37
40 38 36 36 34 31 32 32 30 29 19 19 26 33 30 18 28 34 35 25 24 32 36 33 33 36 40 40 41 42 41 41 41 40 37 34 36 37 38 38 37 40 40
42 40 36 35 34 36 31 31 27 25 24 23 24 23 19 24 18 29 32 32 30 31 36 37 37 39 40 42 48 50 49 44 42 42 39 37 36 38 38 39 41 41 42
48 46 43 39 36 36 36 31 36 28 31 26 24 23 28 28 28 25 26 30 32 34 37 39 42 41 37 33 38 37 46 51 50 43 43 40 39 40 38 39 43 47 47
47 47 46 45 43 40 39 37 37 31 31 28 30 29 32 30 31 30 31 33 35 34 37 41 36 40 42 37 32 33 39 42 39 35 38 41 42 39 37 41 43 43 47
45 47 45 45 44 42 39 38 39 35 35 34 34 31 32 33 34 33 31 34 36 37 34 37 41 37 35 37 41 37 35 35 34 34 36 38 39 44 47 48 49 52 54
49 47 45 44 45 45 46 45 43 40 40 38 39 38 38 38 36 30 33 34 39 31 43 45 39 43 43 41 46 50 45 36 38 37 41 44 45 49 49 50 53 52 52
39 47 48 46 45 46 49 51 48 48 46 46 44 43 44 40 38 36 34 33 38 41 45 42 45 43 46 44 44 42 41 44 42 42 44 47 48 49 50 51 51 49 48
26 30 36 37 39 36 35 36 39 44 45 45 46 43 40 40 40 39 38 39 42 44 50 51 55 47 35 43 45 46 49 45 44 45 44 46 48 46 47 49 47 47 45
33 33 33 37 41 40 39 38 39 39 41 41 42 41 42 43 44 45 46 46 45 50 54 56 57 60 62 58 53 48 45 46 43 43 47 46 47 46 48 48 48 49 50
40 36 36 37 38 36 35 36 38 39 41 42 42 44 46 47 47 48 50 53 55 58 61 60 59 58 58 48 48 50 47 46 49 51 51 53 54 54 55 52 52 52 54
40 39 37 34 36 37 37 39 42 43 44 45 45 48 49 49 52 54 56 57 58 57 58 62 62 62 61 63 59 54 53 53 54 55 55 54 54 55 54 53 55 51 50
36 39 39 39 40 41 44 45 46 47 48 49 48 50 53 54 55 57 57 58 57 58 57 56 55 55 51 54 56 56 53 47 48 50 51 50 49 47 50 50 47 47 48
39 39 43 43 43 44 45 48 49 50 49 50 51 52 50 47 43 39 41 45 49 50 55 54 52 55 53 52 51 51 48 45 45 42 44 48 48 46 47 48 49 49 49
42 42 43 43 45 46 48 50 50 48 47 46 44 42 39 37 33 33 34 33 36 38 47 43 45 46 43 42 39 37 36 35 37 38 39 41 44 44 45 45 46 46 47
46 46 47 48 49 49 49 49 49 48 46 43 42 40 39 37 36 36 35 33 32 33 35 36 37 36 32 32 32 33 32 33 36 38 40 41 43 42 43 43 43 43 42
45 50 51 51 51 51 51 51 52 51 49 47 46 44 42 40 39 40 38 37 35 33 32 33 33 32 31 32 32 32 32 34 36 37 38 40 40 41 41 40 39 38 37
42 43 46 49 48 50 53 55 55 54 52 50 48 47 46 44 43 43 42 40 40 39 37 36 36 37 37 36 35 36 37 39 39 38 38 37 37 37 37 36 35 32 30
48 50 50 48 47 48 49 47 48 49 49 48 48 48 48 48 48 47 46 46 45 44 44 42 41 41 40 39 39 39 39 39 36 34 32 32 32 32 32 31 32 32 31
53 54 55 54 55 55 51 47 47 48 48 48 47 44 44 46 47 48 48 49 48 47 46 44 43 42 42 42 39 38 36 35 33 31 30 29 29 29 29 30 31 29 26
51 55 56 54 55 55 53 51 49 47 48 47 47 46 46 47 47 49 51 51 51 50 49 48 45 43 43 43 40 39 36 34 32 29 30 30 30 28 28 28 26 25 24
51 50 50 50 52 53 54 53 51 50 48 48 47 47 48 48 47 45 46 48 48 49 48 47 45 44 43 42 40 38 37 34 33 32 33 28 27 27 28 28 27 25 24
58 55 55 50 45 42 47 50 50 48 46 45 46 45 43 43 43 42 42 44 45 44 44 44 44 45 43 41 41 38 34 34 34 32 29 28 28 27 26 26 27 25 24
66 66 58 55 48 44 44 45 46 46 44 43 44 44 42 41 41 42 41 41 41 40 39 41 41 40 39 41 42 35 32 33 31 30 29 28 27 28 29 26 24 24 24
37 51 61 54 45 41 43 43 43 42 40 40 41 40 40 40 39 39 39 37 38 37 36 37 39 39 41 41 41 35 33 31 31 30 30 29 27 27 27 27 27 26 24
33 35 31 35 33 34 33 36 38 38 36 37 38 38 37 37 38 38 35 40 36 36 36 39 38 35 33 32 32 32 32 32 29 30 31 29 28 28 27 27 25 26 26

GFSMW_500_spd_099.txt.gz
Wind_Speed
40 43 44 34 36 37 29 31 24 24 22 34 36 36 35 42 38 40 34 34 31 34 36 33 33 32 32 33 31 31 34 37 39 40 41 40 38 37 36 36 37 37 38
51 39 30 34 29 31 26 27 25 27 30 29 24 39 39 39 31 36 40 34 36 37 36 37 38 39 39 39 37 35 37 41 46 47 46 42 41 41 40 39 39 39 40
39 41 35 36 25 28 24 25 22 24 24 24 23 26 40 37 41 29 35 38 39 37 34 31 34 33 34 37 41 41 35 28 35 45 46 48 43 42 41 42 41 40 41
34 32 32 23 24 28 30 23 16 21 19 21 22 25 25 31 29 30 25 31 38 39 40 35 33 36 35 35 37 31 33 35 35 38 39 40 44 45 42 44 40 42 46
40 36 34 29 26 28 26 24 26 23 22 22 22 19 23 25 24 27 25 24 27 30 40 36 36 38 42 40 41 36 35 36 34 36 39 41 39 38 37 33 34 33 37
35 38 36 36 36 36 35 33 31 28 23 24 26 26 27 24 25 24 26 27 24 21 27 34 34 33 39 46 43 37 36 35 38 38 40 38 37 38 37 36 43 43 45
30 31 32 33 34 36 36 37 38 36 29 26 29 31 30 33 30 29 28 25 23 28 29 28 30 35 49 50 35 45 45 42 41 44 42 47 39 38 42 45 46 45 43
32 36 39 37 33 33 33 33 34 37 35 36 39 37 36 37 33 33 33 30 28 31 30 33 33 39 37 44 47 43 39 34 39 44 42 42 44 48 44 45 47 45 40
25 22 25 34 39 41 43 43 41 41 42 44 47 46 43 41 39 37 38 33 32 32 33 38 42 43 43 48 49 55 52 46 47 45 49 51 45 44 39 40 42 42 43
21 23 23 24 29 34 39 40 39 37 34 36 38 39 40 40 39 37 36 37 37 38 39 43 44 47 51 53 55 59 58 55 60 57 50 51 46 41 45 48 46 47 49
27 27 27 26 27 29 34 38 39 38 36 36 35 36 37 38 38 40 39 40 43 45 46 47 49 52 56 60 62 64 62 60 57 55 54 51 46 42 45 49 51 51 51
24 27 30 33 33 33 33 35 37 37 38 38 39 39 38 39 39 41 44 45 48 48 50 53 55 57 59 62 63 64 61 60 55 50 53 49 51 48 46 46 47 47 49
28 31 33 35 37 37 37 38 39 41 41 43 43 42 43 43 44 46 48 48 49 51 51 53 50 49 55 58 58 58 56 54 54 49 51 43 44 47 45 42 48 49 49
33 36 40 41 40 41 43 44 44 44 45 46 46 46 47 47 46 47 48 47 45 43 39 37 36 35 36 43 47 47 45 44 43 41 41 38 38 42 43 44 43 43 46
39 40 43 47 48 48 47 48 49 49 50 49 48 46 45 46 46 45 42 39 37 35 34 31 29 30 32 34 37 39 38 36 34 35 36 37 37 38 39 39 41 42 43
45 50 51 51 52 55 56 56 55 53 51 50 49 48 46 44 43 40 39 37 36 35 35 35 31 29 28 29 30 30 29 29 30 32 32 33 34 35 36 38 40 42 41
37 39 45 53 55 56 57 58 61 62 59 56 54 51 49 47 45 43 42 41 39 38 38 37 34 33 33 33 33 34 33 33 34 34 36 38 37 36 38 38 38 37 36
42 45 46 48 51 56 60 62 61 60 59 58 57 57 54 52 50 49 47 45 43 41 42 40 39 39 39 39 39 39 38 38 37 38 39 39 36 34 34 33 32 34 34
44 48 49 52 56 58 60 59 61 62 59 59 60 60 59 57 55 53 52 50 49 49 48 45 44 44 44 43 43 43 42 40 39 39 39 37 34 33 31 30 30 28 26
47 50 59 58 59 58 61 60 61 59 61 59 59 61 62 61 57 56 55 54 54 52 50 48 46 46 46 45 44 44 43 40 39 39 38 37 35 32 30 31 29 26 25
47 57 63 70 67 59 56 59 58 58 60 59 56 54 54 53 52 51 49 50 49 48 48 47 47 47 48 48 47 46 44 41 39 39 37 36 34 32 31 29 28 28 26
59 67 72 76 69 64 60 54 53 54 56 57 56 55 54 53 50 49 49 48 47 45 45 46 48 49 49 50 49 48 46 43 42 40 38 37 34 32 31 28 25 24 22
64 72 74 70 73 71 64 55 52 49 48 50 51 51 52 51 50 47 46 45 45 45 46 44 44 45 47 47 46 43 41 40 40 39 39 35 32 31 29 27 25 24 22
64 62 44 39 37 45 61 59 51 50 41 39 42 45 45 46 46 44 43 42 42 42 41 41 39 39 40 40 39 38 37 36 36 38 36 33 30 29 28 26 25 24 23
65 46 38 40 39 40 34 37 47 45 39 34 35 38 40 41 43 41 40 41 41 40 39 37 37 37 36 37 36 36 36 36 37 38 36 29 30 28 28 27 25 24 23
50 40 35 39 36 32 29 27 35 33 31 33 34 36 37 40 38 34 37 38 39 39 38 38 35 33 35 32 33 35 36 34 32 33 32 30 28 29 29 26 25 25 25

GFSMW_500_spd_102.txt.gz
Wind_Speed
29 30 26 21 24 26 32 39 45 47 42 45 44 55 56 59 53 54 50 44 43 41 38 37 32 31 32 33 32 34 36 36 36 37 38 38 39 42 42 41 39 39 39
31 35 37 31 41 32 33 42 40 33 38 45 42 52 48 50 60 57 43 46 47 46 38 37 35 34 38 41 42 42 43 42 40 40 42 42 43 45 47 47 45 44 41
35 35 41 46 33 37 44 37 39 41 42 49 32 38 40 39 51 54 46 44 44 40 36 37 40 39 40 41 42 40 43 40 40 45 45 38 36 38 40 42 43 46 44
35 30 39 45 33 23 36 34 33 32 26 26 32 31 29 34 45 48 44 44 42 42 39 36 39 35 35 39 40 41 42 40 36 37 36 40 38 38 38 42 44 42 44
31 29 20 27 16 19 27 21 23 31 37 23 27 28 26 21 34 50 36 44 44 37 42 45 35 43 39 39 45 49 44 40 44 38 38 36 37 40 38 39 42 44 41
31 27 23 19 18 14 14 13 17 30 23 25 20 24 22 22 18 32 40 22 34 30 30 31 36 42 45 49 39 41 38 40 41 39 41 40 41 43 41 41 43 39 36
29 30 25 23 27 24 23 23 23 25 28 30 22 22 21 20 22 24 25 22 22 25 25 29 24 28 26 28 33 35 32 32 33 32 32 34 32 35 39 45 47 43 43
31 28 27 23 23 25 24 28 31 30 30 32 30 30 28 27 25 27 24 23 24 27 25 25 23 30 31 32 31 32 39 36 41 44 47 47 37 48 43 46 48 46 52
22 26 23 23 27 27 29 28 29 31 31 31 31 33 34 35 35 35 32 31 31 31 31 33 32 33 34 35 40 40 42 44 44 47 50 48 50 52 54 51 57 59 54
33 31 31 25 23 25 28 31 35 35 35 37 38 38 39 41 41 40 41 40 38 37 36 38 37 37 36 36 41 43 47 50 53 55 56 57 56 56 53 52 47 52 54
22 22 22 21 22 24 26 28 32 36 38 38 39 38 39 38 38 39 40 41 40 39 39 39 39 39 40 42 44 47 49 51 56 58 58 57 55 52 46 48 51 46 51
16 20 23 24 26 28 29 30 30 30 32 35 37 39 41 39 37 35 37 39 41 40 40 40 40 41 44 46 48 49 52 54 54 57 60 59 54 48 49 46 46 45 44
17 21 26 28 28 29 32 34 36 37 36 36 38 40 42 41 41 40 41 41 42 42 41 42 43 44 46 47 47 47 44 41 43 45 45 43 44 44 45 45 44 43 45
27 28 28 30 35 37 39 40 41 40 41 42 42 44 44 44 43 44 44 45 47 45 44 44 45 45 43 42 41 38 35 34 35 36 36 39 36 37 39 41 43 44 44
40 39 39 41 42 42 43 45 47 48 48 48 48 49 48 49 49 49 48 47 47 47 44 44 42 40 38 35 36 34 31 29 28 29 29 30 32 33 35 36 36 37 37
35 41 46 47 48 52 53 53 54 54 55 56 53 53 53 54 53 51 49 49 45 44 42 42 41 39 38 37 36 33 32 30 28 28 28 30 32 33 35 37 38 37 38
37 41 45 48 50 53 52 53 56 57 57 58 57 58 58 56 55 53 52 50 48 46 45 43 41 41 40 39 37 37 37 35 34 34 34 35 37 38 38 38 38 36 36
33 39 46 48 50 55 60 62 60 58 58 59 60 61 60 58 57 56 54 53 50 50 48 47 46 45 43 43 40 39 40 38 38 39 39 39 40 39 38 37 36 35 34
40 46 50 54 57 60 60 59 59 66 67 62 60 59 60 62 61 57 55 56 55 53 51 50 48 48 45 45 43 41 41 40 42 45 41 39 38 38 37 37 36 35 33
41 46 54 60 67 70 70 74 73 68 65 67 69 65 61 57 57 58 61 59 57 56 53 53 52 50 49 48 46 45 43 44 43 43 41 40 39 39 37 37 37 34 33
49 52 57 63 70 72 77 80 81 79 75 68 66 65 63 64 56 55 51 52 53 53 53 52 52 52 50 47 47 46 44 44 45 44 43 42 42 41 39 39 37 35 32
47 54 61 65 69 76 83 85 87 89 87 75 62 59 62 57 64 53 55 51 51 50 49 48 49 48 47 46 46 47 47 45 45 44 43 42 42 41 39 40 38 35 30
44 54 60 63 67 79 68 53 51 54 58 68 60 58 57 54 51 57 49 50 46 46 44 45 44 44 44 44 43 41 42 41 40 39 39 39 40 40 39 37 34 32 30
45 52 59 59 69 55 49 44 51 47 41 44 50 56 51 46 48 47 46 49 44 45 43 42 41 41 41 40 38 39 39 37 36 35 36 38 38 35 34 34 32 31 28
47 53 58 55 53 41 51 49 39 39 38 42 42 47 45 39 42 40 43 45 42 43 41 41 41 41 38 38 37 36 35 34 34 35 35 34 34 35 34 30 30 29 28
46 53 53 56 46 40 46 42 25 27 30 40 33 39 37 32 35 38 36 41 41 40 40 41 41 39 38 37 35 36 34 34 32 32 33 33 32 31 31 33 31 27 27

GFSMW_500_spd_105.txt.gz
Wind_Speed
49 63 20 15 18 17 22 22 30 41 46 45 63 62 57 53 55 54 53 53 54 54 56 42 39 41 38 37 36 33 33 36 37 37 39 39 38 38 38 39 38 43 43
47 54 28 22 22 29 31 34 42 40 52 47 40 62 58 58 56 58 59 57 60 60 52 41 40 40 41 37 37 37 36 37 37 38 41 41 41 41 41 41 44 41 38
62 43 24 31 34 33 30 34 35 37 55 53 34 35 55 52 56 56 56 54 55 55 52 39 42 42 46 42 40 38 38 39 40 40 40 42 41 40 42 41 36 38 39
56 40 29 30 39 32 40 27 32 39 55 48 41 33 32 38 40 47 48 51 51 53 49 41 47 48 45 37 36 39 39 43 38 41 42 39 39 36 34 34 36 36 41
54 46 28 19 33 35 31 36 34 34 37 41 44 40 46 41 38 49 46 49 52 54 50 45 50 43 41 40 43 42 40 38 34 42 43 42 37 39 34 37 37 37 38
33 44 28 20 22 21 25 40 42 35 33 34 31 33 31 41 37 37 30 39 56 55 44 46 43 48 48 46 49 44 42 46 41 39 37 38 28 24 27 28 31 30 31
28 26 27 17 16 19 15 17 22 21 24 31 18 21 19 25 27 28 27 21 40 57 33 41 41 36 37 33 27 28 30 29 37 38 24 30 34 35 35 37 40 40 43
35 24 18 15 12 13 13 14 16 12 17 19 13 18 15 15 17 22 27 21 19 23 33 28 24 26 27 31 26 28 25 24 26 25 29 32 35 38 40 40 43 45 48
17 22 15 11 13 8 13 14 15 20 21 23 29 23 23 25 24 27 26 23 26 24 24 28 29 27 30 33 32 31 29 30 31 32 35 37 37 40 45 48 49 48 48
19 14 12 11 11 12 17 20 22 21 22 25 28 28 27 29 30 33 34 34 35 35 33 34 37 36 38 39 37 35 33 34 36 36 38 39 40 42 44 47 50 48 47
10 14 17 18 17 17 17 19 25 25 26 29 32 33 34 36 37 39 41 40 39 40 41 43 45 43 42 43 41 37 37 36 39 40 41 44 46 46 48 50 53 47 40
6 10 12 15 18 19 20 21 23 25 26 29 30 33 37 39 39 41 42 40 42 42 44 44 47 45 45 41 40 39 39 39 41 44 44 46 46 46 45 48 48 47 41
7 11 12 16 20 21 22 22 25 28 31 32 34 35 36 36 37 40 42 41 40 40 39 41 43 45 43 41 42 40 40 40 43 42 43 41 38 37 36 38 36 34 36
21 26 26 31 33 34 33 35 36 37 37 38 40 40 40 42 43 42 43 44 44 44 44 44 44 46 44 44 43 42 41 40 41 39 39 35 30 29 29 28 26 27 29
18 21 25 28 31 33 36 39 42 43 45 46 46 47 48 49 49 48 49 49 49 48 48 47 48 47 45 45 44 42 39 40 39 38 35 33 31 28 27 25 27 31 35
21 21 24 27 29 33 36 39 41 46 50 53 53 53 53 53 54 55 56 54 53 52 51 51 49 48 48 47 44 43 40 39 37 35 36 34 34 34 33 34 35 36 36
28 31 34 35 38 42 44 47 49 45 46 49 56 59 61 60 59 58 58 57 58 57 54 52 52 51 48 47 45 43 41 41 40 38 38 39 39 39 37 37 38 39 40
32 39 42 45 49 52 55 56 56 61 62 55 51 55 60 63 64 64 60 59 59 58 57 56 53 52 51 49 48 45 45 43 42 42 41 42 42 42 42 42 42 37 37
28 31 36 42 45 51 55 58 65 74 76 77 71 65 61 59 60 64 65 67 62 59 58 56 54 53 53 52 50 49 46 44 44 43 44 45 44 43 42 43 41 38 36
32 34 37 42 47 52 56 56 62 69 83 88 86 87 82 70 65 63 61 65 65 67 62 59 58 58 55 54 52 50 47 46 46 47 46 46 45 44 41 41 40 39 39
37 39 43 45 48 53 56 61 73 85 90 90 89 89 88 86 81 75 68 63 60 62 64 64 60 58 57 57 55 53 51 48 48 46 47 43 43 42 41 40 40 40 40
40 42 42 46 48 54 66 75 83 86 84 85 86 86 83 80 69 60 60 58 56 57 59 63 61 57 56 54 54 52 50 49 46 45 43 43 43 41 40 39 38 37 38
43 44 45 44 50 61 74 81 79 74 73 77 68 68 69 62 58 59 62 57 55 53 54 55 58 53 52 51 50 49 49 46 44 43 42 41 38 39 37 34 34 36 37
46 47 46 46 56 72 78 74 70 68 64 60 70 64 61 55 47 56 59 55 53 48 52 55 53 54 48 47 46 44 43 43 41 39 39 38 37 36 32 31 32 32 32
48 49 48 51 63 73 70 64 60 55 52 61 48 40 39 40 41 50 48 45 46 44 44 39 44 51 43 42 42 44 43 40 38 38 37 36 35 32 30 31 31 33 32
54 54 51 57 66 70 68 62 56 44 46 49 35 32 30 34 32 35 37 37 41 43 41 37 39 47 42 40 42 43 39 37 37 36 36 34 33 31 31 32 31 30 29

GFSMW_500_spd_108.txt.gz
Wind_Speed
44 38 24 50 18 38 60 48 39 54 48 38 59 65 66 62 53 52 48 49 47 47 48 47 46 45 44 46 45 38 38 39 37 34 35 37 36 36 37 38 38 37 38
50 36 35 36 24 18 37 55 51 39 37 39 40 66 73 64 58 56 54 52 51 52 52 50 53 49 49 51 46 40 39 39 37 35 39 38 40 36 39 40 39 41 43
46 32 38 31 32 22 29 36 37 36 36 40 37 44 46 62 60 57 58 57 55 55 54 53 52 55 59 52 37 41 42 44 38 38 38 38 38 36 36 37 35 36 34
38 32 35 37 24 21 36 33 40 35 38 47 42 39 43 38 38 35 46 53 48 53 59 54 57 56 51 49 42 44 29 26 36 39 35 40 40 40 40 38 36 36 32
38 30 26 36 21 25 31 29 39 39 38 39 43 43 41 42 47 41 53 35 43 40 48 48 46 39 49 45 43 46 46 42 42 37 33 32 39 43 43 41 42 25 26
38 34 25 29 29 16 29 22 32 35 30 40 42 40 37 35 34 31 49 47 46 52 56 57 52 46 43 41 46 52 49 40 46 45 49 46 39 39 28 27 24 19 22
31 23 28 19 10 16 21 23 27 33 28 30 33 42 31 32 44 44 42 35 38 39 45 43 43 50 49 47 40 42 42 35 34 41 44 46 42 44 25 19 23 27 31
18 17 20 11 16 15 10 25 16 19 25 18 24 29 17 26 18 46 49 56 43 37 37 35 41 44 45 43 34 39 29 31 29 20 16 20 21 28 29 25 29 32 33
10 12 4 1 1 5 8 5 4 4 4 13 11 14 15 15 18 16 22 19 24 24 22 27 23 28 31 30 34 28 34 30 30 31 20 22 26 27 27 27 30 33 35
9 5 5 1 3 4 8 14 18 16 14 16 19 16 13 14 20 21 24 28 31 29 28 29 26 26 32 31 31 31 34 34 34 32 28 28 29 30 31 34 35 34 33
3 5 4 0 3 7 10 11 9 11 15 17 18 21 22 23 23 27 27 27 29 30 31 33 34 37 36 38 40 41 41 41 39 36 35 32 34 36 37 36 38 36 36
16 13 10 7 7 7 8 9 12 14 17 19 21 23 25 27 29 33 34 35 40 39 38 40 42 44 45 47 47 49 48 44 43 39 38 36 33 36 36 37 37 37 36
5 4 6 9 9 11 14 18 21 21 22 24 26 26 27 30 31 32 34 39 42 42 43 44 41 42 46 49 51 50 49 46 44 41 39 37 35 34 35 35 36 34 30
5 7 11 12 14 17 19 21 24 27 29 31 34 37 39 40 39 39 39 41 42 42 43 46 46 46 45 45 46 48 47 45 42 40 41 38 35 33 34 34 35 32 28
9 9 6 8 11 13 18 20 22 25 30 34 38 41 44 46 47 48 48 48 49 48 48 48 48 46 46 48 49 48 44 45 43 43 41 39 37 35 36 32 32 30 30
9 11 13 16 19 22 27 29 31 34 37 39 41 42 41 44 49 53 56 56 56 56 55 53 51 50 49 49 50 50 47 46 46 45 42 42 40 37 35 33 32 33 35
21 22 24 24 27 31 33 37 41 46 46 48 49 52 53 51 51 51 52 57 59 60 61 60 56 52 51 51 50 52 50 48 48 45 44 44 44 41 38 37 38 37 39
24 25 27 31 34 37 40 43 48 51 54 56 58 59 59 61 63 61 58 54 56 58 60 62 63 59 53 52 52 53 52 51 50 48 48 48 46 44 42 41 41 41 42
32 34 36 39 44 49 54 58 58 59 61 63 64 67 71 73 75 75 72 67 62 62 63 64 61 62 60 57 55 54 52 52 51 50 49 47 47 45 44 43 44 43 43
38 43 47 51 55 59 63 67 67 65 67 70 74 76 81 84 84 81 78 72 64 60 61 60 65 61 60 61 60 55 53 53 52 50 47 45 46 45 43 45 45 44 42
38 45 48 52 59 63 65 66 68 71 76 81 86 87 86 81 79 79 74 70 66 61 58 58 60 64 60 60 62 60 59 54 50 49 47 46 45 44 44 45 45 43 40
38 41 46 53 58 63 66 68 74 78 83 88 90 90 86 80 74 73 69 66 63 56 52 57 59 60 62 60 57 62 61 59 55 51 48 46 47 46 45 42 42 41 41
44 49 55 59 62 67 70 65 69 78 82 82 81 79 77 69 64 63 61 61 62 58 58 53 63 61 58 59 56 58 62 60 56 53 51 52 50 49 46 43 41 41 39
51 56 61 65 71 72 64 63 69 74 72 71 69 63 56 58 58 63 66 64 61 59 55 53 62 67 62 54 55 55 52 56 57 53 52 51 50 48 45 41 41 38 34
55 61 65 72 73 67 61 58 61 63 64 64 58 48 55 51 56 48 41 37 37 44 48 49 64 64 63 51 49 52 49 50 51 52 52 50 49 46 43 41 39 35 33
62 67 73 76 74 68 61 58 60 61 60 57 49 46 38 44 38 31 26 25 29 39 44 43 52 56 55 48 46 46 48 48 45 46 44 43 44 43 40 40 35 32 31

GFSMW_500_spd_111.txt.gz
Wind_Speed
53 51 51 48 50 47 44 30 33 65 63 56 58 76 62 68 69 60 57 54 52 50 49 49 46 45 44 43 42 43 41 42 39 39 35 39 36 38 32 37 35 36 37
43 43 46 43 41 34 37 22 33 57 48 42 52 54 45 53 59 58 56 55 54 54 54 50 49 48 44 45 49 47 46 44 46 51 44 38 39 37 36 38 40 40 37
31 32 33 34 30 35 31 22 27 56 42 48 48 47 40 41 55 57 55 51 58 59 57 58 56 51 49 48 43 49 51 48 52 53 39 40 43 39 37 39 40 34 36
26 27 32 33 32 40 27 30 32 42 57 51 52 42 43 44 46 47 48 51 49 59 57 52 57 56 53 54 50 50 49 46 49 48 43 34 35 36 35 38 41 39 36
27 34 38 33 23 33 32 31 31 38 44 46 41 43 41 42 48 56 58 46 61 59 59 57 52 38 33 41 37 46 50 48 45 42 34 31 35 35 40 37 39 43 43
35 33 25 5 15 25 14 22 28 27 33 32 35 40 39 39 38 39 41 37 32 28 36 43 46 49 48 45 51 55 51 45 38 46 48 40 38 40 48 44 39 38 32
32 22 8 17 11 4 19 21 15 25 28 24 37 39 40 36 40 40 35 38 39 43 35 42 52 50 50 50 51 52 48 45 43 40 39 34 48 41 45 49 48 39 28
24 18 23 6 8 5 17 27 27 25 30 28 30 35 35 30 42 31 39 41 37 41 42 38 39 34 42 39 40 44 49 47 48 44 34 36 44 38 32 34 19 17 16
8 22 22 14 13 9 12 14 17 19 19 13 17 23 29 34 21 21 38 45 37 36 42 51 48 42 41 42 36 39 38 39 41 40 30 31 27 23 25 19 22 22 22
21 20 19 17 14 8 12 7 6 13 10 8 3 6 12 16 16 16 11 25 30 30 25 37 44 37 36 29 29 36 37 36 36 34 32 26 28 27 25 28 25 24 29
17 20 17 18 19 16 13 11 12 13 14 16 17 19 17 19 20 20 20 18 19 24 31 33 34 37 37 37 35 32 35 39 38 36 37 35 35 36 34 33 30 30 30
26 23 21 17 11 8 6 3 3 4 5 6 8 11 16 19 22 24 27 29 27 28 30 32 32 33 38 39 37 41 42 40 43 44 45 44 42 41 39 39 37 38 36
15 15 11 7 4 3 3 5 8 11 12 14 17 19 22 23 26 28 32 34 34 37 42 43 44 46 43 44 47 50 52 50 51 52 54 52 48 45 44 39 37 38 34
5 6 5 1 1 5 6 8 10 13 17 22 26 29 31 34 36 38 39 40 42 42 44 45 45 46 49 51 53 52 50 49 48 55 54 50 48 47 44 41 40 37 34
11 12 9 10 9 9 12 12 14 18 22 26 29 32 35 36 38 40 43 47 50 51 51 51 51 50 50 49 50 52 51 51 50 51 52 47 46 45 43 40 42 40 36
10 12 9 9 15 13 14 19 22 26 30 33 38 41 44 47 48 50 51 51 49 50 52 56 57 57 54 52 53 53 51 51 52 54 54 49 47 48 45 42 43 40 38
9 10 14 16 16 18 22 28 32 35 39 44 46 48 50 52 56 61 61 61 61 61 58 54 53 57 59 59 58 56 53 53 53 60 54 53 51 50 49 48 47 46 43
17 18 18 21 26 29 33 35 38 45 48 53 55 58 59 60 62 64 65 68 70 70 67 63 61 55 55 55 56 58 58 54 54 48 53 54 54 51 50 49 49 48 45
18 19 23 27 32 37 38 45 51 58 62 66 68 67 66 69 69 70 72 74 75 74 70 70 68 65 61 58 57 56 58 60 62 69 53 56 51 53 51 49 48 49 47
22 27 31 35 40 44 48 54 60 66 72 79 79 76 73 73 76 79 77 78 78 77 74 72 68 62 60 57 57 56 60 61 61 64 66 55 50 48 47 49 49 49 47
31 34 37 39 46 52 58 63 70 76 81 87 88 80 78 79 79 75 74 68 67 68 64 58 54 54 54 54 60 58 58 59 61 62 62 59 55 51 47 46 45 45 44
29 35 39 46 50 55 61 68 75 81 87 95 85 79 75 72 72 65 56 50 51 53 55 55 54 52 58 61 66 65 63 61 60 59 58 61 58 52 48 46 45 43 42
36 40 43 47 52 58 65 70 77 83 92 87 79 74 68 66 66 61 52 50 48 49 50 52 55 56 64 64 66 66 65 61 59 57 57 58 58 57 49 45 43 42 43
37 41 48 55 60 65 70 77 84 89 83 72 67 67 68 65 61 57 44 46 47 48 48 48 48 51 59 72 74 69 66 65 57 55 56 54 56 56 51 53 50 49 47
41 45 51 56 60 66 74 82 88 84 75 66 63 64 63 58 51 44 39 35 33 41 39 39 44 54 65 59 67 72 69 65 57 54 55 52 47 53 51 47 45 46 44
45 49 56 58 63 70 79 84 87 77 68 62 62 60 54 46 41 35 29 27 33 28 31 30 34 36 49 62 64 54 56 65 53 50 52 47 45 47 51 50 47 47 45

GFSMW_500_spd_114.txt.gz
Wind_Speed
72 69 67 65 62 58 55 51 49 44 46 43 38 49 69 76 66 60 68 69 69 61 58 54 49 50 48 45 46 46 43 42 41 40 41 40 41 42 46 40 41 38 37
67 67 65 63 60 58 52 52 44 37 37 28 29 47 53 71 63 63 67 74 63 60 57 57 54 53 48 49 49 47 46 45 44 44 45 45 48 50 55 46 41 41 38
51 57 56 58 57 55 49 49 40 43 34 30 39 36 52 63 79 76 70 74 69 67 63 59 56 54 55 51 53 53 47 51 46 48 49 51 51 52 56 50 46 43 41
31 36 36 41 41 41 41 42 32 30 25 28 39 32 42 49 59 67 71 68 73 67 68 62 61 59 58 55 55 51 53 43 32 41 48 55 56 48 49 39 39 42 41
21 20 19 20 26 29 31 32 29 26 35 30 35 40 45 55 48 44 43 48 59 59 64 64 64 61 59 58 56 35 37 34 36 43 34 32 39 45 43 39 37 37 38
23 19 20 18 21 17 25 36 36 37 29 37 35 48 46 41 40 41 38 45 47 44 44 47 48 45 48 43 44 45 44 46 43 42 45 37 47 39 43 39 39 42 43
25 23 14 19 8 9 15 33 24 30 30 31 31 41 43 43 41 40 40 41 47 47 41 43 45 42 47 44 46 45 46 45 46 42 50 52 45 40 39 51 52 41 45
16 20 17 15 15 16 17 16 21 26 21 15 29 30 34 47 42 43 47 53 50 42 48 36 34 36 44 45 42 43 43 44 55 48 53 47 47 50 44 41 38 42 50
18 17 22 24 23 24 25 29 20 24 22 28 28 27 30 34 27 31 26 38 37 36 40 38 43 45 45 49 46 49 41 42 40 42 45 48 41 43 41 40 47 49 49
24 26 21 25 21 17 8 13 17 20 20 10 16 24 21 24 23 29 28 30 40 35 39 41 41 49 47 53 50 44 47 47 50 43 38 43 41 42 36 37 32 30 30
25 26 28 25 27 29 24 24 21 20 9 17 17 19 7 5 22 25 18 16 19 20 29 45 44 32 37 51 49 53 50 50 43 41 46 42 39 44 38 34 32 30 32
26 24 19 20 18 14 12 10 9 9 7 4 3 9 11 19 21 23 27 24 24 27 28 30 34 34 34 40 43 45 44 46 45 39 40 45 43 44 39 39 38 37 40
13 15 14 14 12 11 9 6 4 2 2 5 9 12 14 17 22 26 29 33 36 37 38 38 40 39 40 42 47 47 46 39 46 46 41 47 44 45 46 45 46 44 46
10 9 9 12 14 14 12 10 8 8 9 11 14 17 20 23 27 31 36 41 44 45 46 47 49 52 51 49 52 53 51 52 54 54 53 51 53 56 54 54 54 54 51
15 15 12 11 12 8 8 9 9 9 11 13 18 21 25 30 34 38 41 44 48 49 51 56 57 56 56 58 60 62 62 61 61 58 58 59 55 58 58 58 59 56 54
11 12 12 11 6 10 14 12 15 17 23 28 32 34 35 39 41 45 48 52 54 56 60 63 60 60 64 65 62 62 63 62 63 63 63 61 56 59 59 58 57 56 54
8 9 11 11 14 16 16 19 23 26 31 34 39 43 46 51 54 56 59 63 68 71 71 71 70 70 68 67 67 68 68 66 65 65 64 61 61 64 61 59 57 55 53
10 12 12 13 13 16 19 23 29 38 43 48 51 54 59 63 66 71 71 71 72 70 73 77 80 76 73 72 72 71 70 67 68 68 64 64 60 60 65 61 63 58 55
12 11 11 13 20 27 31 37 42 46 50 56 62 68 72 78 81 83 86 76 71 68 72 82 86 81 74 69 68 71 70 70 67 62 60 59 60 55 50 60 57 60 57
13 15 18 24 29 33 38 41 45 48 53 60 67 71 80 87 91 96 89 82 74 64 63 65 77 79 71 67 62 63 67 69 66 65 60 55 52 62 59 49 45 49 44
19 23 26 29 34 38 42 46 51 56 59 65 72 78 88 94 99 96 82 73 67 65 58 56 56 59 56 56 62 69 69 65 69 65 62 62 53 61 61 52 57 52 43
26 29 32 35 38 43 47 51 54 59 63 70 74 82 89 93 99 85 76 71 66 65 62 56 53 53 56 61 69 72 73 72 73 69 66 62 60 58 60 56 57 49 42
28 32 35 38 40 45 49 52 55 59 65 72 78 87 91 97 81 73 68 67 67 64 58 50 45 47 55 60 67 73 74 72 73 73 70 65 60 58 58 53 56 58 48
32 36 40 44 47 50 55 57 61 65 73 78 87 93 91 77 69 67 66 63 56 48 44 40 36 42 49 57 67 74 79 75 73 76 73 67 65 60 59 54 46 43 47
36 39 43 46 49 54 58 62 68 74 79 85 93 95 83 75 70 65 59 50 40 33 29 29 26 26 33 43 58 63 69 76 79 77 70 66 63 62 58 53 52 49 51
37 40 44 49 53 57 62 66 72 77 83 91 96 89 79 75 68 58 42 35 26 18 16 21 23 28 31 34 39 58 65 62 57 57 65 60 58 49 55 50 48 53 49

GFSMW_500_spd_117.txt.gz
Wind_Speed
74 74 70 65 64 66 67 64 65 61 53 49 45 44 46 43 42 48 45 55 50 57 56 52 63 61 57 52 50 49 49 47 45 44 43 41 38 36 40 41 42 43 48
73 73 76 69 64 66 66 63 58 56 54 52 45 41 45 42 42 46 47 50 63 53 58 73 62 60 60 58 57 52 51 50 48 47 46 44 42 48 46 45 46 49 51
68 67 70 71 67 65 63 60 57 54 52 47 42 41 41 40 40 42 49 52 58 54 63 66 57 66 62 63 60 57 55 55 53 50 50 50 47 50 49 47 51 53 54
61 62 60 65 64 64 61 59 56 51 46 41 40 35 39 42 40 35 41 46 58 51 56 67 76 68 66 66 65 61 58 57 55 56 55 53 57 58 51 50 54 57 53
29 40 48 53 50 56 58 55 50 44 38 33 32 33 36 37 32 28 40 45 57 59 57 59 64 73 71 67 69 64 58 61 59 52 50 47 44 40 37 33 35 39 46
20 19 19 19 21 33 39 39 34 33 30 28 26 26 28 33 35 35 36 48 62 63 62 68 72 78 76 69 66 67 63 60 39 45 42 37 42 39 39 42 38 38 42
32 27 21 13 12 19 18 25 27 25 25 25 27 29 30 35 44 42 47 47 51 55 57 64 68 73 69 51 46 45 51 47 48 52 44 47 51 46 52 54 51 46 45
22 12 11 15 8 11 6 12 25 30 28 32 31 36 41 32 37 34 33 37 39 41 42 46 47 49 47 48 44 47 49 48 41 43 45 49 52 50 46 52 56 52 52
23 23 7 13 12 18 20 16 21 20 20 22 27 30 42 44 46 38 40 35 38 38 41 41 38 39 43 42 44 41 40 44 47 51 53 55 50 53 53 52 54 58 54
25 23 20 21 27 27 28 22 21 23 21 19 20 20 18 24 29 33 30 30 26 37 36 38 42 38 44 47 46 46 47 51 52 55 54 58 52 52 49 45 46 51 47
21 27 27 23 27 34 32 25 20 25 23 25 15 13 15 16 7 16 21 23 21 22 25 35 38 37 44 49 45 51 52 57 61 61 57 57 54 54 53 55 56 54 49
19 16 16 20 21 19 22 25 24 25 25 21 25 23 18 19 16 14 15 17 23 27 30 33 33 38 33 41 53 53 51 50 61 58 60 56 56 56 47 49 45 52 48
15 16 18 17 15 15 19 19 17 21 20 18 14 15 13 10 10 12 15 19 23 26 31 33 38 43 42 46 45 49 47 46 48 50 51 52 54 54 53 49 45 45 47
14 14 16 14 15 17 14 14 14 11 10 12 10 12 12 14 17 20 23 26 29 34 38 41 43 45 49 52 55 58 55 55 55 61 58 55 47 53 55 45 42 45 48
17 16 14 14 16 15 14 11 10 11 13 13 15 17 19 22 24 28 31 35 38 41 45 47 48 49 53 56 59 64 67 67 63 65 66 63 59 56 56 59 56 59 53
13 14 14 14 13 9 8 8 8 9 13 18 21 24 27 30 34 36 40 45 50 54 55 56 60 63 64 67 66 68 69 72 72 74 73 70 71 65 61 62 62 59 62
13 11 9 8 7 7 9 11 14 19 23 26 29 32 35 39 45 50 54 58 64 67 70 72 72 69 69 71 73 77 76 79 78 76 78 76 75 72 64 65 64 65 63
7 5 5 6 11 14 18 21 24 27 30 32 35 37 41 46 49 55 62 67 74 79 80 82 82 82 76 77 85 87 88 86 83 82 80 77 74 70 71 58 65 63 61
5 5 7 12 16 19 22 26 29 32 35 36 39 42 48 55 62 67 74 78 87 92 97 93 80 69 66 75 85 91 90 87 85 81 81 79 72 69 66 62 62 62 63
10 14 16 18 21 23 25 27 31 35 39 43 47 53 60 66 71 78 81 88 97 105 107 94 77 62 57 60 72 78 76 77 81 84 80 76 71 68 67 60 53 49 49
16 16 16 20 23 26 32 35 38 41 45 46 49 56 61 69 74 82 87 96 103 108 95 83 72 64 61 57 60 64 71 75 79 79 78 74 72 70 65 63 68 40 47
18 20 23 26 29 32 35 38 40 44 47 50 55 62 68 72 80 87 96 103 108 95 84 75 71 64 60 58 57 60 64 69 74 78 77 74 71 68 67 64 64 52 55
20 22 26 30 33 36 39 43 44 47 46 49 54 61 66 74 82 89 100 102 90 80 71 62 57 55 52 52 51 57 65 65 65 71 74 74 72 68 65 62 48 59 40
26 28 31 34 37 39 41 43 45 48 49 53 60 66 72 81 89 100 99 89 74 63 54 45 40 37 34 35 40 48 58 63 64 65 71 73 70 64 62 64 67 47 53
30 32 34 36 39 40 43 46 48 51 53 58 65 71 76 85 93 98 90 72 60 48 36 26 21 15 11 18 22 29 40 51 59 63 63 64 66 67 63 60 63 60 60
32 33 35 38 40 43 46 49 52 55 56 61 67 73 81 88 95 91 75 59 48 35 26 9 11 15 16 20 24 27 32 42 51 57 60 62 59 64 63 58 58 65 49